<?xml version="1.0" encoding="UTF-8" standalone="no" ?>
<gpx xmlns="http://www.topografix.com/GPX/1/1" xmlns:xsi="http://www.w3.org/2001/XMLSchema-instance" xsi:schemaLocation="http://www.topografix.com/GPX/1/1 http://www.topografix.com/GPX/1/1/gpx.xsd" version="1.1" creator="VisuGPX - https://www.visugpx.com">
  <metadata>
    <name>Retour de vaulx en velin la soie à craponne</name>
    <desc><![CDATA[Trajet le plus rapide et le plus direct]]></desc>
  </metadata>
  <trk>
    <name><![CDATA[Votre trajet : 20250717_1717.gpx]]></name>
    <extensions>
      <line xmlns="http://www.topografix.com/GPX/gpx_style/0/2">
        <color>0000FF</color>
        <width>4</width>
      </line>
    </extensions>
    <trkseg>
      <trkpt lat="45.75888" lon="4.91525">
        <ele>184</ele>
        <time>2025-07-17T17:17:00.259000+02:00</time>
      </trkpt>
      <trkpt lat="45.75888" lon="4.91524">
        <ele>184</ele>
        <time>2025-07-17T17:17:01.260000+02:00</time>
      </trkpt>
      <trkpt lat="45.75888" lon="4.91524">
        <ele>184</ele>
        <time>2025-07-17T17:17:03.260000+02:00</time>
      </trkpt>
      <trkpt lat="45.75888" lon="4.91524">
        <ele>184</ele>
        <time>2025-07-17T17:17:05.259000+02:00</time>
      </trkpt>
      <trkpt lat="45.75888" lon="4.91524">
        <ele>184</ele>
        <time>2025-07-17T17:17:06.259000+02:00</time>
      </trkpt>
      <trkpt lat="45.75888" lon="4.91524">
        <ele>184</ele>
        <time>2025-07-17T17:17:07.259000+02:00</time>
      </trkpt>
      <trkpt lat="45.75888" lon="4.91524">
        <ele>184</ele>
        <time>2025-07-17T17:17:08.259000+02:00</time>
      </trkpt>
      <trkpt lat="45.75888" lon="4.91524">
        <ele>184</ele>
        <time>2025-07-17T17:17:09.260000+02:00</time>
      </trkpt>
      <trkpt lat="45.75887" lon="4.91523">
        <ele>184</ele>
        <time>2025-07-17T17:17:10.260000+02:00</time>
      </trkpt>
      <trkpt lat="45.75887" lon="4.91523">
        <ele>184</ele>
        <time>2025-07-17T17:17:12.259000+02:00</time>
      </trkpt>
      <trkpt lat="45.75887" lon="4.91523">
        <ele>184</ele>
        <time>2025-07-17T17:17:13.260000+02:00</time>
      </trkpt>
      <trkpt lat="45.75887" lon="4.91523">
        <ele>184</ele>
        <time>2025-07-17T17:17:15.260000+02:00</time>
      </trkpt>
      <trkpt lat="45.75887" lon="4.91523">
        <ele>184</ele>
        <time>2025-07-17T17:17:17.260000+02:00</time>
      </trkpt>
      <trkpt lat="45.75887" lon="4.91523">
        <ele>184</ele>
        <time>2025-07-17T17:17:18.260000+02:00</time>
      </trkpt>
      <trkpt lat="45.75887" lon="4.91523">
        <ele>184</ele>
        <time>2025-07-17T17:17:19.260000+02:00</time>
      </trkpt>
      <trkpt lat="45.75887" lon="4.91523">
        <ele>184</ele>
        <time>2025-07-17T17:17:21.259000+02:00</time>
      </trkpt>
      <trkpt lat="45.75887" lon="4.91523">
        <ele>184</ele>
        <time>2025-07-17T17:17:22.260000+02:00</time>
      </trkpt>
      <trkpt lat="45.75887" lon="4.91523">
        <ele>184</ele>
        <time>2025-07-17T17:17:24.259000+02:00</time>
      </trkpt>
      <trkpt lat="45.75887" lon="4.91523">
        <ele>184</ele>
        <time>2025-07-17T17:17:25.259000+02:00</time>
      </trkpt>
      <trkpt lat="45.75887" lon="4.91523">
        <ele>184</ele>
        <time>2025-07-17T17:17:26.259000+02:00</time>
      </trkpt>
      <trkpt lat="45.75887" lon="4.91523">
        <ele>184</ele>
        <time>2025-07-17T17:17:27.260000+02:00</time>
      </trkpt>
      <trkpt lat="45.75887" lon="4.91523">
        <ele>184</ele>
        <time>2025-07-17T17:17:28.260000+02:00</time>
      </trkpt>
      <trkpt lat="45.75886" lon="4.91523">
        <ele>184</ele>
        <time>2025-07-17T17:17:30.259000+02:00</time>
      </trkpt>
      <trkpt lat="45.75886" lon="4.91523">
        <ele>184</ele>
        <time>2025-07-17T17:17:31.259000+02:00</time>
      </trkpt>
      <trkpt lat="45.75886" lon="4.91523">
        <ele>184</ele>
        <time>2025-07-17T17:17:32.260000+02:00</time>
      </trkpt>
      <trkpt lat="45.75886" lon="4.91523">
        <ele>184</ele>
        <time>2025-07-17T17:17:34.259000+02:00</time>
      </trkpt>
      <trkpt lat="45.75886" lon="4.91523">
        <ele>184</ele>
        <time>2025-07-17T17:17:35.260000+02:00</time>
      </trkpt>
      <trkpt lat="45.75886" lon="4.91523">
        <ele>184</ele>
        <time>2025-07-17T17:17:36.260000+02:00</time>
      </trkpt>
      <trkpt lat="45.75886" lon="4.91523">
        <ele>184</ele>
        <time>2025-07-17T17:17:38.259000+02:00</time>
      </trkpt>
      <trkpt lat="45.75886" lon="4.91523">
        <ele>184</ele>
        <time>2025-07-17T17:17:40.258000+02:00</time>
      </trkpt>
      <trkpt lat="45.75886" lon="4.91523">
        <ele>184</ele>
        <time>2025-07-17T17:17:41.258000+02:00</time>
      </trkpt>
      <trkpt lat="45.75886" lon="4.91523">
        <ele>184</ele>
        <time>2025-07-17T17:17:42.258000+02:00</time>
      </trkpt>
      <trkpt lat="45.75886" lon="4.91523">
        <ele>184</ele>
        <time>2025-07-17T17:17:44.258000+02:00</time>
      </trkpt>
      <trkpt lat="45.75886" lon="4.91523">
        <ele>184</ele>
        <time>2025-07-17T17:17:46.259000+02:00</time>
      </trkpt>
      <trkpt lat="45.75886" lon="4.91523">
        <ele>184</ele>
        <time>2025-07-17T17:17:48.259000+02:00</time>
      </trkpt>
      <trkpt lat="45.75886" lon="4.91523">
        <ele>184</ele>
        <time>2025-07-17T17:17:49.259000+02:00</time>
      </trkpt>
      <trkpt lat="45.75886" lon="4.91523">
        <ele>184</ele>
        <time>2025-07-17T17:17:51.258000+02:00</time>
      </trkpt>
      <trkpt lat="45.75886" lon="4.91523">
        <ele>184</ele>
        <time>2025-07-17T17:17:52.259000+02:00</time>
      </trkpt>
      <trkpt lat="45.75886" lon="4.91523">
        <ele>184</ele>
        <time>2025-07-17T17:17:54.259000+02:00</time>
      </trkpt>
      <trkpt lat="45.75886" lon="4.91523">
        <ele>184</ele>
        <time>2025-07-17T17:17:55.259000+02:00</time>
      </trkpt>
      <trkpt lat="45.75886" lon="4.91523">
        <ele>184</ele>
        <time>2025-07-17T17:17:57.258000+02:00</time>
      </trkpt>
      <trkpt lat="45.75886" lon="4.91523">
        <ele>184</ele>
        <time>2025-07-17T17:17:58.260000+02:00</time>
      </trkpt>
      <trkpt lat="45.75886" lon="4.91523">
        <ele>184</ele>
        <time>2025-07-17T17:18:00.259000+02:00</time>
      </trkpt>
      <trkpt lat="45.75886" lon="4.91523">
        <ele>184</ele>
        <time>2025-07-17T17:18:02.258000+02:00</time>
      </trkpt>
      <trkpt lat="45.75886" lon="4.91523">
        <ele>184</ele>
        <time>2025-07-17T17:18:04.259000+02:00</time>
      </trkpt>
      <trkpt lat="45.75886" lon="4.91523">
        <ele>184</ele>
        <time>2025-07-17T17:18:06.259000+02:00</time>
      </trkpt>
      <trkpt lat="45.75886" lon="4.91523">
        <ele>184</ele>
        <time>2025-07-17T17:18:09.259000+02:00</time>
      </trkpt>
      <trkpt lat="45.75886" lon="4.91525">
        <ele>184</ele>
        <time>2025-07-17T17:18:13.259000+02:00</time>
      </trkpt>
      <trkpt lat="45.75886" lon="4.91527">
        <ele>184</ele>
        <time>2025-07-17T17:18:15.259000+02:00</time>
      </trkpt>
      <trkpt lat="45.75887" lon="4.91529">
        <ele>183.9</ele>
        <time>2025-07-17T17:18:16.259000+02:00</time>
      </trkpt>
      <trkpt lat="45.75887" lon="4.91533">
        <ele>183.5</ele>
        <time>2025-07-17T17:18:18.258000+02:00</time>
      </trkpt>
      <trkpt lat="45.75888" lon="4.91534">
        <ele>183.3</ele>
        <time>2025-07-17T17:18:19.258000+02:00</time>
      </trkpt>
      <trkpt lat="45.75888" lon="4.91536">
        <ele>183.1</ele>
        <time>2025-07-17T17:18:20.260000+02:00</time>
      </trkpt>
      <trkpt lat="45.7589" lon="4.91539">
        <ele>182.8</ele>
        <time>2025-07-17T17:18:22.259000+02:00</time>
      </trkpt>
      <trkpt lat="45.75891" lon="4.91542">
        <ele>182.5</ele>
        <time>2025-07-17T17:18:24.258000+02:00</time>
      </trkpt>
      <trkpt lat="45.75893" lon="4.91543">
        <ele>182.5</ele>
        <time>2025-07-17T17:18:25.258000+02:00</time>
      </trkpt>
      <trkpt lat="45.75895" lon="4.91543">
        <ele>182.6</ele>
        <time>2025-07-17T17:18:26.259000+02:00</time>
      </trkpt>
      <trkpt lat="45.75898" lon="4.91542">
        <ele>182.8</ele>
        <time>2025-07-17T17:18:28.259000+02:00</time>
      </trkpt>
      <trkpt lat="45.75899" lon="4.91541">
        <ele>182.9</ele>
        <time>2025-07-17T17:18:29.260000+02:00</time>
      </trkpt>
      <trkpt lat="45.75903" lon="4.9154">
        <ele>183.1</ele>
        <time>2025-07-17T17:18:31.259000+02:00</time>
      </trkpt>
      <trkpt lat="45.75905" lon="4.9154">
        <ele>183.2</ele>
        <time>2025-07-17T17:18:33.258000+02:00</time>
      </trkpt>
      <trkpt lat="45.75906" lon="4.91539">
        <ele>183.3</ele>
        <time>2025-07-17T17:18:34.258000+02:00</time>
      </trkpt>
      <trkpt lat="45.75906" lon="4.91538">
        <ele>183.3</ele>
        <time>2025-07-17T17:18:35.259000+02:00</time>
      </trkpt>
      <trkpt lat="45.75907" lon="4.91538">
        <ele>183.4</ele>
        <time>2025-07-17T17:18:37.258000+02:00</time>
      </trkpt>
      <trkpt lat="45.75906" lon="4.91538">
        <ele>183.4</ele>
        <time>2025-07-17T17:18:38.260000+02:00</time>
      </trkpt>
      <trkpt lat="45.75906" lon="4.91538">
        <ele>183.3</ele>
        <time>2025-07-17T17:18:40.260000+02:00</time>
      </trkpt>
      <trkpt lat="45.75906" lon="4.91538">
        <ele>183.3</ele>
        <time>2025-07-17T17:18:41.260000+02:00</time>
      </trkpt>
      <trkpt lat="45.75906" lon="4.91538">
        <ele>183.3</ele>
        <time>2025-07-17T17:18:43.258000+02:00</time>
      </trkpt>
      <trkpt lat="45.75906" lon="4.91539">
        <ele>183.3</ele>
        <time>2025-07-17T17:18:44.258000+02:00</time>
      </trkpt>
      <trkpt lat="45.75906" lon="4.91539">
        <ele>183.3</ele>
        <time>2025-07-17T17:18:45.259000+02:00</time>
      </trkpt>
      <trkpt lat="45.75907" lon="4.9154">
        <ele>183.3</ele>
        <time>2025-07-17T17:18:46.259000+02:00</time>
      </trkpt>
      <trkpt lat="45.75908" lon="4.9154">
        <ele>183.3</ele>
        <time>2025-07-17T17:18:47.259000+02:00</time>
      </trkpt>
      <trkpt lat="45.7591" lon="4.9154">
        <ele>183.4</ele>
        <time>2025-07-17T17:18:49.258000+02:00</time>
      </trkpt>
      <trkpt lat="45.7591" lon="4.91539">
        <ele>183.4</ele>
        <time>2025-07-17T17:18:50.258000+02:00</time>
      </trkpt>
      <trkpt lat="45.75911" lon="4.91539">
        <ele>183.4</ele>
        <time>2025-07-17T17:18:51.259000+02:00</time>
      </trkpt>
      <trkpt lat="45.75911" lon="4.91538">
        <ele>183.5</ele>
        <time>2025-07-17T17:18:53.259000+02:00</time>
      </trkpt>
      <trkpt lat="45.75911" lon="4.91539">
        <ele>183.5</ele>
        <time>2025-07-17T17:18:55.258000+02:00</time>
      </trkpt>
      <trkpt lat="45.75911" lon="4.91539">
        <ele>183.5</ele>
        <time>2025-07-17T17:18:56.258000+02:00</time>
      </trkpt>
      <trkpt lat="45.75911" lon="4.91539">
        <ele>183.4</ele>
        <time>2025-07-17T17:18:57.258000+02:00</time>
      </trkpt>
      <trkpt lat="45.75911" lon="4.91539">
        <ele>183.4</ele>
        <time>2025-07-17T17:18:58.259000+02:00</time>
      </trkpt>
      <trkpt lat="45.75911" lon="4.91539">
        <ele>183.4</ele>
        <time>2025-07-17T17:19:00.258000+02:00</time>
      </trkpt>
      <trkpt lat="45.75911" lon="4.91538">
        <ele>183.4</ele>
        <time>2025-07-17T17:19:01.258000+02:00</time>
      </trkpt>
      <trkpt lat="45.75911" lon="4.91538">
        <ele>183.5</ele>
        <time>2025-07-17T17:19:02.258000+02:00</time>
      </trkpt>
      <trkpt lat="45.75911" lon="4.91538">
        <ele>183.5</ele>
        <time>2025-07-17T17:19:03.258000+02:00</time>
      </trkpt>
      <trkpt lat="45.75911" lon="4.91538">
        <ele>183.5</ele>
        <time>2025-07-17T17:19:04.258000+02:00</time>
      </trkpt>
      <trkpt lat="45.75911" lon="4.91538">
        <ele>183.5</ele>
        <time>2025-07-17T17:19:05.259000+02:00</time>
      </trkpt>
      <trkpt lat="45.75911" lon="4.91538">
        <ele>183.5</ele>
        <time>2025-07-17T17:19:07.259000+02:00</time>
      </trkpt>
      <trkpt lat="45.75911" lon="4.91538">
        <ele>183.5</ele>
        <time>2025-07-17T17:19:08.259000+02:00</time>
      </trkpt>
      <trkpt lat="45.75911" lon="4.91538">
        <ele>183.5</ele>
        <time>2025-07-17T17:19:09.259000+02:00</time>
      </trkpt>
      <trkpt lat="45.75911" lon="4.91538">
        <ele>183.5</ele>
        <time>2025-07-17T17:19:11.258000+02:00</time>
      </trkpt>
      <trkpt lat="45.75911" lon="4.91538">
        <ele>183.5</ele>
        <time>2025-07-17T17:19:12.259000+02:00</time>
      </trkpt>
      <trkpt lat="45.75911" lon="4.91538">
        <ele>183.5</ele>
        <time>2025-07-17T17:19:13.259000+02:00</time>
      </trkpt>
      <trkpt lat="45.75911" lon="4.91538">
        <ele>183.5</ele>
        <time>2025-07-17T17:19:16.258000+02:00</time>
      </trkpt>
      <trkpt lat="45.75911" lon="4.91538">
        <ele>183.5</ele>
        <time>2025-07-17T17:19:17.258000+02:00</time>
      </trkpt>
      <trkpt lat="45.75911" lon="4.91538">
        <ele>183.5</ele>
        <time>2025-07-17T17:19:18.258000+02:00</time>
      </trkpt>
      <trkpt lat="45.75911" lon="4.91538">
        <ele>183.5</ele>
        <time>2025-07-17T17:19:19.260000+02:00</time>
      </trkpt>
      <trkpt lat="45.75911" lon="4.91538">
        <ele>183.5</ele>
        <time>2025-07-17T17:19:22.259000+02:00</time>
      </trkpt>
      <trkpt lat="45.75911" lon="4.91538">
        <ele>183.5</ele>
        <time>2025-07-17T17:19:24.259000+02:00</time>
      </trkpt>
      <trkpt lat="45.75911" lon="4.91538">
        <ele>183.5</ele>
        <time>2025-07-17T17:19:28.258000+02:00</time>
      </trkpt>
      <trkpt lat="45.75911" lon="4.91538">
        <ele>183.5</ele>
        <time>2025-07-17T17:19:31.259000+02:00</time>
      </trkpt>
      <trkpt lat="45.75911" lon="4.91538">
        <ele>183.5</ele>
        <time>2025-07-17T17:19:33.258000+02:00</time>
      </trkpt>
      <trkpt lat="45.75911" lon="4.91538">
        <ele>183.5</ele>
        <time>2025-07-17T17:19:34.258000+02:00</time>
      </trkpt>
      <trkpt lat="45.75911" lon="4.91538">
        <ele>183.5</ele>
        <time>2025-07-17T17:19:36.258000+02:00</time>
      </trkpt>
      <trkpt lat="45.75911" lon="4.91538">
        <ele>183.5</ele>
        <time>2025-07-17T17:19:37.258000+02:00</time>
      </trkpt>
      <trkpt lat="45.75911" lon="4.91538">
        <ele>183.5</ele>
        <time>2025-07-17T17:19:38.258000+02:00</time>
      </trkpt>
      <trkpt lat="45.75911" lon="4.91538">
        <ele>183.5</ele>
        <time>2025-07-17T17:19:39.258000+02:00</time>
      </trkpt>
      <trkpt lat="45.75911" lon="4.91538">
        <ele>183.5</ele>
        <time>2025-07-17T17:19:40.258000+02:00</time>
      </trkpt>
      <trkpt lat="45.75911" lon="4.91538">
        <ele>183.5</ele>
        <time>2025-07-17T17:19:41.258000+02:00</time>
      </trkpt>
      <trkpt lat="45.75911" lon="4.91538">
        <ele>183.5</ele>
        <time>2025-07-17T17:19:42.258000+02:00</time>
      </trkpt>
      <trkpt lat="45.75911" lon="4.91538">
        <ele>183.5</ele>
        <time>2025-07-17T17:19:44.258000+02:00</time>
      </trkpt>
      <trkpt lat="45.75911" lon="4.91537">
        <ele>183.5</ele>
        <time>2025-07-17T17:19:45.258000+02:00</time>
      </trkpt>
      <trkpt lat="45.75911" lon="4.91537">
        <ele>183.5</ele>
        <time>2025-07-17T17:19:46.258000+02:00</time>
      </trkpt>
      <trkpt lat="45.75911" lon="4.91537">
        <ele>183.5</ele>
        <time>2025-07-17T17:19:47.258000+02:00</time>
      </trkpt>
      <trkpt lat="45.75911" lon="4.91537">
        <ele>183.5</ele>
        <time>2025-07-17T17:19:48.258000+02:00</time>
      </trkpt>
      <trkpt lat="45.75911" lon="4.91537">
        <ele>183.5</ele>
        <time>2025-07-17T17:19:50.259000+02:00</time>
      </trkpt>
      <trkpt lat="45.75911" lon="4.91537">
        <ele>183.5</ele>
        <time>2025-07-17T17:19:52.259000+02:00</time>
      </trkpt>
      <trkpt lat="45.75911" lon="4.91537">
        <ele>183.5</ele>
        <time>2025-07-17T17:19:54.258000+02:00</time>
      </trkpt>
      <trkpt lat="45.75911" lon="4.91537">
        <ele>183.5</ele>
        <time>2025-07-17T17:19:56.258000+02:00</time>
      </trkpt>
      <trkpt lat="45.75911" lon="4.91537">
        <ele>183.5</ele>
        <time>2025-07-17T17:19:57.258000+02:00</time>
      </trkpt>
      <trkpt lat="45.75911" lon="4.91537">
        <ele>183.5</ele>
        <time>2025-07-17T17:19:58.259000+02:00</time>
      </trkpt>
      <trkpt lat="45.75911" lon="4.91537">
        <ele>183.5</ele>
        <time>2025-07-17T17:20:00.258000+02:00</time>
      </trkpt>
      <trkpt lat="45.75911" lon="4.91537">
        <ele>183.5</ele>
        <time>2025-07-17T17:20:01.258000+02:00</time>
      </trkpt>
      <trkpt lat="45.75911" lon="4.91537">
        <ele>183.5</ele>
        <time>2025-07-17T17:20:02.258000+02:00</time>
      </trkpt>
      <trkpt lat="45.75911" lon="4.91537">
        <ele>183.5</ele>
        <time>2025-07-17T17:20:03.259000+02:00</time>
      </trkpt>
      <trkpt lat="45.75911" lon="4.91537">
        <ele>183.5</ele>
        <time>2025-07-17T17:20:05.258000+02:00</time>
      </trkpt>
      <trkpt lat="45.75911" lon="4.91537">
        <ele>183.5</ele>
        <time>2025-07-17T17:20:07.258000+02:00</time>
      </trkpt>
      <trkpt lat="45.75911" lon="4.91537">
        <ele>183.5</ele>
        <time>2025-07-17T17:20:09.258000+02:00</time>
      </trkpt>
      <trkpt lat="45.75911" lon="4.91537">
        <ele>183.5</ele>
        <time>2025-07-17T17:20:14.259000+02:00</time>
      </trkpt>
      <trkpt lat="45.75911" lon="4.91537">
        <ele>183.5</ele>
        <time>2025-07-17T17:20:15.259000+02:00</time>
      </trkpt>
      <trkpt lat="45.75911" lon="4.91537">
        <ele>183.5</ele>
        <time>2025-07-17T17:20:19.258000+02:00</time>
      </trkpt>
      <trkpt lat="45.75911" lon="4.91537">
        <ele>183.5</ele>
        <time>2025-07-17T17:20:22.258000+02:00</time>
      </trkpt>
      <trkpt lat="45.75911" lon="4.91537">
        <ele>183.5</ele>
        <time>2025-07-17T17:20:24.259000+02:00</time>
      </trkpt>
      <trkpt lat="45.75911" lon="4.91537">
        <ele>183.5</ele>
        <time>2025-07-17T17:20:26.258000+02:00</time>
      </trkpt>
      <trkpt lat="45.75911" lon="4.91537">
        <ele>183.5</ele>
        <time>2025-07-17T17:20:28.258000+02:00</time>
      </trkpt>
      <trkpt lat="45.75911" lon="4.91537">
        <ele>183.5</ele>
        <time>2025-07-17T17:20:29.258000+02:00</time>
      </trkpt>
      <trkpt lat="45.75911" lon="4.91537">
        <ele>183.5</ele>
        <time>2025-07-17T17:20:30.258000+02:00</time>
      </trkpt>
      <trkpt lat="45.75911" lon="4.91537">
        <ele>183.5</ele>
        <time>2025-07-17T17:20:31.258000+02:00</time>
      </trkpt>
      <trkpt lat="45.75911" lon="4.91538">
        <ele>183.5</ele>
        <time>2025-07-17T17:20:32.258000+02:00</time>
      </trkpt>
      <trkpt lat="45.75911" lon="4.91538">
        <ele>183.5</ele>
        <time>2025-07-17T17:20:33.259000+02:00</time>
      </trkpt>
      <trkpt lat="45.75911" lon="4.91538">
        <ele>183.5</ele>
        <time>2025-07-17T17:20:35.258000+02:00</time>
      </trkpt>
      <trkpt lat="45.75911" lon="4.91538">
        <ele>183.5</ele>
        <time>2025-07-17T17:20:36.258000+02:00</time>
      </trkpt>
      <trkpt lat="45.75911" lon="4.91538">
        <ele>183.5</ele>
        <time>2025-07-17T17:20:38.258000+02:00</time>
      </trkpt>
      <trkpt lat="45.75911" lon="4.91538">
        <ele>183.5</ele>
        <time>2025-07-17T17:20:40.257000+02:00</time>
      </trkpt>
      <trkpt lat="45.75912" lon="4.91537">
        <ele>183.5</ele>
        <time>2025-07-17T17:20:41.257000+02:00</time>
      </trkpt>
      <trkpt lat="45.75912" lon="4.91537">
        <ele>183.6</ele>
        <time>2025-07-17T17:20:42.258000+02:00</time>
      </trkpt>
      <trkpt lat="45.75912" lon="4.91536">
        <ele>183.6</ele>
        <time>2025-07-17T17:20:44.257000+02:00</time>
      </trkpt>
      <trkpt lat="45.75912" lon="4.91536">
        <ele>183.6</ele>
        <time>2025-07-17T17:20:45.257000+02:00</time>
      </trkpt>
      <trkpt lat="45.75912" lon="4.91536">
        <ele>183.6</ele>
        <time>2025-07-17T17:20:46.258000+02:00</time>
      </trkpt>
      <trkpt lat="45.75912" lon="4.91536">
        <ele>183.6</ele>
        <time>2025-07-17T17:20:48.257000+02:00</time>
      </trkpt>
      <trkpt lat="45.75912" lon="4.91536">
        <ele>183.6</ele>
        <time>2025-07-17T17:20:49.259000+02:00</time>
      </trkpt>
      <trkpt lat="45.75912" lon="4.91536">
        <ele>183.6</ele>
        <time>2025-07-17T17:20:51.257000+02:00</time>
      </trkpt>
      <trkpt lat="45.75912" lon="4.91536">
        <ele>183.6</ele>
        <time>2025-07-17T17:20:52.257000+02:00</time>
      </trkpt>
      <trkpt lat="45.75912" lon="4.91536">
        <ele>183.6</ele>
        <time>2025-07-17T17:20:53.257000+02:00</time>
      </trkpt>
      <trkpt lat="45.75914" lon="4.91537">
        <ele>183.6</ele>
        <time>2025-07-17T17:20:54.257000+02:00</time>
      </trkpt>
      <trkpt lat="45.75915" lon="4.91537">
        <ele>183.6</ele>
        <time>2025-07-17T17:20:55.258000+02:00</time>
      </trkpt>
      <trkpt lat="45.75916" lon="4.91539">
        <ele>183.6</ele>
        <time>2025-07-17T17:20:56.258000+02:00</time>
      </trkpt>
      <trkpt lat="45.75917" lon="4.91545">
        <ele>183.4</ele>
        <time>2025-07-17T17:20:58.257000+02:00</time>
      </trkpt>
      <trkpt lat="45.75918" lon="4.91549">
        <ele>183.2</ele>
        <time>2025-07-17T17:20:59.258000+02:00</time>
      </trkpt>
      <trkpt lat="45.75918" lon="4.91552">
        <ele>183.1</ele>
        <time>2025-07-17T17:21:00.258000+02:00</time>
      </trkpt>
      <trkpt lat="45.75918" lon="4.91556">
        <ele>183</ele>
        <time>2025-07-17T17:21:01.258000+02:00</time>
      </trkpt>
      <trkpt lat="45.75919" lon="4.91564">
        <ele>182.7</ele>
        <time>2025-07-17T17:21:03.257000+02:00</time>
      </trkpt>
      <trkpt lat="45.7592" lon="4.91568">
        <ele>182.6</ele>
        <time>2025-07-17T17:21:04.257000+02:00</time>
      </trkpt>
      <trkpt lat="45.75921" lon="4.91572">
        <ele>182.5</ele>
        <time>2025-07-17T17:21:05.257000+02:00</time>
      </trkpt>
      <trkpt lat="45.75922" lon="4.91576">
        <ele>182.4</ele>
        <time>2025-07-17T17:21:06.258000+02:00</time>
      </trkpt>
      <trkpt lat="45.75923" lon="4.9158">
        <ele>182.3</ele>
        <time>2025-07-17T17:21:07.258000+02:00</time>
      </trkpt>
      <trkpt lat="45.75924" lon="4.91584">
        <ele>182.3</ele>
        <time>2025-07-17T17:21:08.258000+02:00</time>
      </trkpt>
      <trkpt lat="45.75924" lon="4.91588">
        <ele>182.3</ele>
        <time>2025-07-17T17:21:09.258000+02:00</time>
      </trkpt>
      <trkpt lat="45.75926" lon="4.91593">
        <ele>182.4</ele>
        <time>2025-07-17T17:21:10.258000+02:00</time>
      </trkpt>
      <trkpt lat="45.75928" lon="4.91602">
        <ele>182.7</ele>
        <time>2025-07-17T17:21:12.257000+02:00</time>
      </trkpt>
      <trkpt lat="45.75929" lon="4.91606">
        <ele>182.8</ele>
        <time>2025-07-17T17:21:13.257000+02:00</time>
      </trkpt>
      <trkpt lat="45.7593" lon="4.91611">
        <ele>182.9</ele>
        <time>2025-07-17T17:21:14.257000+02:00</time>
      </trkpt>
      <trkpt lat="45.7593" lon="4.91614">
        <ele>183</ele>
        <time>2025-07-17T17:21:15.257000+02:00</time>
      </trkpt>
      <trkpt lat="45.7593" lon="4.91618">
        <ele>183</ele>
        <time>2025-07-17T17:21:16.258000+02:00</time>
      </trkpt>
      <trkpt lat="45.75931" lon="4.91625">
        <ele>183</ele>
        <time>2025-07-17T17:21:18.257000+02:00</time>
      </trkpt>
      <trkpt lat="45.75932" lon="4.91629">
        <ele>183</ele>
        <time>2025-07-17T17:21:19.257000+02:00</time>
      </trkpt>
      <trkpt lat="45.75933" lon="4.91633">
        <ele>183</ele>
        <time>2025-07-17T17:21:20.258000+02:00</time>
      </trkpt>
      <trkpt lat="45.75934" lon="4.91637">
        <ele>183</ele>
        <time>2025-07-17T17:21:22.258000+02:00</time>
      </trkpt>
      <trkpt lat="45.75936" lon="4.91639">
        <ele>183</ele>
        <time>2025-07-17T17:21:24.257000+02:00</time>
      </trkpt>
      <trkpt lat="45.75938" lon="4.9164">
        <ele>183</ele>
        <time>2025-07-17T17:21:25.258000+02:00</time>
      </trkpt>
      <trkpt lat="45.75941" lon="4.9164">
        <ele>183</ele>
        <time>2025-07-17T17:21:26.258000+02:00</time>
      </trkpt>
      <trkpt lat="45.75945" lon="4.9164">
        <ele>183</ele>
        <time>2025-07-17T17:21:27.258000+02:00</time>
      </trkpt>
      <trkpt lat="45.75948" lon="4.91641">
        <ele>183</ele>
        <time>2025-07-17T17:21:28.258000+02:00</time>
      </trkpt>
      <trkpt lat="45.75951" lon="4.9164">
        <ele>183</ele>
        <time>2025-07-17T17:21:29.258000+02:00</time>
      </trkpt>
      <trkpt lat="45.75954" lon="4.91638">
        <ele>183</ele>
        <time>2025-07-17T17:21:30.258000+02:00</time>
      </trkpt>
      <trkpt lat="45.75956" lon="4.91631">
        <ele>183.2</ele>
        <time>2025-07-17T17:21:32.257000+02:00</time>
      </trkpt>
      <trkpt lat="45.75954" lon="4.91624">
        <ele>183.3</ele>
        <time>2025-07-17T17:21:33.257000+02:00</time>
      </trkpt>
      <trkpt lat="45.75953" lon="4.91618">
        <ele>183.5</ele>
        <time>2025-07-17T17:21:34.258000+02:00</time>
      </trkpt>
      <trkpt lat="45.75951" lon="4.91611">
        <ele>183.8</ele>
        <time>2025-07-17T17:21:35.258000+02:00</time>
      </trkpt>
      <trkpt lat="45.75947" lon="4.91596">
        <ele>183.4</ele>
        <time>2025-07-17T17:21:37.256000+02:00</time>
      </trkpt>
      <trkpt lat="45.75945" lon="4.91587">
        <ele>183.1</ele>
        <time>2025-07-17T17:21:38.258000+02:00</time>
      </trkpt>
      <trkpt lat="45.7594" lon="4.91571">
        <ele>182.9</ele>
        <time>2025-07-17T17:21:40.258000+02:00</time>
      </trkpt>
      <trkpt lat="45.75936" lon="4.91553">
        <ele>183</ele>
        <time>2025-07-17T17:21:42.257000+02:00</time>
      </trkpt>
      <trkpt lat="45.75933" lon="4.91545">
        <ele>183.2</ele>
        <time>2025-07-17T17:21:43.258000+02:00</time>
      </trkpt>
      <trkpt lat="45.75928" lon="4.91528">
        <ele>183.6</ele>
        <time>2025-07-17T17:21:45.258000+02:00</time>
      </trkpt>
      <trkpt lat="45.75924" lon="4.9151">
        <ele>183.7</ele>
        <time>2025-07-17T17:21:47.257000+02:00</time>
      </trkpt>
      <trkpt lat="45.75922" lon="4.91501">
        <ele>183.8</ele>
        <time>2025-07-17T17:21:48.258000+02:00</time>
      </trkpt>
      <trkpt lat="45.7592" lon="4.91492">
        <ele>183.9</ele>
        <time>2025-07-17T17:21:49.258000+02:00</time>
      </trkpt>
      <trkpt lat="45.75916" lon="4.91475">
        <ele>184</ele>
        <time>2025-07-17T17:21:51.257000+02:00</time>
      </trkpt>
      <trkpt lat="45.75913" lon="4.91466">
        <ele>184</ele>
        <time>2025-07-17T17:21:52.258000+02:00</time>
      </trkpt>
      <trkpt lat="45.75908" lon="4.91449">
        <ele>184</ele>
        <time>2025-07-17T17:21:54.256000+02:00</time>
      </trkpt>
      <trkpt lat="45.75906" lon="4.9144">
        <ele>184</ele>
        <time>2025-07-17T17:21:55.257000+02:00</time>
      </trkpt>
      <trkpt lat="45.75905" lon="4.91431">
        <ele>184</ele>
        <time>2025-07-17T17:21:56.258000+02:00</time>
      </trkpt>
      <trkpt lat="45.75901" lon="4.91413">
        <ele>184</ele>
        <time>2025-07-17T17:21:58.258000+02:00</time>
      </trkpt>
      <trkpt lat="45.75897" lon="4.91396">
        <ele>184</ele>
        <time>2025-07-17T17:22:00.256000+02:00</time>
      </trkpt>
      <trkpt lat="45.75895" lon="4.91387">
        <ele>184</ele>
        <time>2025-07-17T17:22:01.257000+02:00</time>
      </trkpt>
      <trkpt lat="45.75893" lon="4.91378">
        <ele>184</ele>
        <time>2025-07-17T17:22:02.257000+02:00</time>
      </trkpt>
      <trkpt lat="45.75891" lon="4.91369">
        <ele>184</ele>
        <time>2025-07-17T17:22:03.257000+02:00</time>
      </trkpt>
      <trkpt lat="45.75889" lon="4.9136">
        <ele>184</ele>
        <time>2025-07-17T17:22:04.258000+02:00</time>
      </trkpt>
      <trkpt lat="45.75887" lon="4.91351">
        <ele>184</ele>
        <time>2025-07-17T17:22:05.258000+02:00</time>
      </trkpt>
      <trkpt lat="45.75884" lon="4.91334">
        <ele>184</ele>
        <time>2025-07-17T17:22:07.258000+02:00</time>
      </trkpt>
      <trkpt lat="45.7588" lon="4.91316">
        <ele>184</ele>
        <time>2025-07-17T17:22:09.257000+02:00</time>
      </trkpt>
      <trkpt lat="45.75879" lon="4.91307">
        <ele>184</ele>
        <time>2025-07-17T17:22:10.258000+02:00</time>
      </trkpt>
      <trkpt lat="45.75876" lon="4.9129">
        <ele>184</ele>
        <time>2025-07-17T17:22:12.258000+02:00</time>
      </trkpt>
      <trkpt lat="45.75873" lon="4.91272">
        <ele>184</ele>
        <time>2025-07-17T17:22:14.258000+02:00</time>
      </trkpt>
      <trkpt lat="45.75871" lon="4.91253">
        <ele>184</ele>
        <time>2025-07-17T17:22:16.258000+02:00</time>
      </trkpt>
      <trkpt lat="45.75868" lon="4.91235">
        <ele>184</ele>
        <time>2025-07-17T17:22:18.257000+02:00</time>
      </trkpt>
      <trkpt lat="45.75867" lon="4.91226">
        <ele>184</ele>
        <time>2025-07-17T17:22:19.257000+02:00</time>
      </trkpt>
      <trkpt lat="45.75864" lon="4.91207">
        <ele>184</ele>
        <time>2025-07-17T17:22:21.256000+02:00</time>
      </trkpt>
      <trkpt lat="45.75863" lon="4.91198">
        <ele>184</ele>
        <time>2025-07-17T17:22:22.257000+02:00</time>
      </trkpt>
      <trkpt lat="45.75861" lon="4.91189">
        <ele>184</ele>
        <time>2025-07-17T17:22:23.258000+02:00</time>
      </trkpt>
      <trkpt lat="45.75858" lon="4.91171">
        <ele>184</ele>
        <time>2025-07-17T17:22:25.256000+02:00</time>
      </trkpt>
      <trkpt lat="45.75857" lon="4.91162">
        <ele>184</ele>
        <time>2025-07-17T17:22:26.256000+02:00</time>
      </trkpt>
      <trkpt lat="45.75856" lon="4.91154">
        <ele>184</ele>
        <time>2025-07-17T17:22:27.257000+02:00</time>
      </trkpt>
      <trkpt lat="45.75854" lon="4.91146">
        <ele>184</ele>
        <time>2025-07-17T17:22:28.257000+02:00</time>
      </trkpt>
      <trkpt lat="45.75853" lon="4.91137">
        <ele>184</ele>
        <time>2025-07-17T17:22:29.257000+02:00</time>
      </trkpt>
      <trkpt lat="45.75851" lon="4.91128">
        <ele>184</ele>
        <time>2025-07-17T17:22:30.258000+02:00</time>
      </trkpt>
      <trkpt lat="45.75849" lon="4.91111">
        <ele>184</ele>
        <time>2025-07-17T17:22:32.257000+02:00</time>
      </trkpt>
      <trkpt lat="45.75847" lon="4.91096">
        <ele>184</ele>
        <time>2025-07-17T17:22:34.256000+02:00</time>
      </trkpt>
      <trkpt lat="45.75846" lon="4.91092">
        <ele>184</ele>
        <time>2025-07-17T17:22:35.256000+02:00</time>
      </trkpt>
      <trkpt lat="45.75846" lon="4.91089">
        <ele>184</ele>
        <time>2025-07-17T17:22:36.256000+02:00</time>
      </trkpt>
      <trkpt lat="45.75846" lon="4.91086">
        <ele>184</ele>
        <time>2025-07-17T17:22:37.258000+02:00</time>
      </trkpt>
      <trkpt lat="45.75845" lon="4.91082">
        <ele>184</ele>
        <time>2025-07-17T17:22:39.257000+02:00</time>
      </trkpt>
      <trkpt lat="45.75844" lon="4.91078">
        <ele>184.1</ele>
        <time>2025-07-17T17:22:41.258000+02:00</time>
      </trkpt>
      <trkpt lat="45.75843" lon="4.91071">
        <ele>184.3</ele>
        <time>2025-07-17T17:22:43.257000+02:00</time>
      </trkpt>
      <trkpt lat="45.75842" lon="4.91063">
        <ele>184.5</ele>
        <time>2025-07-17T17:22:45.257000+02:00</time>
      </trkpt>
      <trkpt lat="45.75841" lon="4.91058">
        <ele>184.6</ele>
        <time>2025-07-17T17:22:46.258000+02:00</time>
      </trkpt>
      <trkpt lat="45.75839" lon="4.91047">
        <ele>184.5</ele>
        <time>2025-07-17T17:22:48.256000+02:00</time>
      </trkpt>
      <trkpt lat="45.75838" lon="4.91041">
        <ele>184.3</ele>
        <time>2025-07-17T17:22:49.257000+02:00</time>
      </trkpt>
      <trkpt lat="45.75837" lon="4.91034">
        <ele>184.1</ele>
        <time>2025-07-17T17:22:50.258000+02:00</time>
      </trkpt>
      <trkpt lat="45.75837" lon="4.91028">
        <ele>183.9</ele>
        <time>2025-07-17T17:22:51.258000+02:00</time>
      </trkpt>
      <trkpt lat="45.75835" lon="4.91016">
        <ele>184</ele>
        <time>2025-07-17T17:22:53.257000+02:00</time>
      </trkpt>
      <trkpt lat="45.75834" lon="4.9101">
        <ele>184</ele>
        <time>2025-07-17T17:22:54.258000+02:00</time>
      </trkpt>
      <trkpt lat="45.75833" lon="4.91003">
        <ele>184</ele>
        <time>2025-07-17T17:22:55.258000+02:00</time>
      </trkpt>
      <trkpt lat="45.75831" lon="4.9099">
        <ele>183.7</ele>
        <time>2025-07-17T17:22:57.258000+02:00</time>
      </trkpt>
      <trkpt lat="45.75828" lon="4.90976">
        <ele>183.3</ele>
        <time>2025-07-17T17:22:59.257000+02:00</time>
      </trkpt>
      <trkpt lat="45.75828" lon="4.90968">
        <ele>182.7</ele>
        <time>2025-07-17T17:23:00.258000+02:00</time>
      </trkpt>
      <trkpt lat="45.75826" lon="4.90954">
        <ele>181.1</ele>
        <time>2025-07-17T17:23:02.256000+02:00</time>
      </trkpt>
      <trkpt lat="45.75825" lon="4.90947">
        <ele>180.3</ele>
        <time>2025-07-17T17:23:03.256000+02:00</time>
      </trkpt>
      <trkpt lat="45.75824" lon="4.90939">
        <ele>180.3</ele>
        <time>2025-07-17T17:23:04.257000+02:00</time>
      </trkpt>
      <trkpt lat="45.75823" lon="4.90932">
        <ele>180.6</ele>
        <time>2025-07-17T17:23:05.258000+02:00</time>
      </trkpt>
      <trkpt lat="45.75821" lon="4.90917">
        <ele>181.1</ele>
        <time>2025-07-17T17:23:07.257000+02:00</time>
      </trkpt>
      <trkpt lat="45.7582" lon="4.90909">
        <ele>182</ele>
        <time>2025-07-17T17:23:08.257000+02:00</time>
      </trkpt>
      <trkpt lat="45.75818" lon="4.90893">
        <ele>183.3</ele>
        <time>2025-07-17T17:23:10.256000+02:00</time>
      </trkpt>
      <trkpt lat="45.75817" lon="4.90885">
        <ele>183.7</ele>
        <time>2025-07-17T17:23:11.256000+02:00</time>
      </trkpt>
      <trkpt lat="45.75815" lon="4.90876">
        <ele>183.8</ele>
        <time>2025-07-17T17:23:12.257000+02:00</time>
      </trkpt>
      <trkpt lat="45.75813" lon="4.90858">
        <ele>184</ele>
        <time>2025-07-17T17:23:14.257000+02:00</time>
      </trkpt>
      <trkpt lat="45.75812" lon="4.9085">
        <ele>184</ele>
        <time>2025-07-17T17:23:15.257000+02:00</time>
      </trkpt>
      <trkpt lat="45.75811" lon="4.90841">
        <ele>184</ele>
        <time>2025-07-17T17:23:16.258000+02:00</time>
      </trkpt>
      <trkpt lat="45.75808" lon="4.90824">
        <ele>184</ele>
        <time>2025-07-17T17:23:18.258000+02:00</time>
      </trkpt>
      <trkpt lat="45.75806" lon="4.90809">
        <ele>184</ele>
        <time>2025-07-17T17:23:20.256000+02:00</time>
      </trkpt>
      <trkpt lat="45.75805" lon="4.90804">
        <ele>184</ele>
        <time>2025-07-17T17:23:21.258000+02:00</time>
      </trkpt>
      <trkpt lat="45.75803" lon="4.90795">
        <ele>184</ele>
        <time>2025-07-17T17:23:23.256000+02:00</time>
      </trkpt>
      <trkpt lat="45.75802" lon="4.90791">
        <ele>184</ele>
        <time>2025-07-17T17:23:24.257000+02:00</time>
      </trkpt>
      <trkpt lat="45.75802" lon="4.90786">
        <ele>184</ele>
        <time>2025-07-17T17:23:25.258000+02:00</time>
      </trkpt>
      <trkpt lat="45.75801" lon="4.90775">
        <ele>184</ele>
        <time>2025-07-17T17:23:27.256000+02:00</time>
      </trkpt>
      <trkpt lat="45.75801" lon="4.90768">
        <ele>184</ele>
        <time>2025-07-17T17:23:28.256000+02:00</time>
      </trkpt>
      <trkpt lat="45.758" lon="4.90761">
        <ele>184</ele>
        <time>2025-07-17T17:23:29.256000+02:00</time>
      </trkpt>
      <trkpt lat="45.75799" lon="4.90753">
        <ele>184</ele>
        <time>2025-07-17T17:23:30.257000+02:00</time>
      </trkpt>
      <trkpt lat="45.75796" lon="4.90736">
        <ele>184</ele>
        <time>2025-07-17T17:23:32.258000+02:00</time>
      </trkpt>
      <trkpt lat="45.75794" lon="4.90719">
        <ele>184</ele>
        <time>2025-07-17T17:23:34.256000+02:00</time>
      </trkpt>
      <trkpt lat="45.75793" lon="4.90711">
        <ele>184</ele>
        <time>2025-07-17T17:23:35.257000+02:00</time>
      </trkpt>
      <trkpt lat="45.75792" lon="4.90701">
        <ele>184</ele>
        <time>2025-07-17T17:23:36.257000+02:00</time>
      </trkpt>
      <trkpt lat="45.7579" lon="4.90683">
        <ele>184</ele>
        <time>2025-07-17T17:23:38.256000+02:00</time>
      </trkpt>
      <trkpt lat="45.75788" lon="4.90674">
        <ele>184</ele>
        <time>2025-07-17T17:23:39.258000+02:00</time>
      </trkpt>
      <trkpt lat="45.75786" lon="4.90655">
        <ele>183.7</ele>
        <time>2025-07-17T17:23:41.256000+02:00</time>
      </trkpt>
      <trkpt lat="45.75784" lon="4.90645">
        <ele>183.4</ele>
        <time>2025-07-17T17:23:42.258000+02:00</time>
      </trkpt>
      <trkpt lat="45.75782" lon="4.90627">
        <ele>183.1</ele>
        <time>2025-07-17T17:23:44.257000+02:00</time>
      </trkpt>
      <trkpt lat="45.75781" lon="4.90618">
        <ele>183</ele>
        <time>2025-07-17T17:23:45.257000+02:00</time>
      </trkpt>
      <trkpt lat="45.7578" lon="4.9061">
        <ele>183</ele>
        <time>2025-07-17T17:23:46.257000+02:00</time>
      </trkpt>
      <trkpt lat="45.75778" lon="4.90601">
        <ele>183</ele>
        <time>2025-07-17T17:23:47.258000+02:00</time>
      </trkpt>
      <trkpt lat="45.75775" lon="4.90583">
        <ele>183.1</ele>
        <time>2025-07-17T17:23:49.258000+02:00</time>
      </trkpt>
      <trkpt lat="45.75772" lon="4.90565">
        <ele>183.2</ele>
        <time>2025-07-17T17:23:51.256000+02:00</time>
      </trkpt>
      <trkpt lat="45.75771" lon="4.90557">
        <ele>183.3</ele>
        <time>2025-07-17T17:23:52.256000+02:00</time>
      </trkpt>
      <trkpt lat="45.7577" lon="4.90548">
        <ele>183.3</ele>
        <time>2025-07-17T17:23:53.257000+02:00</time>
      </trkpt>
      <trkpt lat="45.75768" lon="4.9053">
        <ele>183.4</ele>
        <time>2025-07-17T17:23:55.258000+02:00</time>
      </trkpt>
      <trkpt lat="45.75766" lon="4.90513">
        <ele>183.4</ele>
        <time>2025-07-17T17:23:57.258000+02:00</time>
      </trkpt>
      <trkpt lat="45.75763" lon="4.90496">
        <ele>183.5</ele>
        <time>2025-07-17T17:23:59.256000+02:00</time>
      </trkpt>
      <trkpt lat="45.75762" lon="4.90488">
        <ele>183.6</ele>
        <time>2025-07-17T17:24:00.257000+02:00</time>
      </trkpt>
      <trkpt lat="45.75761" lon="4.9048">
        <ele>183.6</ele>
        <time>2025-07-17T17:24:01.257000+02:00</time>
      </trkpt>
      <trkpt lat="45.75758" lon="4.90467">
        <ele>183.7</ele>
        <time>2025-07-17T17:24:03.257000+02:00</time>
      </trkpt>
      <trkpt lat="45.75756" lon="4.90462">
        <ele>183.8</ele>
        <time>2025-07-17T17:24:04.257000+02:00</time>
      </trkpt>
      <trkpt lat="45.75754" lon="4.90457">
        <ele>183.9</ele>
        <time>2025-07-17T17:24:05.257000+02:00</time>
      </trkpt>
      <trkpt lat="45.75752" lon="4.90452">
        <ele>183.9</ele>
        <time>2025-07-17T17:24:06.258000+02:00</time>
      </trkpt>
      <trkpt lat="45.7575" lon="4.90447">
        <ele>184</ele>
        <time>2025-07-17T17:24:08.256000+02:00</time>
      </trkpt>
      <trkpt lat="45.7575" lon="4.90446">
        <ele>184</ele>
        <time>2025-07-17T17:24:09.257000+02:00</time>
      </trkpt>
      <trkpt lat="45.75748" lon="4.9044">
        <ele>183.9</ele>
        <time>2025-07-17T17:24:11.256000+02:00</time>
      </trkpt>
      <trkpt lat="45.75748" lon="4.90435">
        <ele>183.9</ele>
        <time>2025-07-17T17:24:12.257000+02:00</time>
      </trkpt>
      <trkpt lat="45.75747" lon="4.90431">
        <ele>183.9</ele>
        <time>2025-07-17T17:24:13.257000+02:00</time>
      </trkpt>
      <trkpt lat="45.75746" lon="4.90423">
        <ele>183.9</ele>
        <time>2025-07-17T17:24:15.256000+02:00</time>
      </trkpt>
      <trkpt lat="45.75746" lon="4.90418">
        <ele>183.8</ele>
        <time>2025-07-17T17:24:16.257000+02:00</time>
      </trkpt>
      <trkpt lat="45.75745" lon="4.90413">
        <ele>183.7</ele>
        <time>2025-07-17T17:24:17.257000+02:00</time>
      </trkpt>
      <trkpt lat="45.75744" lon="4.90408">
        <ele>183.5</ele>
        <time>2025-07-17T17:24:18.257000+02:00</time>
      </trkpt>
      <trkpt lat="45.75743" lon="4.90398">
        <ele>183.2</ele>
        <time>2025-07-17T17:24:20.257000+02:00</time>
      </trkpt>
      <trkpt lat="45.75742" lon="4.90393">
        <ele>183.1</ele>
        <time>2025-07-17T17:24:21.257000+02:00</time>
      </trkpt>
      <trkpt lat="45.75741" lon="4.90383">
        <ele>183</ele>
        <time>2025-07-17T17:24:23.256000+02:00</time>
      </trkpt>
      <trkpt lat="45.7574" lon="4.90379">
        <ele>183</ele>
        <time>2025-07-17T17:24:24.256000+02:00</time>
      </trkpt>
      <trkpt lat="45.75741" lon="4.90374">
        <ele>183</ele>
        <time>2025-07-17T17:24:25.257000+02:00</time>
      </trkpt>
      <trkpt lat="45.75742" lon="4.90364">
        <ele>183</ele>
        <time>2025-07-17T17:24:27.256000+02:00</time>
      </trkpt>
      <trkpt lat="45.75741" lon="4.90359">
        <ele>183</ele>
        <time>2025-07-17T17:24:28.258000+02:00</time>
      </trkpt>
      <trkpt lat="45.75741" lon="4.90348">
        <ele>183</ele>
        <time>2025-07-17T17:24:30.257000+02:00</time>
      </trkpt>
      <trkpt lat="45.75741" lon="4.90335">
        <ele>183</ele>
        <time>2025-07-17T17:24:32.256000+02:00</time>
      </trkpt>
      <trkpt lat="45.7574" lon="4.90329">
        <ele>183</ele>
        <time>2025-07-17T17:24:33.257000+02:00</time>
      </trkpt>
      <trkpt lat="45.75737" lon="4.90315">
        <ele>183</ele>
        <time>2025-07-17T17:24:35.256000+02:00</time>
      </trkpt>
      <trkpt lat="45.75737" lon="4.90307">
        <ele>183</ele>
        <time>2025-07-17T17:24:36.256000+02:00</time>
      </trkpt>
      <trkpt lat="45.75736" lon="4.903">
        <ele>183</ele>
        <time>2025-07-17T17:24:37.256000+02:00</time>
      </trkpt>
      <trkpt lat="45.75735" lon="4.90293">
        <ele>183</ele>
        <time>2025-07-17T17:24:38.257000+02:00</time>
      </trkpt>
      <trkpt lat="45.75733" lon="4.90279">
        <ele>183</ele>
        <time>2025-07-17T17:24:40.257000+02:00</time>
      </trkpt>
      <trkpt lat="45.75731" lon="4.90264">
        <ele>183</ele>
        <time>2025-07-17T17:24:42.257000+02:00</time>
      </trkpt>
      <trkpt lat="45.7573" lon="4.90257">
        <ele>183</ele>
        <time>2025-07-17T17:24:43.257000+02:00</time>
      </trkpt>
      <trkpt lat="45.75728" lon="4.90243">
        <ele>183</ele>
        <time>2025-07-17T17:24:45.256000+02:00</time>
      </trkpt>
      <trkpt lat="45.75727" lon="4.90236">
        <ele>183</ele>
        <time>2025-07-17T17:24:46.256000+02:00</time>
      </trkpt>
      <trkpt lat="45.75726" lon="4.9023">
        <ele>183</ele>
        <time>2025-07-17T17:24:47.256000+02:00</time>
      </trkpt>
      <trkpt lat="45.75725" lon="4.90224">
        <ele>183</ele>
        <time>2025-07-17T17:24:48.257000+02:00</time>
      </trkpt>
      <trkpt lat="45.75724" lon="4.90218">
        <ele>183</ele>
        <time>2025-07-17T17:24:49.258000+02:00</time>
      </trkpt>
      <trkpt lat="45.75723" lon="4.90207">
        <ele>183</ele>
        <time>2025-07-17T17:24:51.256000+02:00</time>
      </trkpt>
      <trkpt lat="45.75722" lon="4.90202">
        <ele>183</ele>
        <time>2025-07-17T17:24:52.257000+02:00</time>
      </trkpt>
      <trkpt lat="45.75721" lon="4.90189">
        <ele>183</ele>
        <time>2025-07-17T17:24:54.255000+02:00</time>
      </trkpt>
      <trkpt lat="45.7572" lon="4.90182">
        <ele>183</ele>
        <time>2025-07-17T17:24:55.257000+02:00</time>
      </trkpt>
      <trkpt lat="45.75719" lon="4.90168">
        <ele>183</ele>
        <time>2025-07-17T17:24:57.256000+02:00</time>
      </trkpt>
      <trkpt lat="45.75718" lon="4.90162">
        <ele>183</ele>
        <time>2025-07-17T17:24:58.256000+02:00</time>
      </trkpt>
      <trkpt lat="45.75718" lon="4.90156">
        <ele>183</ele>
        <time>2025-07-17T17:24:59.257000+02:00</time>
      </trkpt>
      <trkpt lat="45.75717" lon="4.9015">
        <ele>183</ele>
        <time>2025-07-17T17:25:00.257000+02:00</time>
      </trkpt>
      <trkpt lat="45.75717" lon="4.90144">
        <ele>183</ele>
        <time>2025-07-17T17:25:01.257000+02:00</time>
      </trkpt>
      <trkpt lat="45.75716" lon="4.90138">
        <ele>183</ele>
        <time>2025-07-17T17:25:02.257000+02:00</time>
      </trkpt>
      <trkpt lat="45.75715" lon="4.90132">
        <ele>183</ele>
        <time>2025-07-17T17:25:03.257000+02:00</time>
      </trkpt>
      <trkpt lat="45.75713" lon="4.90119">
        <ele>183</ele>
        <time>2025-07-17T17:25:05.256000+02:00</time>
      </trkpt>
      <trkpt lat="45.75711" lon="4.90105">
        <ele>183</ele>
        <time>2025-07-17T17:25:07.256000+02:00</time>
      </trkpt>
      <trkpt lat="45.7571" lon="4.90099">
        <ele>183</ele>
        <time>2025-07-17T17:25:08.256000+02:00</time>
      </trkpt>
      <trkpt lat="45.75708" lon="4.90085">
        <ele>183</ele>
        <time>2025-07-17T17:25:10.256000+02:00</time>
      </trkpt>
      <trkpt lat="45.75707" lon="4.90078">
        <ele>183</ele>
        <time>2025-07-17T17:25:11.257000+02:00</time>
      </trkpt>
      <trkpt lat="45.75705" lon="4.90064">
        <ele>183</ele>
        <time>2025-07-17T17:25:13.256000+02:00</time>
      </trkpt>
      <trkpt lat="45.75705" lon="4.90057">
        <ele>183</ele>
        <time>2025-07-17T17:25:14.257000+02:00</time>
      </trkpt>
      <trkpt lat="45.75703" lon="4.90044">
        <ele>183</ele>
        <time>2025-07-17T17:25:16.257000+02:00</time>
      </trkpt>
      <trkpt lat="45.75701" lon="4.9003">
        <ele>183</ele>
        <time>2025-07-17T17:25:18.257000+02:00</time>
      </trkpt>
      <trkpt lat="45.75699" lon="4.90018">
        <ele>183</ele>
        <time>2025-07-17T17:25:20.256000+02:00</time>
      </trkpt>
      <trkpt lat="45.75698" lon="4.90011">
        <ele>183</ele>
        <time>2025-07-17T17:25:21.256000+02:00</time>
      </trkpt>
      <trkpt lat="45.75697" lon="4.90005">
        <ele>183</ele>
        <time>2025-07-17T17:25:22.256000+02:00</time>
      </trkpt>
      <trkpt lat="45.75696" lon="4.9">
        <ele>183</ele>
        <time>2025-07-17T17:25:23.257000+02:00</time>
      </trkpt>
      <trkpt lat="45.75693" lon="4.8999">
        <ele>183</ele>
        <time>2025-07-17T17:25:25.257000+02:00</time>
      </trkpt>
      <trkpt lat="45.75692" lon="4.89986">
        <ele>183</ele>
        <time>2025-07-17T17:25:26.257000+02:00</time>
      </trkpt>
      <trkpt lat="45.75691" lon="4.89977">
        <ele>183</ele>
        <time>2025-07-17T17:25:28.256000+02:00</time>
      </trkpt>
      <trkpt lat="45.7569" lon="4.89972">
        <ele>183</ele>
        <time>2025-07-17T17:25:29.256000+02:00</time>
      </trkpt>
      <trkpt lat="45.7569" lon="4.89968">
        <ele>182.9</ele>
        <time>2025-07-17T17:25:30.257000+02:00</time>
      </trkpt>
      <trkpt lat="45.7569" lon="4.89963">
        <ele>182.7</ele>
        <time>2025-07-17T17:25:31.257000+02:00</time>
      </trkpt>
      <trkpt lat="45.7569" lon="4.89956">
        <ele>182.4</ele>
        <time>2025-07-17T17:25:32.257000+02:00</time>
      </trkpt>
      <trkpt lat="45.7569" lon="4.8995">
        <ele>182.2</ele>
        <time>2025-07-17T17:25:33.257000+02:00</time>
      </trkpt>
      <trkpt lat="45.75688" lon="4.89936">
        <ele>182</ele>
        <time>2025-07-17T17:25:35.257000+02:00</time>
      </trkpt>
      <trkpt lat="45.75687" lon="4.89929">
        <ele>182</ele>
        <time>2025-07-17T17:25:36.257000+02:00</time>
      </trkpt>
      <trkpt lat="45.75686" lon="4.89921">
        <ele>182</ele>
        <time>2025-07-17T17:25:37.257000+02:00</time>
      </trkpt>
      <trkpt lat="45.75685" lon="4.89914">
        <ele>182</ele>
        <time>2025-07-17T17:25:38.257000+02:00</time>
      </trkpt>
      <trkpt lat="45.75684" lon="4.89906">
        <ele>182</ele>
        <time>2025-07-17T17:25:39.257000+02:00</time>
      </trkpt>
      <trkpt lat="45.75683" lon="4.89898">
        <ele>182</ele>
        <time>2025-07-17T17:25:40.257000+02:00</time>
      </trkpt>
      <trkpt lat="45.75682" lon="4.89891">
        <ele>182</ele>
        <time>2025-07-17T17:25:41.257000+02:00</time>
      </trkpt>
      <trkpt lat="45.75681" lon="4.89876">
        <ele>182</ele>
        <time>2025-07-17T17:25:43.256000+02:00</time>
      </trkpt>
      <trkpt lat="45.7568" lon="4.89869">
        <ele>182</ele>
        <time>2025-07-17T17:25:44.258000+02:00</time>
      </trkpt>
      <trkpt lat="45.75677" lon="4.89854">
        <ele>182</ele>
        <time>2025-07-17T17:25:46.257000+02:00</time>
      </trkpt>
      <trkpt lat="45.75676" lon="4.89839">
        <ele>182</ele>
        <time>2025-07-17T17:25:48.257000+02:00</time>
      </trkpt>
      <trkpt lat="45.75674" lon="4.89831">
        <ele>182</ele>
        <time>2025-07-17T17:25:49.257000+02:00</time>
      </trkpt>
      <trkpt lat="45.75672" lon="4.89815">
        <ele>181.9</ele>
        <time>2025-07-17T17:25:51.257000+02:00</time>
      </trkpt>
      <trkpt lat="45.7567" lon="4.89799">
        <ele>181.9</ele>
        <time>2025-07-17T17:25:53.257000+02:00</time>
      </trkpt>
      <trkpt lat="45.75669" lon="4.89791">
        <ele>181.9</ele>
        <time>2025-07-17T17:25:54.258000+02:00</time>
      </trkpt>
      <trkpt lat="45.75666" lon="4.89775">
        <ele>182</ele>
        <time>2025-07-17T17:25:56.256000+02:00</time>
      </trkpt>
      <trkpt lat="45.75664" lon="4.8976">
        <ele>182</ele>
        <time>2025-07-17T17:25:58.255000+02:00</time>
      </trkpt>
      <trkpt lat="45.75663" lon="4.89752">
        <ele>182</ele>
        <time>2025-07-17T17:25:59.257000+02:00</time>
      </trkpt>
      <trkpt lat="45.75661" lon="4.89737">
        <ele>182</ele>
        <time>2025-07-17T17:26:01.255000+02:00</time>
      </trkpt>
      <trkpt lat="45.7566" lon="4.8973">
        <ele>182</ele>
        <time>2025-07-17T17:26:02.255000+02:00</time>
      </trkpt>
      <trkpt lat="45.75659" lon="4.89723">
        <ele>182</ele>
        <time>2025-07-17T17:26:03.255000+02:00</time>
      </trkpt>
      <trkpt lat="45.75658" lon="4.89716">
        <ele>181.8</ele>
        <time>2025-07-17T17:26:04.256000+02:00</time>
      </trkpt>
      <trkpt lat="45.75657" lon="4.89703">
        <ele>181.6</ele>
        <time>2025-07-17T17:26:06.256000+02:00</time>
      </trkpt>
      <trkpt lat="45.75656" lon="4.89696">
        <ele>181.4</ele>
        <time>2025-07-17T17:26:07.256000+02:00</time>
      </trkpt>
      <trkpt lat="45.75654" lon="4.89689">
        <ele>181.4</ele>
        <time>2025-07-17T17:26:08.256000+02:00</time>
      </trkpt>
      <trkpt lat="45.75653" lon="4.89682">
        <ele>181.5</ele>
        <time>2025-07-17T17:26:09.257000+02:00</time>
      </trkpt>
      <trkpt lat="45.75649" lon="4.89667">
        <ele>181.6</ele>
        <time>2025-07-17T17:26:11.255000+02:00</time>
      </trkpt>
      <trkpt lat="45.75648" lon="4.8966">
        <ele>181.7</ele>
        <time>2025-07-17T17:26:12.256000+02:00</time>
      </trkpt>
      <trkpt lat="45.75648" lon="4.89654">
        <ele>181.7</ele>
        <time>2025-07-17T17:26:13.256000+02:00</time>
      </trkpt>
      <trkpt lat="45.75647" lon="4.89647">
        <ele>181.7</ele>
        <time>2025-07-17T17:26:14.257000+02:00</time>
      </trkpt>
      <trkpt lat="45.75646" lon="4.89633">
        <ele>181.6</ele>
        <time>2025-07-17T17:26:16.257000+02:00</time>
      </trkpt>
      <trkpt lat="45.75643" lon="4.89615">
        <ele>181.1</ele>
        <time>2025-07-17T17:26:18.256000+02:00</time>
      </trkpt>
      <trkpt lat="45.75641" lon="4.896">
        <ele>181</ele>
        <time>2025-07-17T17:26:20.256000+02:00</time>
      </trkpt>
      <trkpt lat="45.7564" lon="4.89592">
        <ele>181</ele>
        <time>2025-07-17T17:26:21.256000+02:00</time>
      </trkpt>
      <trkpt lat="45.75639" lon="4.89584">
        <ele>181</ele>
        <time>2025-07-17T17:26:22.256000+02:00</time>
      </trkpt>
      <trkpt lat="45.75638" lon="4.8957">
        <ele>181</ele>
        <time>2025-07-17T17:26:24.255000+02:00</time>
      </trkpt>
      <trkpt lat="45.75636" lon="4.89558">
        <ele>181.1</ele>
        <time>2025-07-17T17:26:26.255000+02:00</time>
      </trkpt>
      <trkpt lat="45.75634" lon="4.89551">
        <ele>181.2</ele>
        <time>2025-07-17T17:26:27.256000+02:00</time>
      </trkpt>
      <trkpt lat="45.75634" lon="4.89537">
        <ele>181.2</ele>
        <time>2025-07-17T17:26:29.256000+02:00</time>
      </trkpt>
      <trkpt lat="45.75633" lon="4.8953">
        <ele>181.2</ele>
        <time>2025-07-17T17:26:30.258000+02:00</time>
      </trkpt>
      <trkpt lat="45.75631" lon="4.89515">
        <ele>181.1</ele>
        <time>2025-07-17T17:26:32.256000+02:00</time>
      </trkpt>
      <trkpt lat="45.75631" lon="4.89507">
        <ele>181.1</ele>
        <time>2025-07-17T17:26:33.256000+02:00</time>
      </trkpt>
      <trkpt lat="45.75629" lon="4.89499">
        <ele>181</ele>
        <time>2025-07-17T17:26:34.256000+02:00</time>
      </trkpt>
      <trkpt lat="45.75627" lon="4.89485">
        <ele>181</ele>
        <time>2025-07-17T17:26:36.256000+02:00</time>
      </trkpt>
      <trkpt lat="45.75626" lon="4.89477">
        <ele>181</ele>
        <time>2025-07-17T17:26:37.257000+02:00</time>
      </trkpt>
      <trkpt lat="45.75624" lon="4.89462">
        <ele>181.2</ele>
        <time>2025-07-17T17:26:39.255000+02:00</time>
      </trkpt>
      <trkpt lat="45.75622" lon="4.89454">
        <ele>181.3</ele>
        <time>2025-07-17T17:26:40.256000+02:00</time>
      </trkpt>
      <trkpt lat="45.75621" lon="4.89446">
        <ele>181.3</ele>
        <time>2025-07-17T17:26:41.256000+02:00</time>
      </trkpt>
      <trkpt lat="45.75619" lon="4.89431">
        <ele>181.1</ele>
        <time>2025-07-17T17:26:43.256000+02:00</time>
      </trkpt>
      <trkpt lat="45.75618" lon="4.89424">
        <ele>181.1</ele>
        <time>2025-07-17T17:26:44.256000+02:00</time>
      </trkpt>
      <trkpt lat="45.75615" lon="4.89412">
        <ele>181</ele>
        <time>2025-07-17T17:26:46.256000+02:00</time>
      </trkpt>
      <trkpt lat="45.75612" lon="4.89398">
        <ele>181</ele>
        <time>2025-07-17T17:26:48.256000+02:00</time>
      </trkpt>
      <trkpt lat="45.75611" lon="4.89392">
        <ele>181</ele>
        <time>2025-07-17T17:26:49.256000+02:00</time>
      </trkpt>
      <trkpt lat="45.75608" lon="4.89378">
        <ele>181</ele>
        <time>2025-07-17T17:26:51.256000+02:00</time>
      </trkpt>
      <trkpt lat="45.75606" lon="4.89371">
        <ele>181</ele>
        <time>2025-07-17T17:26:52.256000+02:00</time>
      </trkpt>
      <trkpt lat="45.75603" lon="4.89354">
        <ele>181</ele>
        <time>2025-07-17T17:26:54.255000+02:00</time>
      </trkpt>
      <trkpt lat="45.75602" lon="4.89346">
        <ele>181</ele>
        <time>2025-07-17T17:26:55.255000+02:00</time>
      </trkpt>
      <trkpt lat="45.75601" lon="4.89337">
        <ele>181</ele>
        <time>2025-07-17T17:26:56.256000+02:00</time>
      </trkpt>
      <trkpt lat="45.75599" lon="4.89321">
        <ele>181</ele>
        <time>2025-07-17T17:26:58.256000+02:00</time>
      </trkpt>
      <trkpt lat="45.75596" lon="4.89303">
        <ele>181</ele>
        <time>2025-07-17T17:27:00.255000+02:00</time>
      </trkpt>
      <trkpt lat="45.75595" lon="4.89294">
        <ele>181</ele>
        <time>2025-07-17T17:27:01.257000+02:00</time>
      </trkpt>
      <trkpt lat="45.75592" lon="4.89276">
        <ele>181</ele>
        <time>2025-07-17T17:27:03.256000+02:00</time>
      </trkpt>
      <trkpt lat="45.7559" lon="4.89258">
        <ele>181</ele>
        <time>2025-07-17T17:27:05.255000+02:00</time>
      </trkpt>
      <trkpt lat="45.75589" lon="4.89249">
        <ele>181</ele>
        <time>2025-07-17T17:27:06.256000+02:00</time>
      </trkpt>
      <trkpt lat="45.75587" lon="4.89231">
        <ele>181</ele>
        <time>2025-07-17T17:27:08.255000+02:00</time>
      </trkpt>
      <trkpt lat="45.75586" lon="4.89224">
        <ele>181</ele>
        <time>2025-07-17T17:27:09.256000+02:00</time>
      </trkpt>
      <trkpt lat="45.75585" lon="4.89218">
        <ele>181</ele>
        <time>2025-07-17T17:27:10.256000+02:00</time>
      </trkpt>
      <trkpt lat="45.75583" lon="4.89204">
        <ele>181</ele>
        <time>2025-07-17T17:27:12.256000+02:00</time>
      </trkpt>
      <trkpt lat="45.75582" lon="4.89196">
        <ele>181</ele>
        <time>2025-07-17T17:27:13.256000+02:00</time>
      </trkpt>
      <trkpt lat="45.7558" lon="4.8918">
        <ele>181</ele>
        <time>2025-07-17T17:27:15.256000+02:00</time>
      </trkpt>
      <trkpt lat="45.75578" lon="4.89164">
        <ele>181</ele>
        <time>2025-07-17T17:27:17.256000+02:00</time>
      </trkpt>
      <trkpt lat="45.75577" lon="4.89156">
        <ele>181</ele>
        <time>2025-07-17T17:27:18.257000+02:00</time>
      </trkpt>
      <trkpt lat="45.75575" lon="4.89139">
        <ele>181</ele>
        <time>2025-07-17T17:27:20.256000+02:00</time>
      </trkpt>
      <trkpt lat="45.75573" lon="4.89123">
        <ele>181</ele>
        <time>2025-07-17T17:27:22.256000+02:00</time>
      </trkpt>
      <trkpt lat="45.75573" lon="4.89116">
        <ele>181</ele>
        <time>2025-07-17T17:27:23.256000+02:00</time>
      </trkpt>
      <trkpt lat="45.75573" lon="4.89109">
        <ele>181</ele>
        <time>2025-07-17T17:27:24.256000+02:00</time>
      </trkpt>
      <trkpt lat="45.75572" lon="4.89102">
        <ele>181</ele>
        <time>2025-07-17T17:27:25.256000+02:00</time>
      </trkpt>
      <trkpt lat="45.7557" lon="4.89085">
        <ele>181</ele>
        <time>2025-07-17T17:27:27.255000+02:00</time>
      </trkpt>
      <trkpt lat="45.75569" lon="4.89077">
        <ele>181</ele>
        <time>2025-07-17T17:27:28.257000+02:00</time>
      </trkpt>
      <trkpt lat="45.75566" lon="4.89059">
        <ele>181</ele>
        <time>2025-07-17T17:27:30.255000+02:00</time>
      </trkpt>
      <trkpt lat="45.75565" lon="4.8905">
        <ele>180.8</ele>
        <time>2025-07-17T17:27:31.255000+02:00</time>
      </trkpt>
      <trkpt lat="45.75564" lon="4.8904">
        <ele>180.4</ele>
        <time>2025-07-17T17:27:32.256000+02:00</time>
      </trkpt>
      <trkpt lat="45.75562" lon="4.89021">
        <ele>180</ele>
        <time>2025-07-17T17:27:34.255000+02:00</time>
      </trkpt>
      <trkpt lat="45.7556" lon="4.89012">
        <ele>180</ele>
        <time>2025-07-17T17:27:35.255000+02:00</time>
      </trkpt>
      <trkpt lat="45.75559" lon="4.89002">
        <ele>180</ele>
        <time>2025-07-17T17:27:36.255000+02:00</time>
      </trkpt>
      <trkpt lat="45.75558" lon="4.88993">
        <ele>180</ele>
        <time>2025-07-17T17:27:37.256000+02:00</time>
      </trkpt>
      <trkpt lat="45.75556" lon="4.88984">
        <ele>180</ele>
        <time>2025-07-17T17:27:38.256000+02:00</time>
      </trkpt>
      <trkpt lat="45.75554" lon="4.88965">
        <ele>180</ele>
        <time>2025-07-17T17:27:40.255000+02:00</time>
      </trkpt>
      <trkpt lat="45.75553" lon="4.88956">
        <ele>180</ele>
        <time>2025-07-17T17:27:41.256000+02:00</time>
      </trkpt>
      <trkpt lat="45.75551" lon="4.88946">
        <ele>180</ele>
        <time>2025-07-17T17:27:42.256000+02:00</time>
      </trkpt>
      <trkpt lat="45.7555" lon="4.88937">
        <ele>179.7</ele>
        <time>2025-07-17T17:27:43.256000+02:00</time>
      </trkpt>
      <trkpt lat="45.75548" lon="4.88919">
        <ele>179.1</ele>
        <time>2025-07-17T17:27:45.256000+02:00</time>
      </trkpt>
      <trkpt lat="45.75545" lon="4.88901">
        <ele>179.6</ele>
        <time>2025-07-17T17:27:47.255000+02:00</time>
      </trkpt>
      <trkpt lat="45.75544" lon="4.88892">
        <ele>179.9</ele>
        <time>2025-07-17T17:27:48.255000+02:00</time>
      </trkpt>
      <trkpt lat="45.75543" lon="4.88883">
        <ele>180</ele>
        <time>2025-07-17T17:27:49.256000+02:00</time>
      </trkpt>
      <trkpt lat="45.75541" lon="4.88865">
        <ele>180</ele>
        <time>2025-07-17T17:27:51.256000+02:00</time>
      </trkpt>
      <trkpt lat="45.75539" lon="4.88848">
        <ele>180</ele>
        <time>2025-07-17T17:27:53.255000+02:00</time>
      </trkpt>
      <trkpt lat="45.75537" lon="4.8884">
        <ele>180</ele>
        <time>2025-07-17T17:27:54.255000+02:00</time>
      </trkpt>
      <trkpt lat="45.75536" lon="4.88831">
        <ele>179.9</ele>
        <time>2025-07-17T17:27:55.256000+02:00</time>
      </trkpt>
      <trkpt lat="45.75533" lon="4.88815">
        <ele>179.3</ele>
        <time>2025-07-17T17:27:57.256000+02:00</time>
      </trkpt>
      <trkpt lat="45.75532" lon="4.88806">
        <ele>179</ele>
        <time>2025-07-17T17:27:58.256000+02:00</time>
      </trkpt>
      <trkpt lat="45.7553" lon="4.88797">
        <ele>179</ele>
        <time>2025-07-17T17:27:59.256000+02:00</time>
      </trkpt>
      <trkpt lat="45.75529" lon="4.88778">
        <ele>179</ele>
        <time>2025-07-17T17:28:01.256000+02:00</time>
      </trkpt>
      <trkpt lat="45.75528" lon="4.88769">
        <ele>179</ele>
        <time>2025-07-17T17:28:02.256000+02:00</time>
      </trkpt>
      <trkpt lat="45.75527" lon="4.8876">
        <ele>179</ele>
        <time>2025-07-17T17:28:03.256000+02:00</time>
      </trkpt>
      <trkpt lat="45.75526" lon="4.88752">
        <ele>179</ele>
        <time>2025-07-17T17:28:04.256000+02:00</time>
      </trkpt>
      <trkpt lat="45.75524" lon="4.88736">
        <ele>179</ele>
        <time>2025-07-17T17:28:06.255000+02:00</time>
      </trkpt>
      <trkpt lat="45.75523" lon="4.88728">
        <ele>179</ele>
        <time>2025-07-17T17:28:07.255000+02:00</time>
      </trkpt>
      <trkpt lat="45.7552" lon="4.88712">
        <ele>179</ele>
        <time>2025-07-17T17:28:09.256000+02:00</time>
      </trkpt>
      <trkpt lat="45.75516" lon="4.88697">
        <ele>179</ele>
        <time>2025-07-17T17:28:11.256000+02:00</time>
      </trkpt>
      <trkpt lat="45.75512" lon="4.88681">
        <ele>179</ele>
        <time>2025-07-17T17:28:13.256000+02:00</time>
      </trkpt>
      <trkpt lat="45.75508" lon="4.88664">
        <ele>179</ele>
        <time>2025-07-17T17:28:15.255000+02:00</time>
      </trkpt>
      <trkpt lat="45.75506" lon="4.88657">
        <ele>179</ele>
        <time>2025-07-17T17:28:16.257000+02:00</time>
      </trkpt>
      <trkpt lat="45.75501" lon="4.88643">
        <ele>179</ele>
        <time>2025-07-17T17:28:18.254000+02:00</time>
      </trkpt>
      <trkpt lat="45.75499" lon="4.88635">
        <ele>179</ele>
        <time>2025-07-17T17:28:19.255000+02:00</time>
      </trkpt>
      <trkpt lat="45.75497" lon="4.88627">
        <ele>178.9</ele>
        <time>2025-07-17T17:28:20.255000+02:00</time>
      </trkpt>
      <trkpt lat="45.75495" lon="4.88619">
        <ele>179</ele>
        <time>2025-07-17T17:28:21.256000+02:00</time>
      </trkpt>
      <trkpt lat="45.75492" lon="4.88611">
        <ele>179</ele>
        <time>2025-07-17T17:28:22.256000+02:00</time>
      </trkpt>
      <trkpt lat="45.7549" lon="4.88603">
        <ele>179</ele>
        <time>2025-07-17T17:28:23.256000+02:00</time>
      </trkpt>
      <trkpt lat="45.75485" lon="4.88591">
        <ele>179</ele>
        <time>2025-07-17T17:28:25.255000+02:00</time>
      </trkpt>
      <trkpt lat="45.75484" lon="4.88586">
        <ele>179</ele>
        <time>2025-07-17T17:28:26.256000+02:00</time>
      </trkpt>
      <trkpt lat="45.75482" lon="4.88581">
        <ele>179</ele>
        <time>2025-07-17T17:28:28.254000+02:00</time>
      </trkpt>
      <trkpt lat="45.75481" lon="4.88579">
        <ele>178.9</ele>
        <time>2025-07-17T17:28:29.255000+02:00</time>
      </trkpt>
      <trkpt lat="45.7548" lon="4.88577">
        <ele>178.9</ele>
        <time>2025-07-17T17:28:30.255000+02:00</time>
      </trkpt>
      <trkpt lat="45.75478" lon="4.88574">
        <ele>178.9</ele>
        <time>2025-07-17T17:28:31.255000+02:00</time>
      </trkpt>
      <trkpt lat="45.75477" lon="4.88573">
        <ele>178.9</ele>
        <time>2025-07-17T17:28:32.256000+02:00</time>
      </trkpt>
      <trkpt lat="45.75476" lon="4.88571">
        <ele>178.9</ele>
        <time>2025-07-17T17:28:33.256000+02:00</time>
      </trkpt>
      <trkpt lat="45.75476" lon="4.88569">
        <ele>178.9</ele>
        <time>2025-07-17T17:28:34.256000+02:00</time>
      </trkpt>
      <trkpt lat="45.75478" lon="4.88565">
        <ele>178.9</ele>
        <time>2025-07-17T17:28:36.256000+02:00</time>
      </trkpt>
      <trkpt lat="45.75484" lon="4.88564">
        <ele>178.7</ele>
        <time>2025-07-17T17:28:38.255000+02:00</time>
      </trkpt>
      <trkpt lat="45.75488" lon="4.88564">
        <ele>178.6</ele>
        <time>2025-07-17T17:28:39.256000+02:00</time>
      </trkpt>
      <trkpt lat="45.75497" lon="4.88563">
        <ele>178.3</ele>
        <time>2025-07-17T17:28:41.256000+02:00</time>
      </trkpt>
      <trkpt lat="45.75502" lon="4.88562">
        <ele>178.2</ele>
        <time>2025-07-17T17:28:42.256000+02:00</time>
      </trkpt>
      <trkpt lat="45.75513" lon="4.8856">
        <ele>178.2</ele>
        <time>2025-07-17T17:28:44.255000+02:00</time>
      </trkpt>
      <trkpt lat="45.75518" lon="4.88559">
        <ele>178.1</ele>
        <time>2025-07-17T17:28:45.256000+02:00</time>
      </trkpt>
      <trkpt lat="45.7553" lon="4.88559">
        <ele>178.1</ele>
        <time>2025-07-17T17:28:47.255000+02:00</time>
      </trkpt>
      <trkpt lat="45.75536" lon="4.88558">
        <ele>178.1</ele>
        <time>2025-07-17T17:28:48.256000+02:00</time>
      </trkpt>
      <trkpt lat="45.75543" lon="4.88556">
        <ele>178</ele>
        <time>2025-07-17T17:28:49.256000+02:00</time>
      </trkpt>
      <trkpt lat="45.75555" lon="4.88553">
        <ele>178.1</ele>
        <time>2025-07-17T17:28:51.255000+02:00</time>
      </trkpt>
      <trkpt lat="45.75562" lon="4.88552">
        <ele>178.3</ele>
        <time>2025-07-17T17:28:52.255000+02:00</time>
      </trkpt>
      <trkpt lat="45.75567" lon="4.88552">
        <ele>178.5</ele>
        <time>2025-07-17T17:28:53.255000+02:00</time>
      </trkpt>
      <trkpt lat="45.75573" lon="4.88552">
        <ele>178.7</ele>
        <time>2025-07-17T17:28:54.255000+02:00</time>
      </trkpt>
      <trkpt lat="45.7558" lon="4.88551">
        <ele>178.9</ele>
        <time>2025-07-17T17:28:55.256000+02:00</time>
      </trkpt>
      <trkpt lat="45.75586" lon="4.8855">
        <ele>179</ele>
        <time>2025-07-17T17:28:56.256000+02:00</time>
      </trkpt>
      <trkpt lat="45.75599" lon="4.88548">
        <ele>179</ele>
        <time>2025-07-17T17:28:58.255000+02:00</time>
      </trkpt>
      <trkpt lat="45.75605" lon="4.88547">
        <ele>179</ele>
        <time>2025-07-17T17:28:59.255000+02:00</time>
      </trkpt>
      <trkpt lat="45.75611" lon="4.88546">
        <ele>179</ele>
        <time>2025-07-17T17:29:00.255000+02:00</time>
      </trkpt>
      <trkpt lat="45.75618" lon="4.88545">
        <ele>179</ele>
        <time>2025-07-17T17:29:01.255000+02:00</time>
      </trkpt>
      <trkpt lat="45.75625" lon="4.88544">
        <ele>179</ele>
        <time>2025-07-17T17:29:02.256000+02:00</time>
      </trkpt>
      <trkpt lat="45.75632" lon="4.88542">
        <ele>179</ele>
        <time>2025-07-17T17:29:03.256000+02:00</time>
      </trkpt>
      <trkpt lat="45.75644" lon="4.88541">
        <ele>178.9</ele>
        <time>2025-07-17T17:29:05.254000+02:00</time>
      </trkpt>
      <trkpt lat="45.75651" lon="4.8854">
        <ele>178.8</ele>
        <time>2025-07-17T17:29:06.256000+02:00</time>
      </trkpt>
      <trkpt lat="45.75664" lon="4.88539">
        <ele>178.5</ele>
        <time>2025-07-17T17:29:08.254000+02:00</time>
      </trkpt>
      <trkpt lat="45.7567" lon="4.88538">
        <ele>178.4</ele>
        <time>2025-07-17T17:29:09.254000+02:00</time>
      </trkpt>
      <trkpt lat="45.75676" lon="4.88538">
        <ele>178.3</ele>
        <time>2025-07-17T17:29:10.256000+02:00</time>
      </trkpt>
      <trkpt lat="45.75688" lon="4.88536">
        <ele>178.3</ele>
        <time>2025-07-17T17:29:12.255000+02:00</time>
      </trkpt>
      <trkpt lat="45.75694" lon="4.88536">
        <ele>178.3</ele>
        <time>2025-07-17T17:29:13.255000+02:00</time>
      </trkpt>
      <trkpt lat="45.75706" lon="4.88535">
        <ele>178.3</ele>
        <time>2025-07-17T17:29:15.255000+02:00</time>
      </trkpt>
      <trkpt lat="45.75712" lon="4.88535">
        <ele>178.2</ele>
        <time>2025-07-17T17:29:16.255000+02:00</time>
      </trkpt>
      <trkpt lat="45.75723" lon="4.88534">
        <ele>178.2</ele>
        <time>2025-07-17T17:29:18.256000+02:00</time>
      </trkpt>
      <trkpt lat="45.75728" lon="4.88532">
        <ele>178</ele>
        <time>2025-07-17T17:29:19.256000+02:00</time>
      </trkpt>
      <trkpt lat="45.75736" lon="4.8853">
        <ele>177.6</ele>
        <time>2025-07-17T17:29:21.254000+02:00</time>
      </trkpt>
      <trkpt lat="45.75738" lon="4.8853">
        <ele>177.6</ele>
        <time>2025-07-17T17:29:22.255000+02:00</time>
      </trkpt>
      <trkpt lat="45.75741" lon="4.88529">
        <ele>177.4</ele>
        <time>2025-07-17T17:29:24.254000+02:00</time>
      </trkpt>
      <trkpt lat="45.75742" lon="4.88529">
        <ele>177.4</ele>
        <time>2025-07-17T17:29:25.254000+02:00</time>
      </trkpt>
      <trkpt lat="45.75744" lon="4.88529">
        <ele>177.3</ele>
        <time>2025-07-17T17:29:26.255000+02:00</time>
      </trkpt>
      <trkpt lat="45.75745" lon="4.88529">
        <ele>177.3</ele>
        <time>2025-07-17T17:29:27.256000+02:00</time>
      </trkpt>
      <trkpt lat="45.75746" lon="4.88529">
        <ele>177.2</ele>
        <time>2025-07-17T17:29:28.256000+02:00</time>
      </trkpt>
      <trkpt lat="45.75748" lon="4.88528">
        <ele>177.1</ele>
        <time>2025-07-17T17:29:30.256000+02:00</time>
      </trkpt>
      <trkpt lat="45.7575" lon="4.88528">
        <ele>177</ele>
        <time>2025-07-17T17:29:32.254000+02:00</time>
      </trkpt>
      <trkpt lat="45.7575" lon="4.88528">
        <ele>177</ele>
        <time>2025-07-17T17:29:33.255000+02:00</time>
      </trkpt>
      <trkpt lat="45.75751" lon="4.88528">
        <ele>177</ele>
        <time>2025-07-17T17:29:34.255000+02:00</time>
      </trkpt>
      <trkpt lat="45.75752" lon="4.88527">
        <ele>177</ele>
        <time>2025-07-17T17:29:35.255000+02:00</time>
      </trkpt>
      <trkpt lat="45.75757" lon="4.88526">
        <ele>177</ele>
        <time>2025-07-17T17:29:37.254000+02:00</time>
      </trkpt>
      <trkpt lat="45.7576" lon="4.88526">
        <ele>177</ele>
        <time>2025-07-17T17:29:38.257000+02:00</time>
      </trkpt>
      <trkpt lat="45.75768" lon="4.88525">
        <ele>177</ele>
        <time>2025-07-17T17:29:40.255000+02:00</time>
      </trkpt>
      <trkpt lat="45.75771" lon="4.88524">
        <ele>177</ele>
        <time>2025-07-17T17:29:42.255000+02:00</time>
      </trkpt>
      <trkpt lat="45.75771" lon="4.88525">
        <ele>177</ele>
        <time>2025-07-17T17:29:44.256000+02:00</time>
      </trkpt>
      <trkpt lat="45.75771" lon="4.88525">
        <ele>177</ele>
        <time>2025-07-17T17:29:46.254000+02:00</time>
      </trkpt>
      <trkpt lat="45.75771" lon="4.88525">
        <ele>177</ele>
        <time>2025-07-17T17:29:47.257000+02:00</time>
      </trkpt>
      <trkpt lat="45.75772" lon="4.88524">
        <ele>177</ele>
        <time>2025-07-17T17:29:49.254000+02:00</time>
      </trkpt>
      <trkpt lat="45.75774" lon="4.88524">
        <ele>177</ele>
        <time>2025-07-17T17:29:50.254000+02:00</time>
      </trkpt>
      <trkpt lat="45.75775" lon="4.88524">
        <ele>177</ele>
        <time>2025-07-17T17:29:51.255000+02:00</time>
      </trkpt>
      <trkpt lat="45.75777" lon="4.88524">
        <ele>177</ele>
        <time>2025-07-17T17:29:52.255000+02:00</time>
      </trkpt>
      <trkpt lat="45.75779" lon="4.88524">
        <ele>176.9</ele>
        <time>2025-07-17T17:29:54.255000+02:00</time>
      </trkpt>
      <trkpt lat="45.75781" lon="4.88523">
        <ele>176.9</ele>
        <time>2025-07-17T17:29:56.256000+02:00</time>
      </trkpt>
      <trkpt lat="45.75785" lon="4.88522">
        <ele>176.7</ele>
        <time>2025-07-17T17:29:58.254000+02:00</time>
      </trkpt>
      <trkpt lat="45.75787" lon="4.88521">
        <ele>176.7</ele>
        <time>2025-07-17T17:29:59.255000+02:00</time>
      </trkpt>
      <trkpt lat="45.7579" lon="4.88521">
        <ele>176.6</ele>
        <time>2025-07-17T17:30:00.255000+02:00</time>
      </trkpt>
      <trkpt lat="45.75792" lon="4.8852">
        <ele>176.5</ele>
        <time>2025-07-17T17:30:01.255000+02:00</time>
      </trkpt>
      <trkpt lat="45.75793" lon="4.88519">
        <ele>176.4</ele>
        <time>2025-07-17T17:30:03.256000+02:00</time>
      </trkpt>
      <trkpt lat="45.75793" lon="4.8852">
        <ele>176.4</ele>
        <time>2025-07-17T17:30:05.255000+02:00</time>
      </trkpt>
      <trkpt lat="45.75793" lon="4.8852">
        <ele>176.4</ele>
        <time>2025-07-17T17:30:06.255000+02:00</time>
      </trkpt>
      <trkpt lat="45.75793" lon="4.88521">
        <ele>176.4</ele>
        <time>2025-07-17T17:30:08.255000+02:00</time>
      </trkpt>
      <trkpt lat="45.75794" lon="4.88521">
        <ele>176.4</ele>
        <time>2025-07-17T17:30:09.255000+02:00</time>
      </trkpt>
      <trkpt lat="45.75794" lon="4.88521">
        <ele>176.4</ele>
        <time>2025-07-17T17:30:10.255000+02:00</time>
      </trkpt>
      <trkpt lat="45.75798" lon="4.8852">
        <ele>176.3</ele>
        <time>2025-07-17T17:30:12.254000+02:00</time>
      </trkpt>
      <trkpt lat="45.75801" lon="4.8852">
        <ele>176.2</ele>
        <time>2025-07-17T17:30:13.254000+02:00</time>
      </trkpt>
      <trkpt lat="45.75803" lon="4.8852">
        <ele>176.1</ele>
        <time>2025-07-17T17:30:14.255000+02:00</time>
      </trkpt>
      <trkpt lat="45.7581" lon="4.88519">
        <ele>175.9</ele>
        <time>2025-07-17T17:30:16.254000+02:00</time>
      </trkpt>
      <trkpt lat="45.75814" lon="4.88519">
        <ele>175.8</ele>
        <time>2025-07-17T17:30:17.255000+02:00</time>
      </trkpt>
      <trkpt lat="45.75818" lon="4.88518">
        <ele>175.7</ele>
        <time>2025-07-17T17:30:18.255000+02:00</time>
      </trkpt>
      <trkpt lat="45.75823" lon="4.88518">
        <ele>175.6</ele>
        <time>2025-07-17T17:30:19.256000+02:00</time>
      </trkpt>
      <trkpt lat="45.75831" lon="4.88515">
        <ele>175.5</ele>
        <time>2025-07-17T17:30:21.254000+02:00</time>
      </trkpt>
      <trkpt lat="45.75836" lon="4.88515">
        <ele>175.2</ele>
        <time>2025-07-17T17:30:22.255000+02:00</time>
      </trkpt>
      <trkpt lat="45.75841" lon="4.88515">
        <ele>174.7</ele>
        <time>2025-07-17T17:30:23.256000+02:00</time>
      </trkpt>
      <trkpt lat="45.75851" lon="4.88515">
        <ele>173.7</ele>
        <time>2025-07-17T17:30:25.255000+02:00</time>
      </trkpt>
      <trkpt lat="45.75857" lon="4.88514">
        <ele>172.9</ele>
        <time>2025-07-17T17:30:26.255000+02:00</time>
      </trkpt>
      <trkpt lat="45.75864" lon="4.88511">
        <ele>172.2</ele>
        <time>2025-07-17T17:30:27.255000+02:00</time>
      </trkpt>
      <trkpt lat="45.7588" lon="4.88508">
        <ele>170.9</ele>
        <time>2025-07-17T17:30:29.254000+02:00</time>
      </trkpt>
      <trkpt lat="45.75889" lon="4.88506">
        <ele>170.2</ele>
        <time>2025-07-17T17:30:30.256000+02:00</time>
      </trkpt>
      <trkpt lat="45.75906" lon="4.88504">
        <ele>169.5</ele>
        <time>2025-07-17T17:30:32.254000+02:00</time>
      </trkpt>
      <trkpt lat="45.75914" lon="4.88503">
        <ele>169.2</ele>
        <time>2025-07-17T17:30:33.255000+02:00</time>
      </trkpt>
      <trkpt lat="45.75924" lon="4.88501">
        <ele>169</ele>
        <time>2025-07-17T17:30:35.255000+02:00</time>
      </trkpt>
      <trkpt lat="45.75934" lon="4.88503">
        <ele>169</ele>
        <time>2025-07-17T17:30:37.254000+02:00</time>
      </trkpt>
      <trkpt lat="45.75939" lon="4.88502">
        <ele>169</ele>
        <time>2025-07-17T17:30:38.254000+02:00</time>
      </trkpt>
      <trkpt lat="45.75943" lon="4.88501">
        <ele>169</ele>
        <time>2025-07-17T17:30:39.254000+02:00</time>
      </trkpt>
      <trkpt lat="45.75946" lon="4.88499">
        <ele>169</ele>
        <time>2025-07-17T17:30:40.254000+02:00</time>
      </trkpt>
      <trkpt lat="45.7595" lon="4.88498">
        <ele>169</ele>
        <time>2025-07-17T17:30:41.255000+02:00</time>
      </trkpt>
      <trkpt lat="45.75961" lon="4.88496">
        <ele>169</ele>
        <time>2025-07-17T17:30:43.255000+02:00</time>
      </trkpt>
      <trkpt lat="45.75973" lon="4.88494">
        <ele>169</ele>
        <time>2025-07-17T17:30:45.254000+02:00</time>
      </trkpt>
      <trkpt lat="45.75978" lon="4.88493">
        <ele>169</ele>
        <time>2025-07-17T17:30:46.256000+02:00</time>
      </trkpt>
      <trkpt lat="45.75988" lon="4.88492">
        <ele>169</ele>
        <time>2025-07-17T17:30:48.254000+02:00</time>
      </trkpt>
      <trkpt lat="45.75992" lon="4.88491">
        <ele>169</ele>
        <time>2025-07-17T17:30:49.255000+02:00</time>
      </trkpt>
      <trkpt lat="45.75995" lon="4.8849">
        <ele>169</ele>
        <time>2025-07-17T17:30:50.255000+02:00</time>
      </trkpt>
      <trkpt lat="45.76004" lon="4.88489">
        <ele>169</ele>
        <time>2025-07-17T17:30:52.254000+02:00</time>
      </trkpt>
      <trkpt lat="45.76008" lon="4.88487">
        <ele>169</ele>
        <time>2025-07-17T17:30:53.255000+02:00</time>
      </trkpt>
      <trkpt lat="45.76018" lon="4.88484">
        <ele>169</ele>
        <time>2025-07-17T17:30:55.254000+02:00</time>
      </trkpt>
      <trkpt lat="45.76023" lon="4.88483">
        <ele>169</ele>
        <time>2025-07-17T17:30:56.254000+02:00</time>
      </trkpt>
      <trkpt lat="45.76029" lon="4.88484">
        <ele>169</ele>
        <time>2025-07-17T17:30:57.254000+02:00</time>
      </trkpt>
      <trkpt lat="45.76035" lon="4.88484">
        <ele>169</ele>
        <time>2025-07-17T17:30:58.255000+02:00</time>
      </trkpt>
      <trkpt lat="45.76042" lon="4.88484">
        <ele>169</ele>
        <time>2025-07-17T17:30:59.255000+02:00</time>
      </trkpt>
      <trkpt lat="45.76055" lon="4.88483">
        <ele>169</ele>
        <time>2025-07-17T17:31:01.255000+02:00</time>
      </trkpt>
      <trkpt lat="45.76061" lon="4.88482">
        <ele>169</ele>
        <time>2025-07-17T17:31:02.255000+02:00</time>
      </trkpt>
      <trkpt lat="45.76066" lon="4.88482">
        <ele>169</ele>
        <time>2025-07-17T17:31:03.255000+02:00</time>
      </trkpt>
      <trkpt lat="45.76069" lon="4.88482">
        <ele>169</ele>
        <time>2025-07-17T17:31:04.255000+02:00</time>
      </trkpt>
      <trkpt lat="45.76073" lon="4.88481">
        <ele>169</ele>
        <time>2025-07-17T17:31:06.254000+02:00</time>
      </trkpt>
      <trkpt lat="45.76074" lon="4.8848">
        <ele>169</ele>
        <time>2025-07-17T17:31:07.254000+02:00</time>
      </trkpt>
      <trkpt lat="45.76075" lon="4.88479">
        <ele>169</ele>
        <time>2025-07-17T17:31:08.254000+02:00</time>
      </trkpt>
      <trkpt lat="45.76077" lon="4.88478">
        <ele>169</ele>
        <time>2025-07-17T17:31:09.255000+02:00</time>
      </trkpt>
      <trkpt lat="45.76081" lon="4.88478">
        <ele>169</ele>
        <time>2025-07-17T17:31:11.254000+02:00</time>
      </trkpt>
      <trkpt lat="45.76081" lon="4.88478">
        <ele>169</ele>
        <time>2025-07-17T17:31:12.255000+02:00</time>
      </trkpt>
      <trkpt lat="45.76081" lon="4.88478">
        <ele>169</ele>
        <time>2025-07-17T17:31:13.255000+02:00</time>
      </trkpt>
      <trkpt lat="45.76082" lon="4.88478">
        <ele>169</ele>
        <time>2025-07-17T17:31:15.253000+02:00</time>
      </trkpt>
      <trkpt lat="45.76082" lon="4.88478">
        <ele>169</ele>
        <time>2025-07-17T17:31:16.255000+02:00</time>
      </trkpt>
      <trkpt lat="45.76081" lon="4.88478">
        <ele>169</ele>
        <time>2025-07-17T17:31:18.255000+02:00</time>
      </trkpt>
      <trkpt lat="45.76081" lon="4.88478">
        <ele>169</ele>
        <time>2025-07-17T17:31:19.255000+02:00</time>
      </trkpt>
      <trkpt lat="45.76081" lon="4.88478">
        <ele>169</ele>
        <time>2025-07-17T17:31:21.254000+02:00</time>
      </trkpt>
      <trkpt lat="45.76081" lon="4.88478">
        <ele>169</ele>
        <time>2025-07-17T17:31:22.254000+02:00</time>
      </trkpt>
      <trkpt lat="45.76081" lon="4.88478">
        <ele>169</ele>
        <time>2025-07-17T17:31:23.254000+02:00</time>
      </trkpt>
      <trkpt lat="45.76081" lon="4.88478">
        <ele>169</ele>
        <time>2025-07-17T17:31:24.255000+02:00</time>
      </trkpt>
      <trkpt lat="45.76081" lon="4.88478">
        <ele>169</ele>
        <time>2025-07-17T17:31:26.254000+02:00</time>
      </trkpt>
      <trkpt lat="45.76081" lon="4.88478">
        <ele>169</ele>
        <time>2025-07-17T17:31:27.254000+02:00</time>
      </trkpt>
      <trkpt lat="45.76081" lon="4.88478">
        <ele>169</ele>
        <time>2025-07-17T17:31:30.255000+02:00</time>
      </trkpt>
      <trkpt lat="45.76081" lon="4.88478">
        <ele>169</ele>
        <time>2025-07-17T17:31:31.255000+02:00</time>
      </trkpt>
      <trkpt lat="45.76081" lon="4.88478">
        <ele>169</ele>
        <time>2025-07-17T17:31:33.253000+02:00</time>
      </trkpt>
      <trkpt lat="45.76081" lon="4.88478">
        <ele>169</ele>
        <time>2025-07-17T17:31:35.254000+02:00</time>
      </trkpt>
      <trkpt lat="45.76081" lon="4.88478">
        <ele>169</ele>
        <time>2025-07-17T17:31:36.255000+02:00</time>
      </trkpt>
      <trkpt lat="45.76081" lon="4.88478">
        <ele>169</ele>
        <time>2025-07-17T17:31:39.253000+02:00</time>
      </trkpt>
      <trkpt lat="45.76081" lon="4.88478">
        <ele>169</ele>
        <time>2025-07-17T17:31:40.255000+02:00</time>
      </trkpt>
      <trkpt lat="45.76082" lon="4.88478">
        <ele>169</ele>
        <time>2025-07-17T17:31:42.256000+02:00</time>
      </trkpt>
      <trkpt lat="45.76088" lon="4.88476">
        <ele>169</ele>
        <time>2025-07-17T17:31:44.256000+02:00</time>
      </trkpt>
      <trkpt lat="45.76096" lon="4.88468">
        <ele>169</ele>
        <time>2025-07-17T17:31:46.253000+02:00</time>
      </trkpt>
      <trkpt lat="45.76099" lon="4.88462">
        <ele>169</ele>
        <time>2025-07-17T17:31:47.255000+02:00</time>
      </trkpt>
      <trkpt lat="45.76103" lon="4.88455">
        <ele>169</ele>
        <time>2025-07-17T17:31:48.255000+02:00</time>
      </trkpt>
      <trkpt lat="45.76108" lon="4.88436">
        <ele>169</ele>
        <time>2025-07-17T17:31:50.256000+02:00</time>
      </trkpt>
      <trkpt lat="45.76113" lon="4.88418">
        <ele>169</ele>
        <time>2025-07-17T17:31:52.253000+02:00</time>
      </trkpt>
      <trkpt lat="45.76116" lon="4.88408">
        <ele>169</ele>
        <time>2025-07-17T17:31:53.254000+02:00</time>
      </trkpt>
      <trkpt lat="45.76118" lon="4.884">
        <ele>169</ele>
        <time>2025-07-17T17:31:54.255000+02:00</time>
      </trkpt>
      <trkpt lat="45.76123" lon="4.88382">
        <ele>169</ele>
        <time>2025-07-17T17:31:56.255000+02:00</time>
      </trkpt>
      <trkpt lat="45.76128" lon="4.88364">
        <ele>169</ele>
        <time>2025-07-17T17:31:58.255000+02:00</time>
      </trkpt>
      <trkpt lat="45.76131" lon="4.88356">
        <ele>169</ele>
        <time>2025-07-17T17:31:59.255000+02:00</time>
      </trkpt>
      <trkpt lat="45.76137" lon="4.8834">
        <ele>169</ele>
        <time>2025-07-17T17:32:01.255000+02:00</time>
      </trkpt>
      <trkpt lat="45.7614" lon="4.88323">
        <ele>169</ele>
        <time>2025-07-17T17:32:03.254000+02:00</time>
      </trkpt>
      <trkpt lat="45.76142" lon="4.88313">
        <ele>169</ele>
        <time>2025-07-17T17:32:04.254000+02:00</time>
      </trkpt>
      <trkpt lat="45.76143" lon="4.88304">
        <ele>168.9</ele>
        <time>2025-07-17T17:32:05.256000+02:00</time>
      </trkpt>
      <trkpt lat="45.76148" lon="4.88288">
        <ele>168.6</ele>
        <time>2025-07-17T17:32:07.255000+02:00</time>
      </trkpt>
      <trkpt lat="45.76153" lon="4.88271">
        <ele>168.6</ele>
        <time>2025-07-17T17:32:09.254000+02:00</time>
      </trkpt>
      <trkpt lat="45.76157" lon="4.88251">
        <ele>169</ele>
        <time>2025-07-17T17:32:11.254000+02:00</time>
      </trkpt>
      <trkpt lat="45.76159" lon="4.88242">
        <ele>168.9</ele>
        <time>2025-07-17T17:32:12.255000+02:00</time>
      </trkpt>
      <trkpt lat="45.76163" lon="4.88225">
        <ele>168.9</ele>
        <time>2025-07-17T17:32:14.254000+02:00</time>
      </trkpt>
      <trkpt lat="45.76165" lon="4.88217">
        <ele>168.8</ele>
        <time>2025-07-17T17:32:15.254000+02:00</time>
      </trkpt>
      <trkpt lat="45.76169" lon="4.88211">
        <ele>168.6</ele>
        <time>2025-07-17T17:32:16.254000+02:00</time>
      </trkpt>
      <trkpt lat="45.76174" lon="4.88199">
        <ele>168.1</ele>
        <time>2025-07-17T17:32:18.253000+02:00</time>
      </trkpt>
      <trkpt lat="45.76176" lon="4.88192">
        <ele>168</ele>
        <time>2025-07-17T17:32:19.253000+02:00</time>
      </trkpt>
      <trkpt lat="45.76176" lon="4.88187">
        <ele>168.1</ele>
        <time>2025-07-17T17:32:20.254000+02:00</time>
      </trkpt>
      <trkpt lat="45.76178" lon="4.8818">
        <ele>168.2</ele>
        <time>2025-07-17T17:32:21.255000+02:00</time>
      </trkpt>
      <trkpt lat="45.76181" lon="4.88165">
        <ele>168.5</ele>
        <time>2025-07-17T17:32:23.253000+02:00</time>
      </trkpt>
      <trkpt lat="45.76184" lon="4.88157">
        <ele>168.6</ele>
        <time>2025-07-17T17:32:24.255000+02:00</time>
      </trkpt>
      <trkpt lat="45.76188" lon="4.88141">
        <ele>168.8</ele>
        <time>2025-07-17T17:32:26.253000+02:00</time>
      </trkpt>
      <trkpt lat="45.7619" lon="4.88133">
        <ele>168.7</ele>
        <time>2025-07-17T17:32:27.253000+02:00</time>
      </trkpt>
      <trkpt lat="45.76192" lon="4.88125">
        <ele>168.5</ele>
        <time>2025-07-17T17:32:28.253000+02:00</time>
      </trkpt>
      <trkpt lat="45.76193" lon="4.88118">
        <ele>168.2</ele>
        <time>2025-07-17T17:32:29.253000+02:00</time>
      </trkpt>
      <trkpt lat="45.76194" lon="4.88112">
        <ele>168</ele>
        <time>2025-07-17T17:32:30.253000+02:00</time>
      </trkpt>
      <trkpt lat="45.76196" lon="4.88108">
        <ele>168.1</ele>
        <time>2025-07-17T17:32:31.254000+02:00</time>
      </trkpt>
      <trkpt lat="45.76196" lon="4.88105">
        <ele>168.1</ele>
        <time>2025-07-17T17:32:32.254000+02:00</time>
      </trkpt>
      <trkpt lat="45.76197" lon="4.88103">
        <ele>168.2</ele>
        <time>2025-07-17T17:32:33.254000+02:00</time>
      </trkpt>
      <trkpt lat="45.76198" lon="4.881">
        <ele>168.2</ele>
        <time>2025-07-17T17:32:35.255000+02:00</time>
      </trkpt>
      <trkpt lat="45.76199" lon="4.88099">
        <ele>168.2</ele>
        <time>2025-07-17T17:32:37.253000+02:00</time>
      </trkpt>
      <trkpt lat="45.76199" lon="4.88098">
        <ele>168.3</ele>
        <time>2025-07-17T17:32:38.255000+02:00</time>
      </trkpt>
      <trkpt lat="45.76199" lon="4.88097">
        <ele>168.2</ele>
        <time>2025-07-17T17:32:40.254000+02:00</time>
      </trkpt>
      <trkpt lat="45.76199" lon="4.88094">
        <ele>168.2</ele>
        <time>2025-07-17T17:32:42.254000+02:00</time>
      </trkpt>
      <trkpt lat="45.76198" lon="4.88092">
        <ele>168.1</ele>
        <time>2025-07-17T17:32:43.254000+02:00</time>
      </trkpt>
      <trkpt lat="45.76198" lon="4.88088">
        <ele>168.1</ele>
        <time>2025-07-17T17:32:44.254000+02:00</time>
      </trkpt>
      <trkpt lat="45.76198" lon="4.88084">
        <ele>168</ele>
        <time>2025-07-17T17:32:45.254000+02:00</time>
      </trkpt>
      <trkpt lat="45.762" lon="4.88074">
        <ele>168</ele>
        <time>2025-07-17T17:32:47.254000+02:00</time>
      </trkpt>
      <trkpt lat="45.76201" lon="4.88068">
        <ele>168</ele>
        <time>2025-07-17T17:32:48.254000+02:00</time>
      </trkpt>
      <trkpt lat="45.76202" lon="4.88063">
        <ele>168</ele>
        <time>2025-07-17T17:32:49.254000+02:00</time>
      </trkpt>
      <trkpt lat="45.76204" lon="4.88057">
        <ele>168</ele>
        <time>2025-07-17T17:32:50.254000+02:00</time>
      </trkpt>
      <trkpt lat="45.76205" lon="4.88051">
        <ele>168</ele>
        <time>2025-07-17T17:32:51.255000+02:00</time>
      </trkpt>
      <trkpt lat="45.76209" lon="4.88038">
        <ele>168</ele>
        <time>2025-07-17T17:32:53.254000+02:00</time>
      </trkpt>
      <trkpt lat="45.76211" lon="4.88032">
        <ele>168</ele>
        <time>2025-07-17T17:32:54.254000+02:00</time>
      </trkpt>
      <trkpt lat="45.76213" lon="4.88025">
        <ele>168</ele>
        <time>2025-07-17T17:32:55.254000+02:00</time>
      </trkpt>
      <trkpt lat="45.76216" lon="4.88019">
        <ele>168.1</ele>
        <time>2025-07-17T17:32:56.254000+02:00</time>
      </trkpt>
      <trkpt lat="45.76219" lon="4.88013">
        <ele>168.1</ele>
        <time>2025-07-17T17:32:57.254000+02:00</time>
      </trkpt>
      <trkpt lat="45.76221" lon="4.88007">
        <ele>168</ele>
        <time>2025-07-17T17:32:58.254000+02:00</time>
      </trkpt>
      <trkpt lat="45.76223" lon="4.88001">
        <ele>168</ele>
        <time>2025-07-17T17:32:59.254000+02:00</time>
      </trkpt>
      <trkpt lat="45.76224" lon="4.87995">
        <ele>168.1</ele>
        <time>2025-07-17T17:33:00.254000+02:00</time>
      </trkpt>
      <trkpt lat="45.76229" lon="4.87984">
        <ele>168.1</ele>
        <time>2025-07-17T17:33:02.254000+02:00</time>
      </trkpt>
      <trkpt lat="45.76231" lon="4.87979">
        <ele>168.1</ele>
        <time>2025-07-17T17:33:03.255000+02:00</time>
      </trkpt>
      <trkpt lat="45.76235" lon="4.87968">
        <ele>168.1</ele>
        <time>2025-07-17T17:33:05.253000+02:00</time>
      </trkpt>
      <trkpt lat="45.76237" lon="4.8796">
        <ele>168.2</ele>
        <time>2025-07-17T17:33:06.253000+02:00</time>
      </trkpt>
      <trkpt lat="45.76241" lon="4.87953">
        <ele>168.5</ele>
        <time>2025-07-17T17:33:07.254000+02:00</time>
      </trkpt>
      <trkpt lat="45.76244" lon="4.87935">
        <ele>168.8</ele>
        <time>2025-07-17T17:33:09.253000+02:00</time>
      </trkpt>
      <trkpt lat="45.76247" lon="4.87927">
        <ele>168.9</ele>
        <time>2025-07-17T17:33:10.253000+02:00</time>
      </trkpt>
      <trkpt lat="45.76249" lon="4.87918">
        <ele>169</ele>
        <time>2025-07-17T17:33:11.254000+02:00</time>
      </trkpt>
      <trkpt lat="45.76254" lon="4.87901">
        <ele>168.4</ele>
        <time>2025-07-17T17:33:13.253000+02:00</time>
      </trkpt>
      <trkpt lat="45.76257" lon="4.87892">
        <ele>168.1</ele>
        <time>2025-07-17T17:33:14.253000+02:00</time>
      </trkpt>
      <trkpt lat="45.76259" lon="4.87882">
        <ele>168</ele>
        <time>2025-07-17T17:33:15.254000+02:00</time>
      </trkpt>
      <trkpt lat="45.76261" lon="4.87873">
        <ele>168</ele>
        <time>2025-07-17T17:33:16.254000+02:00</time>
      </trkpt>
      <trkpt lat="45.76263" lon="4.87864">
        <ele>168</ele>
        <time>2025-07-17T17:33:17.254000+02:00</time>
      </trkpt>
      <trkpt lat="45.76266" lon="4.87846">
        <ele>168</ele>
        <time>2025-07-17T17:33:19.255000+02:00</time>
      </trkpt>
      <trkpt lat="45.7627" lon="4.8783">
        <ele>168</ele>
        <time>2025-07-17T17:33:21.255000+02:00</time>
      </trkpt>
      <trkpt lat="45.76275" lon="4.87814">
        <ele>168</ele>
        <time>2025-07-17T17:33:23.255000+02:00</time>
      </trkpt>
      <trkpt lat="45.7628" lon="4.87797">
        <ele>168</ele>
        <time>2025-07-17T17:33:25.255000+02:00</time>
      </trkpt>
      <trkpt lat="45.76285" lon="4.87781">
        <ele>168</ele>
        <time>2025-07-17T17:33:27.254000+02:00</time>
      </trkpt>
      <trkpt lat="45.76288" lon="4.87772">
        <ele>168</ele>
        <time>2025-07-17T17:33:28.255000+02:00</time>
      </trkpt>
      <trkpt lat="45.76293" lon="4.87755">
        <ele>168</ele>
        <time>2025-07-17T17:33:30.255000+02:00</time>
      </trkpt>
      <trkpt lat="45.76295" lon="4.87746">
        <ele>167.9</ele>
        <time>2025-07-17T17:33:31.255000+02:00</time>
      </trkpt>
      <trkpt lat="45.76297" lon="4.87737">
        <ele>167.7</ele>
        <time>2025-07-17T17:33:32.255000+02:00</time>
      </trkpt>
      <trkpt lat="45.76302" lon="4.87719">
        <ele>167.1</ele>
        <time>2025-07-17T17:33:34.254000+02:00</time>
      </trkpt>
      <trkpt lat="45.76306" lon="4.87702">
        <ele>167</ele>
        <time>2025-07-17T17:33:36.254000+02:00</time>
      </trkpt>
      <trkpt lat="45.76311" lon="4.87685">
        <ele>167.5</ele>
        <time>2025-07-17T17:33:38.253000+02:00</time>
      </trkpt>
      <trkpt lat="45.76313" lon="4.87676">
        <ele>167.7</ele>
        <time>2025-07-17T17:33:39.254000+02:00</time>
      </trkpt>
      <trkpt lat="45.76316" lon="4.87668">
        <ele>168</ele>
        <time>2025-07-17T17:33:40.254000+02:00</time>
      </trkpt>
      <trkpt lat="45.7632" lon="4.87651">
        <ele>168</ele>
        <time>2025-07-17T17:33:42.254000+02:00</time>
      </trkpt>
      <trkpt lat="45.76323" lon="4.87642">
        <ele>168</ele>
        <time>2025-07-17T17:33:43.254000+02:00</time>
      </trkpt>
      <trkpt lat="45.76325" lon="4.87633">
        <ele>168</ele>
        <time>2025-07-17T17:33:44.254000+02:00</time>
      </trkpt>
      <trkpt lat="45.76328" lon="4.87625">
        <ele>168</ele>
        <time>2025-07-17T17:33:45.254000+02:00</time>
      </trkpt>
      <trkpt lat="45.7633" lon="4.87615">
        <ele>168</ele>
        <time>2025-07-17T17:33:46.254000+02:00</time>
      </trkpt>
      <trkpt lat="45.76335" lon="4.87598">
        <ele>168</ele>
        <time>2025-07-17T17:33:48.253000+02:00</time>
      </trkpt>
      <trkpt lat="45.76337" lon="4.87589">
        <ele>168</ele>
        <time>2025-07-17T17:33:49.253000+02:00</time>
      </trkpt>
      <trkpt lat="45.76339" lon="4.8758">
        <ele>168</ele>
        <time>2025-07-17T17:33:50.254000+02:00</time>
      </trkpt>
      <trkpt lat="45.76341" lon="4.87571">
        <ele>168</ele>
        <time>2025-07-17T17:33:51.254000+02:00</time>
      </trkpt>
      <trkpt lat="45.76347" lon="4.87553">
        <ele>168</ele>
        <time>2025-07-17T17:33:53.255000+02:00</time>
      </trkpt>
      <trkpt lat="45.76351" lon="4.87536">
        <ele>168</ele>
        <time>2025-07-17T17:33:55.253000+02:00</time>
      </trkpt>
      <trkpt lat="45.76353" lon="4.87527">
        <ele>168</ele>
        <time>2025-07-17T17:33:56.254000+02:00</time>
      </trkpt>
      <trkpt lat="45.76355" lon="4.87519">
        <ele>168</ele>
        <time>2025-07-17T17:33:57.255000+02:00</time>
      </trkpt>
      <trkpt lat="45.76359" lon="4.87501">
        <ele>168</ele>
        <time>2025-07-17T17:33:59.253000+02:00</time>
      </trkpt>
      <trkpt lat="45.76361" lon="4.87493">
        <ele>168</ele>
        <time>2025-07-17T17:34:00.253000+02:00</time>
      </trkpt>
      <trkpt lat="45.76363" lon="4.87484">
        <ele>168</ele>
        <time>2025-07-17T17:34:01.254000+02:00</time>
      </trkpt>
      <trkpt lat="45.76365" lon="4.87475">
        <ele>168</ele>
        <time>2025-07-17T17:34:02.254000+02:00</time>
      </trkpt>
      <trkpt lat="45.76367" lon="4.87467">
        <ele>168</ele>
        <time>2025-07-17T17:34:03.254000+02:00</time>
      </trkpt>
      <trkpt lat="45.76369" lon="4.87459">
        <ele>168</ele>
        <time>2025-07-17T17:34:04.254000+02:00</time>
      </trkpt>
      <trkpt lat="45.76371" lon="4.8745">
        <ele>168</ele>
        <time>2025-07-17T17:34:05.254000+02:00</time>
      </trkpt>
      <trkpt lat="45.76372" lon="4.87442">
        <ele>168</ele>
        <time>2025-07-17T17:34:06.255000+02:00</time>
      </trkpt>
      <trkpt lat="45.76376" lon="4.87435">
        <ele>168</ele>
        <time>2025-07-17T17:34:08.254000+02:00</time>
      </trkpt>
      <trkpt lat="45.76377" lon="4.87433">
        <ele>168</ele>
        <time>2025-07-17T17:34:09.254000+02:00</time>
      </trkpt>
      <trkpt lat="45.76377" lon="4.8743">
        <ele>168</ele>
        <time>2025-07-17T17:34:10.254000+02:00</time>
      </trkpt>
      <trkpt lat="45.76383" lon="4.87425">
        <ele>168</ele>
        <time>2025-07-17T17:34:12.254000+02:00</time>
      </trkpt>
      <trkpt lat="45.76387" lon="4.87422">
        <ele>168</ele>
        <time>2025-07-17T17:34:13.255000+02:00</time>
      </trkpt>
      <trkpt lat="45.76392" lon="4.8741">
        <ele>168</ele>
        <time>2025-07-17T17:34:15.254000+02:00</time>
      </trkpt>
      <trkpt lat="45.7639" lon="4.87395">
        <ele>168</ele>
        <time>2025-07-17T17:34:17.254000+02:00</time>
      </trkpt>
      <trkpt lat="45.76388" lon="4.87387">
        <ele>168</ele>
        <time>2025-07-17T17:34:18.254000+02:00</time>
      </trkpt>
      <trkpt lat="45.76385" lon="4.87379">
        <ele>168</ele>
        <time>2025-07-17T17:34:19.254000+02:00</time>
      </trkpt>
      <trkpt lat="45.76383" lon="4.87362">
        <ele>168</ele>
        <time>2025-07-17T17:34:21.255000+02:00</time>
      </trkpt>
      <trkpt lat="45.76385" lon="4.87344">
        <ele>168</ele>
        <time>2025-07-17T17:34:23.254000+02:00</time>
      </trkpt>
      <trkpt lat="45.76386" lon="4.87326">
        <ele>168</ele>
        <time>2025-07-17T17:34:25.254000+02:00</time>
      </trkpt>
      <trkpt lat="45.76385" lon="4.87307">
        <ele>168.1</ele>
        <time>2025-07-17T17:34:27.252000+02:00</time>
      </trkpt>
      <trkpt lat="45.76385" lon="4.87297">
        <ele>168.4</ele>
        <time>2025-07-17T17:34:28.253000+02:00</time>
      </trkpt>
      <trkpt lat="45.76385" lon="4.87288">
        <ele>168.6</ele>
        <time>2025-07-17T17:34:29.254000+02:00</time>
      </trkpt>
      <trkpt lat="45.76385" lon="4.87269">
        <ele>168.6</ele>
        <time>2025-07-17T17:34:31.253000+02:00</time>
      </trkpt>
      <trkpt lat="45.76385" lon="4.87259">
        <ele>168.3</ele>
        <time>2025-07-17T17:34:32.254000+02:00</time>
      </trkpt>
      <trkpt lat="45.76385" lon="4.8725">
        <ele>168</ele>
        <time>2025-07-17T17:34:33.254000+02:00</time>
      </trkpt>
      <trkpt lat="45.76385" lon="4.8724">
        <ele>168.3</ele>
        <time>2025-07-17T17:34:34.254000+02:00</time>
      </trkpt>
      <trkpt lat="45.76385" lon="4.87221">
        <ele>168.9</ele>
        <time>2025-07-17T17:34:36.254000+02:00</time>
      </trkpt>
      <trkpt lat="45.76385" lon="4.87209">
        <ele>168.9</ele>
        <time>2025-07-17T17:34:38.253000+02:00</time>
      </trkpt>
      <trkpt lat="45.76384" lon="4.87205">
        <ele>168.8</ele>
        <time>2025-07-17T17:34:39.255000+02:00</time>
      </trkpt>
      <trkpt lat="45.76384" lon="4.87201">
        <ele>168.8</ele>
        <time>2025-07-17T17:34:41.252000+02:00</time>
      </trkpt>
      <trkpt lat="45.76384" lon="4.87199">
        <ele>168.8</ele>
        <time>2025-07-17T17:34:42.253000+02:00</time>
      </trkpt>
      <trkpt lat="45.76384" lon="4.87197">
        <ele>168.8</ele>
        <time>2025-07-17T17:34:43.253000+02:00</time>
      </trkpt>
      <trkpt lat="45.76384" lon="4.87195">
        <ele>168.8</ele>
        <time>2025-07-17T17:34:44.255000+02:00</time>
      </trkpt>
      <trkpt lat="45.76385" lon="4.87191">
        <ele>168.7</ele>
        <time>2025-07-17T17:34:46.253000+02:00</time>
      </trkpt>
      <trkpt lat="45.76385" lon="4.8719">
        <ele>168.7</ele>
        <time>2025-07-17T17:34:47.253000+02:00</time>
      </trkpt>
      <trkpt lat="45.76385" lon="4.87189">
        <ele>168.7</ele>
        <time>2025-07-17T17:34:48.253000+02:00</time>
      </trkpt>
      <trkpt lat="45.76385" lon="4.87188">
        <ele>168.6</ele>
        <time>2025-07-17T17:34:49.253000+02:00</time>
      </trkpt>
      <trkpt lat="45.76384" lon="4.87185">
        <ele>168.6</ele>
        <time>2025-07-17T17:34:51.253000+02:00</time>
      </trkpt>
      <trkpt lat="45.76384" lon="4.87184">
        <ele>168.5</ele>
        <time>2025-07-17T17:34:52.253000+02:00</time>
      </trkpt>
      <trkpt lat="45.76384" lon="4.87184">
        <ele>168.5</ele>
        <time>2025-07-17T17:34:53.253000+02:00</time>
      </trkpt>
      <trkpt lat="45.76384" lon="4.87184">
        <ele>168.5</ele>
        <time>2025-07-17T17:34:55.252000+02:00</time>
      </trkpt>
      <trkpt lat="45.76384" lon="4.87184">
        <ele>168.5</ele>
        <time>2025-07-17T17:34:56.253000+02:00</time>
      </trkpt>
      <trkpt lat="45.76383" lon="4.87181">
        <ele>168.4</ele>
        <time>2025-07-17T17:34:58.253000+02:00</time>
      </trkpt>
      <trkpt lat="45.76383" lon="4.87178">
        <ele>168.3</ele>
        <time>2025-07-17T17:34:59.254000+02:00</time>
      </trkpt>
      <trkpt lat="45.76384" lon="4.87168">
        <ele>168.1</ele>
        <time>2025-07-17T17:35:01.252000+02:00</time>
      </trkpt>
      <trkpt lat="45.76384" lon="4.87163">
        <ele>168</ele>
        <time>2025-07-17T17:35:02.253000+02:00</time>
      </trkpt>
      <trkpt lat="45.76384" lon="4.87155">
        <ele>168</ele>
        <time>2025-07-17T17:35:03.254000+02:00</time>
      </trkpt>
      <trkpt lat="45.76385" lon="4.87147">
        <ele>168</ele>
        <time>2025-07-17T17:35:04.254000+02:00</time>
      </trkpt>
      <trkpt lat="45.76386" lon="4.87128">
        <ele>168.3</ele>
        <time>2025-07-17T17:35:06.254000+02:00</time>
      </trkpt>
      <trkpt lat="45.76386" lon="4.87119">
        <ele>168.6</ele>
        <time>2025-07-17T17:35:07.254000+02:00</time>
      </trkpt>
      <trkpt lat="45.76386" lon="4.87099">
        <ele>168.5</ele>
        <time>2025-07-17T17:35:09.253000+02:00</time>
      </trkpt>
      <trkpt lat="45.76385" lon="4.8709">
        <ele>168.2</ele>
        <time>2025-07-17T17:35:10.253000+02:00</time>
      </trkpt>
      <trkpt lat="45.76385" lon="4.87079">
        <ele>168</ele>
        <time>2025-07-17T17:35:11.253000+02:00</time>
      </trkpt>
      <trkpt lat="45.76384" lon="4.8707">
        <ele>168</ele>
        <time>2025-07-17T17:35:12.253000+02:00</time>
      </trkpt>
      <trkpt lat="45.76385" lon="4.8706">
        <ele>168</ele>
        <time>2025-07-17T17:35:13.254000+02:00</time>
      </trkpt>
      <trkpt lat="45.76384" lon="4.8704">
        <ele>168</ele>
        <time>2025-07-17T17:35:15.253000+02:00</time>
      </trkpt>
      <trkpt lat="45.76384" lon="4.8703">
        <ele>168</ele>
        <time>2025-07-17T17:35:16.253000+02:00</time>
      </trkpt>
      <trkpt lat="45.76385" lon="4.87021">
        <ele>168</ele>
        <time>2025-07-17T17:35:17.253000+02:00</time>
      </trkpt>
      <trkpt lat="45.76385" lon="4.87004">
        <ele>168</ele>
        <time>2025-07-17T17:35:19.254000+02:00</time>
      </trkpt>
      <trkpt lat="45.76385" lon="4.86996">
        <ele>168.1</ele>
        <time>2025-07-17T17:35:20.254000+02:00</time>
      </trkpt>
      <trkpt lat="45.76385" lon="4.86978">
        <ele>168.7</ele>
        <time>2025-07-17T17:35:22.253000+02:00</time>
      </trkpt>
      <trkpt lat="45.76385" lon="4.86968">
        <ele>168.7</ele>
        <time>2025-07-17T17:35:23.253000+02:00</time>
      </trkpt>
      <trkpt lat="45.76385" lon="4.86959">
        <ele>168.4</ele>
        <time>2025-07-17T17:35:24.253000+02:00</time>
      </trkpt>
      <trkpt lat="45.76386" lon="4.8694">
        <ele>168.2</ele>
        <time>2025-07-17T17:35:26.253000+02:00</time>
      </trkpt>
      <trkpt lat="45.76386" lon="4.8693">
        <ele>168.5</ele>
        <time>2025-07-17T17:35:27.253000+02:00</time>
      </trkpt>
      <trkpt lat="45.76386" lon="4.86921">
        <ele>168.8</ele>
        <time>2025-07-17T17:35:28.254000+02:00</time>
      </trkpt>
      <trkpt lat="45.76385" lon="4.86911">
        <ele>168.7</ele>
        <time>2025-07-17T17:35:29.254000+02:00</time>
      </trkpt>
      <trkpt lat="45.76385" lon="4.86901">
        <ele>168.4</ele>
        <time>2025-07-17T17:35:30.254000+02:00</time>
      </trkpt>
      <trkpt lat="45.76384" lon="4.86884">
        <ele>168</ele>
        <time>2025-07-17T17:35:32.253000+02:00</time>
      </trkpt>
      <trkpt lat="45.76384" lon="4.86876">
        <ele>167.9</ele>
        <time>2025-07-17T17:35:33.254000+02:00</time>
      </trkpt>
      <trkpt lat="45.76384" lon="4.8686">
        <ele>167.9</ele>
        <time>2025-07-17T17:35:35.253000+02:00</time>
      </trkpt>
      <trkpt lat="45.76384" lon="4.86855">
        <ele>168</ele>
        <time>2025-07-17T17:35:36.253000+02:00</time>
      </trkpt>
      <trkpt lat="45.76384" lon="4.8685">
        <ele>168.2</ele>
        <time>2025-07-17T17:35:37.254000+02:00</time>
      </trkpt>
      <trkpt lat="45.76384" lon="4.86839">
        <ele>168.6</ele>
        <time>2025-07-17T17:35:39.252000+02:00</time>
      </trkpt>
      <trkpt lat="45.76384" lon="4.86833">
        <ele>168.8</ele>
        <time>2025-07-17T17:35:40.253000+02:00</time>
      </trkpt>
      <trkpt lat="45.76384" lon="4.86827">
        <ele>168.6</ele>
        <time>2025-07-17T17:35:41.254000+02:00</time>
      </trkpt>
      <trkpt lat="45.76385" lon="4.86821">
        <ele>168.5</ele>
        <time>2025-07-17T17:35:42.254000+02:00</time>
      </trkpt>
      <trkpt lat="45.76385" lon="4.8681">
        <ele>168.1</ele>
        <time>2025-07-17T17:35:44.253000+02:00</time>
      </trkpt>
      <trkpt lat="45.76384" lon="4.86801">
        <ele>168</ele>
        <time>2025-07-17T17:35:46.253000+02:00</time>
      </trkpt>
      <trkpt lat="45.76384" lon="4.86795">
        <ele>168</ele>
        <time>2025-07-17T17:35:47.254000+02:00</time>
      </trkpt>
      <trkpt lat="45.76382" lon="4.86779">
        <ele>168</ele>
        <time>2025-07-17T17:35:49.256000+02:00</time>
      </trkpt>
      <trkpt lat="45.76383" lon="4.86761">
        <ele>168</ele>
        <time>2025-07-17T17:35:51.252000+02:00</time>
      </trkpt>
      <trkpt lat="45.76383" lon="4.86752">
        <ele>168</ele>
        <time>2025-07-17T17:35:52.252000+02:00</time>
      </trkpt>
      <trkpt lat="45.76382" lon="4.86743">
        <ele>168</ele>
        <time>2025-07-17T17:35:53.253000+02:00</time>
      </trkpt>
      <trkpt lat="45.76382" lon="4.86733">
        <ele>168</ele>
        <time>2025-07-17T17:35:54.253000+02:00</time>
      </trkpt>
      <trkpt lat="45.76381" lon="4.86724">
        <ele>168</ele>
        <time>2025-07-17T17:35:55.253000+02:00</time>
      </trkpt>
      <trkpt lat="45.76381" lon="4.86715">
        <ele>167.9</ele>
        <time>2025-07-17T17:35:56.253000+02:00</time>
      </trkpt>
      <trkpt lat="45.76381" lon="4.86696">
        <ele>167.7</ele>
        <time>2025-07-17T17:35:58.252000+02:00</time>
      </trkpt>
      <trkpt lat="45.76382" lon="4.86688">
        <ele>167.8</ele>
        <time>2025-07-17T17:35:59.252000+02:00</time>
      </trkpt>
      <trkpt lat="45.76381" lon="4.86678">
        <ele>167.9</ele>
        <time>2025-07-17T17:36:00.254000+02:00</time>
      </trkpt>
      <trkpt lat="45.76381" lon="4.8666">
        <ele>168</ele>
        <time>2025-07-17T17:36:02.253000+02:00</time>
      </trkpt>
      <trkpt lat="45.76381" lon="4.86651">
        <ele>168</ele>
        <time>2025-07-17T17:36:03.253000+02:00</time>
      </trkpt>
      <trkpt lat="45.7638" lon="4.86634">
        <ele>168.1</ele>
        <time>2025-07-17T17:36:05.252000+02:00</time>
      </trkpt>
      <trkpt lat="45.7638" lon="4.86624">
        <ele>168.2</ele>
        <time>2025-07-17T17:36:06.252000+02:00</time>
      </trkpt>
      <trkpt lat="45.76379" lon="4.86615">
        <ele>168.3</ele>
        <time>2025-07-17T17:36:07.253000+02:00</time>
      </trkpt>
      <trkpt lat="45.76379" lon="4.86605">
        <ele>168.3</ele>
        <time>2025-07-17T17:36:08.254000+02:00</time>
      </trkpt>
      <trkpt lat="45.76379" lon="4.86595">
        <ele>168.1</ele>
        <time>2025-07-17T17:36:09.254000+02:00</time>
      </trkpt>
      <trkpt lat="45.76379" lon="4.86576">
        <ele>168</ele>
        <time>2025-07-17T17:36:11.254000+02:00</time>
      </trkpt>
      <trkpt lat="45.76379" lon="4.86557">
        <ele>168</ele>
        <time>2025-07-17T17:36:13.254000+02:00</time>
      </trkpt>
      <trkpt lat="45.76379" lon="4.86539">
        <ele>168</ele>
        <time>2025-07-17T17:36:15.252000+02:00</time>
      </trkpt>
      <trkpt lat="45.76379" lon="4.86529">
        <ele>168</ele>
        <time>2025-07-17T17:36:16.252000+02:00</time>
      </trkpt>
      <trkpt lat="45.76379" lon="4.8652">
        <ele>168</ele>
        <time>2025-07-17T17:36:17.252000+02:00</time>
      </trkpt>
      <trkpt lat="45.76379" lon="4.86511">
        <ele>168</ele>
        <time>2025-07-17T17:36:18.252000+02:00</time>
      </trkpt>
      <trkpt lat="45.7638" lon="4.86503">
        <ele>168</ele>
        <time>2025-07-17T17:36:19.253000+02:00</time>
      </trkpt>
      <trkpt lat="45.7638" lon="4.86496">
        <ele>168</ele>
        <time>2025-07-17T17:36:20.256000+02:00</time>
      </trkpt>
      <trkpt lat="45.7638" lon="4.8649">
        <ele>168</ele>
        <time>2025-07-17T17:36:21.258000+02:00</time>
      </trkpt>
      <trkpt lat="45.76379" lon="4.86484">
        <ele>168</ele>
        <time>2025-07-17T17:36:22.258000+02:00</time>
      </trkpt>
      <trkpt lat="45.76379" lon="4.86468">
        <ele>168</ele>
        <time>2025-07-17T17:36:24.257000+02:00</time>
      </trkpt>
      <trkpt lat="45.7638" lon="4.86459">
        <ele>168</ele>
        <time>2025-07-17T17:36:25.258000+02:00</time>
      </trkpt>
      <trkpt lat="45.76381" lon="4.8645">
        <ele>168</ele>
        <time>2025-07-17T17:36:26.258000+02:00</time>
      </trkpt>
      <trkpt lat="45.76381" lon="4.86431">
        <ele>168</ele>
        <time>2025-07-17T17:36:28.258000+02:00</time>
      </trkpt>
      <trkpt lat="45.76381" lon="4.86421">
        <ele>168</ele>
        <time>2025-07-17T17:36:29.258000+02:00</time>
      </trkpt>
      <trkpt lat="45.76381" lon="4.86404">
        <ele>167.7</ele>
        <time>2025-07-17T17:36:31.253000+02:00</time>
      </trkpt>
      <trkpt lat="45.7638" lon="4.86395">
        <ele>167.5</ele>
        <time>2025-07-17T17:36:32.257000+02:00</time>
      </trkpt>
      <trkpt lat="45.76379" lon="4.86377">
        <ele>167.6</ele>
        <time>2025-07-17T17:36:34.252000+02:00</time>
      </trkpt>
      <trkpt lat="45.76378" lon="4.86367">
        <ele>167.9</ele>
        <time>2025-07-17T17:36:35.252000+02:00</time>
      </trkpt>
      <trkpt lat="45.76378" lon="4.86357">
        <ele>168.1</ele>
        <time>2025-07-17T17:36:36.252000+02:00</time>
      </trkpt>
      <trkpt lat="45.76378" lon="4.86348">
        <ele>168.3</ele>
        <time>2025-07-17T17:36:37.253000+02:00</time>
      </trkpt>
      <trkpt lat="45.76379" lon="4.86339">
        <ele>168.5</ele>
        <time>2025-07-17T17:36:38.253000+02:00</time>
      </trkpt>
      <trkpt lat="45.76379" lon="4.86329">
        <ele>168.6</ele>
        <time>2025-07-17T17:36:39.253000+02:00</time>
      </trkpt>
      <trkpt lat="45.76379" lon="4.86319">
        <ele>168.3</ele>
        <time>2025-07-17T17:36:40.254000+02:00</time>
      </trkpt>
      <trkpt lat="45.76379" lon="4.8631">
        <ele>168.1</ele>
        <time>2025-07-17T17:36:41.254000+02:00</time>
      </trkpt>
      <trkpt lat="45.76377" lon="4.86294">
        <ele>167.8</ele>
        <time>2025-07-17T17:36:43.252000+02:00</time>
      </trkpt>
      <trkpt lat="45.76377" lon="4.86285">
        <ele>167.6</ele>
        <time>2025-07-17T17:36:44.253000+02:00</time>
      </trkpt>
      <trkpt lat="45.76379" lon="4.86265">
        <ele>167.5</ele>
        <time>2025-07-17T17:36:46.253000+02:00</time>
      </trkpt>
      <trkpt lat="45.76382" lon="4.86247">
        <ele>167.8</ele>
        <time>2025-07-17T17:36:48.253000+02:00</time>
      </trkpt>
      <trkpt lat="45.76381" lon="4.86233">
        <ele>167.9</ele>
        <time>2025-07-17T17:36:50.252000+02:00</time>
      </trkpt>
      <trkpt lat="45.76381" lon="4.86229">
        <ele>167.9</ele>
        <time>2025-07-17T17:36:51.252000+02:00</time>
      </trkpt>
      <trkpt lat="45.76382" lon="4.86226">
        <ele>168</ele>
        <time>2025-07-17T17:36:52.253000+02:00</time>
      </trkpt>
      <trkpt lat="45.76381" lon="4.86224">
        <ele>168</ele>
        <time>2025-07-17T17:36:53.253000+02:00</time>
      </trkpt>
      <trkpt lat="45.7638" lon="4.86224">
        <ele>168</ele>
        <time>2025-07-17T17:36:55.253000+02:00</time>
      </trkpt>
      <trkpt lat="45.7638" lon="4.86225">
        <ele>168</ele>
        <time>2025-07-17T17:36:57.253000+02:00</time>
      </trkpt>
      <trkpt lat="45.7638" lon="4.86225">
        <ele>168</ele>
        <time>2025-07-17T17:36:59.252000+02:00</time>
      </trkpt>
      <trkpt lat="45.76379" lon="4.86225">
        <ele>168</ele>
        <time>2025-07-17T17:37:00.253000+02:00</time>
      </trkpt>
      <trkpt lat="45.76379" lon="4.86225">
        <ele>168</ele>
        <time>2025-07-17T17:37:02.253000+02:00</time>
      </trkpt>
      <trkpt lat="45.76379" lon="4.86225">
        <ele>168</ele>
        <time>2025-07-17T17:37:03.253000+02:00</time>
      </trkpt>
      <trkpt lat="45.76379" lon="4.86225">
        <ele>168</ele>
        <time>2025-07-17T17:37:04.253000+02:00</time>
      </trkpt>
      <trkpt lat="45.76379" lon="4.86225">
        <ele>168</ele>
        <time>2025-07-17T17:37:06.253000+02:00</time>
      </trkpt>
      <trkpt lat="45.76379" lon="4.86225">
        <ele>168</ele>
        <time>2025-07-17T17:37:07.253000+02:00</time>
      </trkpt>
      <trkpt lat="45.76379" lon="4.86225">
        <ele>168</ele>
        <time>2025-07-17T17:37:08.253000+02:00</time>
      </trkpt>
      <trkpt lat="45.76379" lon="4.86225">
        <ele>168</ele>
        <time>2025-07-17T17:37:11.252000+02:00</time>
      </trkpt>
      <trkpt lat="45.76379" lon="4.86225">
        <ele>168</ele>
        <time>2025-07-17T17:37:12.253000+02:00</time>
      </trkpt>
      <trkpt lat="45.76379" lon="4.86225">
        <ele>168</ele>
        <time>2025-07-17T17:37:14.251000+02:00</time>
      </trkpt>
      <trkpt lat="45.76379" lon="4.86225">
        <ele>168</ele>
        <time>2025-07-17T17:37:17.253000+02:00</time>
      </trkpt>
      <trkpt lat="45.76379" lon="4.86225">
        <ele>168</ele>
        <time>2025-07-17T17:37:18.253000+02:00</time>
      </trkpt>
      <trkpt lat="45.76379" lon="4.86224">
        <ele>168</ele>
        <time>2025-07-17T17:37:20.252000+02:00</time>
      </trkpt>
      <trkpt lat="45.76379" lon="4.86219">
        <ele>168</ele>
        <time>2025-07-17T17:37:22.252000+02:00</time>
      </trkpt>
      <trkpt lat="45.76379" lon="4.86215">
        <ele>168</ele>
        <time>2025-07-17T17:37:23.258000+02:00</time>
      </trkpt>
      <trkpt lat="45.76377" lon="4.86208">
        <ele>168</ele>
        <time>2025-07-17T17:37:25.256000+02:00</time>
      </trkpt>
      <trkpt lat="45.76375" lon="4.86203">
        <ele>168</ele>
        <time>2025-07-17T17:37:26.256000+02:00</time>
      </trkpt>
      <trkpt lat="45.76372" lon="4.86194">
        <ele>168</ele>
        <time>2025-07-17T17:37:28.251000+02:00</time>
      </trkpt>
      <trkpt lat="45.7637" lon="4.86189">
        <ele>168</ele>
        <time>2025-07-17T17:37:29.251000+02:00</time>
      </trkpt>
      <trkpt lat="45.76368" lon="4.86184">
        <ele>168</ele>
        <time>2025-07-17T17:37:30.252000+02:00</time>
      </trkpt>
      <trkpt lat="45.76367" lon="4.86179">
        <ele>168</ele>
        <time>2025-07-17T17:37:31.261000+02:00</time>
      </trkpt>
      <trkpt lat="45.76367" lon="4.86167">
        <ele>168</ele>
        <time>2025-07-17T17:37:33.252000+02:00</time>
      </trkpt>
      <trkpt lat="45.76367" lon="4.86162">
        <ele>168</ele>
        <time>2025-07-17T17:37:34.252000+02:00</time>
      </trkpt>
      <trkpt lat="45.76367" lon="4.86157">
        <ele>168</ele>
        <time>2025-07-17T17:37:35.252000+02:00</time>
      </trkpt>
      <trkpt lat="45.76368" lon="4.8615">
        <ele>168</ele>
        <time>2025-07-17T17:37:36.258000+02:00</time>
      </trkpt>
      <trkpt lat="45.76369" lon="4.86137">
        <ele>168</ele>
        <time>2025-07-17T17:37:38.253000+02:00</time>
      </trkpt>
      <trkpt lat="45.7637" lon="4.86131">
        <ele>168</ele>
        <time>2025-07-17T17:37:39.253000+02:00</time>
      </trkpt>
      <trkpt lat="45.76371" lon="4.86124">
        <ele>168</ele>
        <time>2025-07-17T17:37:40.253000+02:00</time>
      </trkpt>
      <trkpt lat="45.76372" lon="4.8611">
        <ele>168.1</ele>
        <time>2025-07-17T17:37:42.259000+02:00</time>
      </trkpt>
      <trkpt lat="45.76371" lon="4.86096">
        <ele>168.8</ele>
        <time>2025-07-17T17:37:44.253000+02:00</time>
      </trkpt>
      <trkpt lat="45.76371" lon="4.86081">
        <ele>169.8</ele>
        <time>2025-07-17T17:37:46.252000+02:00</time>
      </trkpt>
      <trkpt lat="45.76371" lon="4.86074">
        <ele>170.6</ele>
        <time>2025-07-17T17:37:47.252000+02:00</time>
      </trkpt>
      <trkpt lat="45.7637" lon="4.86067">
        <ele>171.6</ele>
        <time>2025-07-17T17:37:48.259000+02:00</time>
      </trkpt>
      <trkpt lat="45.76371" lon="4.86051">
        <ele>172.7</ele>
        <time>2025-07-17T17:37:50.253000+02:00</time>
      </trkpt>
      <trkpt lat="45.7637" lon="4.86037">
        <ele>171.7</ele>
        <time>2025-07-17T17:37:52.252000+02:00</time>
      </trkpt>
      <trkpt lat="45.7637" lon="4.8603">
        <ele>171.2</ele>
        <time>2025-07-17T17:37:53.252000+02:00</time>
      </trkpt>
      <trkpt lat="45.7637" lon="4.86023">
        <ele>170.5</ele>
        <time>2025-07-17T17:37:54.253000+02:00</time>
      </trkpt>
      <trkpt lat="45.76369" lon="4.86003">
        <ele>168.9</ele>
        <time>2025-07-17T17:37:56.252000+02:00</time>
      </trkpt>
      <trkpt lat="45.76368" lon="4.85995">
        <ele>168.4</ele>
        <time>2025-07-17T17:37:57.253000+02:00</time>
      </trkpt>
      <trkpt lat="45.76369" lon="4.85988">
        <ele>168.3</ele>
        <time>2025-07-17T17:37:58.253000+02:00</time>
      </trkpt>
      <trkpt lat="45.76371" lon="4.85986">
        <ele>168.4</ele>
        <time>2025-07-17T17:37:59.253000+02:00</time>
      </trkpt>
      <trkpt lat="45.76373" lon="4.85981">
        <ele>168.3</ele>
        <time>2025-07-17T17:38:01.252000+02:00</time>
      </trkpt>
      <trkpt lat="45.76373" lon="4.85979">
        <ele>168.2</ele>
        <time>2025-07-17T17:38:02.252000+02:00</time>
      </trkpt>
      <trkpt lat="45.76374" lon="4.85977">
        <ele>168.1</ele>
        <time>2025-07-17T17:38:03.252000+02:00</time>
      </trkpt>
      <trkpt lat="45.76374" lon="4.85975">
        <ele>168.1</ele>
        <time>2025-07-17T17:38:04.252000+02:00</time>
      </trkpt>
      <trkpt lat="45.76374" lon="4.85973">
        <ele>168</ele>
        <time>2025-07-17T17:38:05.253000+02:00</time>
      </trkpt>
      <trkpt lat="45.76374" lon="4.85969">
        <ele>168</ele>
        <time>2025-07-17T17:38:07.252000+02:00</time>
      </trkpt>
      <trkpt lat="45.76374" lon="4.85965">
        <ele>168</ele>
        <time>2025-07-17T17:38:08.252000+02:00</time>
      </trkpt>
      <trkpt lat="45.76374" lon="4.8596">
        <ele>168</ele>
        <time>2025-07-17T17:38:09.254000+02:00</time>
      </trkpt>
      <trkpt lat="45.76373" lon="4.85949">
        <ele>168</ele>
        <time>2025-07-17T17:38:11.253000+02:00</time>
      </trkpt>
      <trkpt lat="45.76372" lon="4.85937">
        <ele>168</ele>
        <time>2025-07-17T17:38:13.252000+02:00</time>
      </trkpt>
      <trkpt lat="45.76372" lon="4.85932">
        <ele>168</ele>
        <time>2025-07-17T17:38:14.252000+02:00</time>
      </trkpt>
      <trkpt lat="45.76372" lon="4.85927">
        <ele>168</ele>
        <time>2025-07-17T17:38:15.252000+02:00</time>
      </trkpt>
      <trkpt lat="45.76372" lon="4.85921">
        <ele>168</ele>
        <time>2025-07-17T17:38:16.253000+02:00</time>
      </trkpt>
      <trkpt lat="45.76372" lon="4.85909">
        <ele>168</ele>
        <time>2025-07-17T17:38:18.253000+02:00</time>
      </trkpt>
      <trkpt lat="45.76372" lon="4.85903">
        <ele>168</ele>
        <time>2025-07-17T17:38:19.253000+02:00</time>
      </trkpt>
      <trkpt lat="45.76372" lon="4.85891">
        <ele>168</ele>
        <time>2025-07-17T17:38:21.252000+02:00</time>
      </trkpt>
      <trkpt lat="45.76372" lon="4.85886">
        <ele>168.1</ele>
        <time>2025-07-17T17:38:22.253000+02:00</time>
      </trkpt>
      <trkpt lat="45.76372" lon="4.85876">
        <ele>168.5</ele>
        <time>2025-07-17T17:38:24.252000+02:00</time>
      </trkpt>
      <trkpt lat="45.76372" lon="4.85871">
        <ele>168.7</ele>
        <time>2025-07-17T17:38:25.253000+02:00</time>
      </trkpt>
      <trkpt lat="45.76372" lon="4.85866">
        <ele>168.8</ele>
        <time>2025-07-17T17:38:26.254000+02:00</time>
      </trkpt>
      <trkpt lat="45.76373" lon="4.85857">
        <ele>169</ele>
        <time>2025-07-17T17:38:28.252000+02:00</time>
      </trkpt>
      <trkpt lat="45.76373" lon="4.85853">
        <ele>169</ele>
        <time>2025-07-17T17:38:29.253000+02:00</time>
      </trkpt>
      <trkpt lat="45.76374" lon="4.85851">
        <ele>169</ele>
        <time>2025-07-17T17:38:31.252000+02:00</time>
      </trkpt>
      <trkpt lat="45.76374" lon="4.85851">
        <ele>169</ele>
        <time>2025-07-17T17:38:32.253000+02:00</time>
      </trkpt>
      <trkpt lat="45.76375" lon="4.8585">
        <ele>169</ele>
        <time>2025-07-17T17:38:34.252000+02:00</time>
      </trkpt>
      <trkpt lat="45.76375" lon="4.85849">
        <ele>169</ele>
        <time>2025-07-17T17:38:35.254000+02:00</time>
      </trkpt>
      <trkpt lat="45.76376" lon="4.85843">
        <ele>169</ele>
        <time>2025-07-17T17:38:37.253000+02:00</time>
      </trkpt>
      <trkpt lat="45.76374" lon="4.85836">
        <ele>169</ele>
        <time>2025-07-17T17:38:39.252000+02:00</time>
      </trkpt>
      <trkpt lat="45.76373" lon="4.85832">
        <ele>169</ele>
        <time>2025-07-17T17:38:40.252000+02:00</time>
      </trkpt>
      <trkpt lat="45.76372" lon="4.85829">
        <ele>169</ele>
        <time>2025-07-17T17:38:41.253000+02:00</time>
      </trkpt>
      <trkpt lat="45.76372" lon="4.8582">
        <ele>169</ele>
        <time>2025-07-17T17:38:43.252000+02:00</time>
      </trkpt>
      <trkpt lat="45.76372" lon="4.85816">
        <ele>169</ele>
        <time>2025-07-17T17:38:44.252000+02:00</time>
      </trkpt>
      <trkpt lat="45.76373" lon="4.85812">
        <ele>169</ele>
        <time>2025-07-17T17:38:45.253000+02:00</time>
      </trkpt>
      <trkpt lat="45.76374" lon="4.85804">
        <ele>169</ele>
        <time>2025-07-17T17:38:47.252000+02:00</time>
      </trkpt>
      <trkpt lat="45.76375" lon="4.85799">
        <ele>169</ele>
        <time>2025-07-17T17:38:48.252000+02:00</time>
      </trkpt>
      <trkpt lat="45.76375" lon="4.85795">
        <ele>169</ele>
        <time>2025-07-17T17:38:49.252000+02:00</time>
      </trkpt>
      <trkpt lat="45.76375" lon="4.8579">
        <ele>169</ele>
        <time>2025-07-17T17:38:50.252000+02:00</time>
      </trkpt>
      <trkpt lat="45.76375" lon="4.85784">
        <ele>169</ele>
        <time>2025-07-17T17:38:51.252000+02:00</time>
      </trkpt>
      <trkpt lat="45.76376" lon="4.85779">
        <ele>169</ele>
        <time>2025-07-17T17:38:52.254000+02:00</time>
      </trkpt>
      <trkpt lat="45.76376" lon="4.85769">
        <ele>169</ele>
        <time>2025-07-17T17:38:54.252000+02:00</time>
      </trkpt>
      <trkpt lat="45.76376" lon="4.85761">
        <ele>169</ele>
        <time>2025-07-17T17:38:56.252000+02:00</time>
      </trkpt>
      <trkpt lat="45.76376" lon="4.85759">
        <ele>169</ele>
        <time>2025-07-17T17:38:57.252000+02:00</time>
      </trkpt>
      <trkpt lat="45.76375" lon="4.85758">
        <ele>169</ele>
        <time>2025-07-17T17:38:58.252000+02:00</time>
      </trkpt>
      <trkpt lat="45.76375" lon="4.85756">
        <ele>169</ele>
        <time>2025-07-17T17:39:00.253000+02:00</time>
      </trkpt>
      <trkpt lat="45.76375" lon="4.85756">
        <ele>169</ele>
        <time>2025-07-17T17:39:02.251000+02:00</time>
      </trkpt>
      <trkpt lat="45.76375" lon="4.85756">
        <ele>169</ele>
        <time>2025-07-17T17:39:03.259000+02:00</time>
      </trkpt>
      <trkpt lat="45.76375" lon="4.85756">
        <ele>169</ele>
        <time>2025-07-17T17:39:05.253000+02:00</time>
      </trkpt>
      <trkpt lat="45.76375" lon="4.85756">
        <ele>169</ele>
        <time>2025-07-17T17:39:07.253000+02:00</time>
      </trkpt>
      <trkpt lat="45.76375" lon="4.85756">
        <ele>169</ele>
        <time>2025-07-17T17:39:09.251000+02:00</time>
      </trkpt>
      <trkpt lat="45.76375" lon="4.85756">
        <ele>169</ele>
        <time>2025-07-17T17:39:10.252000+02:00</time>
      </trkpt>
      <trkpt lat="45.76375" lon="4.85756">
        <ele>169</ele>
        <time>2025-07-17T17:39:11.252000+02:00</time>
      </trkpt>
      <trkpt lat="45.76375" lon="4.85756">
        <ele>169</ele>
        <time>2025-07-17T17:39:12.252000+02:00</time>
      </trkpt>
      <trkpt lat="45.76375" lon="4.85756">
        <ele>169</ele>
        <time>2025-07-17T17:39:23.253000+02:00</time>
      </trkpt>
      <trkpt lat="45.76375" lon="4.85756">
        <ele>169</ele>
        <time>2025-07-17T17:39:26.252000+02:00</time>
      </trkpt>
      <trkpt lat="45.76375" lon="4.85756">
        <ele>169</ele>
        <time>2025-07-17T17:39:28.251000+02:00</time>
      </trkpt>
      <trkpt lat="45.76375" lon="4.85756">
        <ele>169</ele>
        <time>2025-07-17T17:39:32.252000+02:00</time>
      </trkpt>
      <trkpt lat="45.76375" lon="4.85752">
        <ele>169</ele>
        <time>2025-07-17T17:39:34.252000+02:00</time>
      </trkpt>
      <trkpt lat="45.76374" lon="4.85744">
        <ele>168.9</ele>
        <time>2025-07-17T17:39:36.252000+02:00</time>
      </trkpt>
      <trkpt lat="45.76373" lon="4.85738">
        <ele>168.8</ele>
        <time>2025-07-17T17:39:38.252000+02:00</time>
      </trkpt>
      <trkpt lat="45.76373" lon="4.85736">
        <ele>168.7</ele>
        <time>2025-07-17T17:39:39.252000+02:00</time>
      </trkpt>
      <trkpt lat="45.76373" lon="4.85728">
        <ele>168.5</ele>
        <time>2025-07-17T17:39:41.253000+02:00</time>
      </trkpt>
      <trkpt lat="45.76373" lon="4.85717">
        <ele>168.3</ele>
        <time>2025-07-17T17:39:43.252000+02:00</time>
      </trkpt>
      <trkpt lat="45.76373" lon="4.85703">
        <ele>168.1</ele>
        <time>2025-07-17T17:39:45.252000+02:00</time>
      </trkpt>
      <trkpt lat="45.76373" lon="4.85696">
        <ele>168</ele>
        <time>2025-07-17T17:39:46.252000+02:00</time>
      </trkpt>
      <trkpt lat="45.76373" lon="4.8568">
        <ele>168</ele>
        <time>2025-07-17T17:39:48.251000+02:00</time>
      </trkpt>
      <trkpt lat="45.76374" lon="4.85673">
        <ele>168</ele>
        <time>2025-07-17T17:39:49.252000+02:00</time>
      </trkpt>
      <trkpt lat="45.76373" lon="4.85665">
        <ele>168</ele>
        <time>2025-07-17T17:39:50.252000+02:00</time>
      </trkpt>
      <trkpt lat="45.76373" lon="4.85658">
        <ele>168</ele>
        <time>2025-07-17T17:39:51.252000+02:00</time>
      </trkpt>
      <trkpt lat="45.76373" lon="4.8565">
        <ele>168</ele>
        <time>2025-07-17T17:39:52.252000+02:00</time>
      </trkpt>
      <trkpt lat="45.76372" lon="4.85635">
        <ele>168</ele>
        <time>2025-07-17T17:39:54.251000+02:00</time>
      </trkpt>
      <trkpt lat="45.76372" lon="4.85628">
        <ele>168</ele>
        <time>2025-07-17T17:39:55.251000+02:00</time>
      </trkpt>
      <trkpt lat="45.76372" lon="4.85621">
        <ele>168</ele>
        <time>2025-07-17T17:39:56.251000+02:00</time>
      </trkpt>
      <trkpt lat="45.76372" lon="4.85613">
        <ele>168</ele>
        <time>2025-07-17T17:39:57.251000+02:00</time>
      </trkpt>
      <trkpt lat="45.76372" lon="4.85606">
        <ele>168.1</ele>
        <time>2025-07-17T17:39:58.251000+02:00</time>
      </trkpt>
      <trkpt lat="45.76372" lon="4.85598">
        <ele>168.2</ele>
        <time>2025-07-17T17:39:59.251000+02:00</time>
      </trkpt>
      <trkpt lat="45.76372" lon="4.8559">
        <ele>168.3</ele>
        <time>2025-07-17T17:40:00.252000+02:00</time>
      </trkpt>
      <trkpt lat="45.76373" lon="4.85575">
        <ele>168.2</ele>
        <time>2025-07-17T17:40:02.252000+02:00</time>
      </trkpt>
      <trkpt lat="45.76374" lon="4.8556">
        <ele>167.7</ele>
        <time>2025-07-17T17:40:04.251000+02:00</time>
      </trkpt>
      <trkpt lat="45.76375" lon="4.85553">
        <ele>167.6</ele>
        <time>2025-07-17T17:40:05.252000+02:00</time>
      </trkpt>
      <trkpt lat="45.76375" lon="4.85538">
        <ele>167.8</ele>
        <time>2025-07-17T17:40:07.251000+02:00</time>
      </trkpt>
      <trkpt lat="45.76375" lon="4.85532">
        <ele>167.9</ele>
        <time>2025-07-17T17:40:08.252000+02:00</time>
      </trkpt>
      <trkpt lat="45.76374" lon="4.85525">
        <ele>168</ele>
        <time>2025-07-17T17:40:09.252000+02:00</time>
      </trkpt>
      <trkpt lat="45.76372" lon="4.85519">
        <ele>168</ele>
        <time>2025-07-17T17:40:10.252000+02:00</time>
      </trkpt>
      <trkpt lat="45.76372" lon="4.85505">
        <ele>168</ele>
        <time>2025-07-17T17:40:12.252000+02:00</time>
      </trkpt>
      <trkpt lat="45.76372" lon="4.85489">
        <ele>168</ele>
        <time>2025-07-17T17:40:14.252000+02:00</time>
      </trkpt>
      <trkpt lat="45.76371" lon="4.85475">
        <ele>168</ele>
        <time>2025-07-17T17:40:16.252000+02:00</time>
      </trkpt>
      <trkpt lat="45.7637" lon="4.8546">
        <ele>168</ele>
        <time>2025-07-17T17:40:18.251000+02:00</time>
      </trkpt>
      <trkpt lat="45.76369" lon="4.85453">
        <ele>168</ele>
        <time>2025-07-17T17:40:19.251000+02:00</time>
      </trkpt>
      <trkpt lat="45.76368" lon="4.85446">
        <ele>168</ele>
        <time>2025-07-17T17:40:20.251000+02:00</time>
      </trkpt>
      <trkpt lat="45.76368" lon="4.85439">
        <ele>168</ele>
        <time>2025-07-17T17:40:21.252000+02:00</time>
      </trkpt>
      <trkpt lat="45.76367" lon="4.85425">
        <ele>168</ele>
        <time>2025-07-17T17:40:23.252000+02:00</time>
      </trkpt>
      <trkpt lat="45.76367" lon="4.85411">
        <ele>168</ele>
        <time>2025-07-17T17:40:25.251000+02:00</time>
      </trkpt>
      <trkpt lat="45.76367" lon="4.85405">
        <ele>168</ele>
        <time>2025-07-17T17:40:26.251000+02:00</time>
      </trkpt>
      <trkpt lat="45.76367" lon="4.85392">
        <ele>168</ele>
        <time>2025-07-17T17:40:28.250000+02:00</time>
      </trkpt>
      <trkpt lat="45.76367" lon="4.85385">
        <ele>167.9</ele>
        <time>2025-07-17T17:40:29.251000+02:00</time>
      </trkpt>
      <trkpt lat="45.76367" lon="4.85378">
        <ele>167.7</ele>
        <time>2025-07-17T17:40:30.251000+02:00</time>
      </trkpt>
      <trkpt lat="45.76367" lon="4.85371">
        <ele>167.5</ele>
        <time>2025-07-17T17:40:31.251000+02:00</time>
      </trkpt>
      <trkpt lat="45.76367" lon="4.85364">
        <ele>167.3</ele>
        <time>2025-07-17T17:40:32.252000+02:00</time>
      </trkpt>
      <trkpt lat="45.76367" lon="4.85349">
        <ele>167.2</ele>
        <time>2025-07-17T17:40:34.250000+02:00</time>
      </trkpt>
      <trkpt lat="45.76368" lon="4.85342">
        <ele>167.2</ele>
        <time>2025-07-17T17:40:35.251000+02:00</time>
      </trkpt>
      <trkpt lat="45.76368" lon="4.85335">
        <ele>167.3</ele>
        <time>2025-07-17T17:40:36.251000+02:00</time>
      </trkpt>
      <trkpt lat="45.76369" lon="4.85328">
        <ele>167.2</ele>
        <time>2025-07-17T17:40:37.251000+02:00</time>
      </trkpt>
      <trkpt lat="45.76371" lon="4.85313">
        <ele>167.1</ele>
        <time>2025-07-17T17:40:39.250000+02:00</time>
      </trkpt>
      <trkpt lat="45.76371" lon="4.85306">
        <ele>167</ele>
        <time>2025-07-17T17:40:40.250000+02:00</time>
      </trkpt>
      <trkpt lat="45.76372" lon="4.85299">
        <ele>167</ele>
        <time>2025-07-17T17:40:41.250000+02:00</time>
      </trkpt>
      <trkpt lat="45.76372" lon="4.85294">
        <ele>167</ele>
        <time>2025-07-17T17:40:42.251000+02:00</time>
      </trkpt>
      <trkpt lat="45.76372" lon="4.85283">
        <ele>167</ele>
        <time>2025-07-17T17:40:44.250000+02:00</time>
      </trkpt>
      <trkpt lat="45.76373" lon="4.85279">
        <ele>167</ele>
        <time>2025-07-17T17:40:45.250000+02:00</time>
      </trkpt>
      <trkpt lat="45.76373" lon="4.85277">
        <ele>167</ele>
        <time>2025-07-17T17:40:46.250000+02:00</time>
      </trkpt>
      <trkpt lat="45.76374" lon="4.85274">
        <ele>167</ele>
        <time>2025-07-17T17:40:47.250000+02:00</time>
      </trkpt>
      <trkpt lat="45.76374" lon="4.85271">
        <ele>167</ele>
        <time>2025-07-17T17:40:48.250000+02:00</time>
      </trkpt>
      <trkpt lat="45.76374" lon="4.85266">
        <ele>167</ele>
        <time>2025-07-17T17:40:49.250000+02:00</time>
      </trkpt>
      <trkpt lat="45.76374" lon="4.85261">
        <ele>167</ele>
        <time>2025-07-17T17:40:50.250000+02:00</time>
      </trkpt>
      <trkpt lat="45.76374" lon="4.85255">
        <ele>167</ele>
        <time>2025-07-17T17:40:51.250000+02:00</time>
      </trkpt>
      <trkpt lat="45.76374" lon="4.85249">
        <ele>167</ele>
        <time>2025-07-17T17:40:52.250000+02:00</time>
      </trkpt>
      <trkpt lat="45.76373" lon="4.85244">
        <ele>167</ele>
        <time>2025-07-17T17:40:53.251000+02:00</time>
      </trkpt>
      <trkpt lat="45.76373" lon="4.85238">
        <ele>167</ele>
        <time>2025-07-17T17:40:54.251000+02:00</time>
      </trkpt>
      <trkpt lat="45.76372" lon="4.8523">
        <ele>167</ele>
        <time>2025-07-17T17:40:55.251000+02:00</time>
      </trkpt>
      <trkpt lat="45.76372" lon="4.85223">
        <ele>167</ele>
        <time>2025-07-17T17:40:56.252000+02:00</time>
      </trkpt>
      <trkpt lat="45.76372" lon="4.85207">
        <ele>167</ele>
        <time>2025-07-17T17:40:58.250000+02:00</time>
      </trkpt>
      <trkpt lat="45.76372" lon="4.85199">
        <ele>167</ele>
        <time>2025-07-17T17:40:59.251000+02:00</time>
      </trkpt>
      <trkpt lat="45.76372" lon="4.85183">
        <ele>167</ele>
        <time>2025-07-17T17:41:01.251000+02:00</time>
      </trkpt>
      <trkpt lat="45.76371" lon="4.85166">
        <ele>167</ele>
        <time>2025-07-17T17:41:03.250000+02:00</time>
      </trkpt>
      <trkpt lat="45.76371" lon="4.85157">
        <ele>167</ele>
        <time>2025-07-17T17:41:04.250000+02:00</time>
      </trkpt>
      <trkpt lat="45.7637" lon="4.85149">
        <ele>167</ele>
        <time>2025-07-17T17:41:05.251000+02:00</time>
      </trkpt>
      <trkpt lat="45.7637" lon="4.85133">
        <ele>167</ele>
        <time>2025-07-17T17:41:07.250000+02:00</time>
      </trkpt>
      <trkpt lat="45.7637" lon="4.85125">
        <ele>167</ele>
        <time>2025-07-17T17:41:08.250000+02:00</time>
      </trkpt>
      <trkpt lat="45.7637" lon="4.85117">
        <ele>167</ele>
        <time>2025-07-17T17:41:09.251000+02:00</time>
      </trkpt>
      <trkpt lat="45.76369" lon="4.851">
        <ele>167</ele>
        <time>2025-07-17T17:41:11.250000+02:00</time>
      </trkpt>
      <trkpt lat="45.76369" lon="4.85091">
        <ele>167</ele>
        <time>2025-07-17T17:41:12.251000+02:00</time>
      </trkpt>
      <trkpt lat="45.76367" lon="4.85074">
        <ele>167</ele>
        <time>2025-07-17T17:41:14.250000+02:00</time>
      </trkpt>
      <trkpt lat="45.76367" lon="4.85065">
        <ele>167</ele>
        <time>2025-07-17T17:41:15.250000+02:00</time>
      </trkpt>
      <trkpt lat="45.76367" lon="4.85057">
        <ele>167</ele>
        <time>2025-07-17T17:41:16.251000+02:00</time>
      </trkpt>
      <trkpt lat="45.76367" lon="4.8504">
        <ele>167</ele>
        <time>2025-07-17T17:41:18.250000+02:00</time>
      </trkpt>
      <trkpt lat="45.76367" lon="4.85031">
        <ele>167</ele>
        <time>2025-07-17T17:41:19.250000+02:00</time>
      </trkpt>
      <trkpt lat="45.76367" lon="4.85023">
        <ele>167</ele>
        <time>2025-07-17T17:41:20.251000+02:00</time>
      </trkpt>
      <trkpt lat="45.76367" lon="4.85009">
        <ele>167</ele>
        <time>2025-07-17T17:41:22.251000+02:00</time>
      </trkpt>
      <trkpt lat="45.76367" lon="4.84995">
        <ele>167</ele>
        <time>2025-07-17T17:41:24.251000+02:00</time>
      </trkpt>
      <trkpt lat="45.76368" lon="4.84988">
        <ele>167</ele>
        <time>2025-07-17T17:41:25.251000+02:00</time>
      </trkpt>
      <trkpt lat="45.76367" lon="4.84973">
        <ele>167</ele>
        <time>2025-07-17T17:41:27.250000+02:00</time>
      </trkpt>
      <trkpt lat="45.76368" lon="4.84966">
        <ele>167</ele>
        <time>2025-07-17T17:41:28.250000+02:00</time>
      </trkpt>
      <trkpt lat="45.76368" lon="4.84958">
        <ele>167</ele>
        <time>2025-07-17T17:41:29.250000+02:00</time>
      </trkpt>
      <trkpt lat="45.76368" lon="4.8495">
        <ele>167</ele>
        <time>2025-07-17T17:41:30.251000+02:00</time>
      </trkpt>
      <trkpt lat="45.76368" lon="4.84942">
        <ele>167</ele>
        <time>2025-07-17T17:41:31.251000+02:00</time>
      </trkpt>
      <trkpt lat="45.76368" lon="4.84935">
        <ele>167.1</ele>
        <time>2025-07-17T17:41:32.251000+02:00</time>
      </trkpt>
      <trkpt lat="45.76368" lon="4.84919">
        <ele>167.2</ele>
        <time>2025-07-17T17:41:34.250000+02:00</time>
      </trkpt>
      <trkpt lat="45.76368" lon="4.84911">
        <ele>167.2</ele>
        <time>2025-07-17T17:41:35.250000+02:00</time>
      </trkpt>
      <trkpt lat="45.76367" lon="4.84903">
        <ele>167.2</ele>
        <time>2025-07-17T17:41:36.252000+02:00</time>
      </trkpt>
      <trkpt lat="45.76367" lon="4.84887">
        <ele>167.2</ele>
        <time>2025-07-17T17:41:38.251000+02:00</time>
      </trkpt>
      <trkpt lat="45.76367" lon="4.84871">
        <ele>167.2</ele>
        <time>2025-07-17T17:41:40.250000+02:00</time>
      </trkpt>
      <trkpt lat="45.76366" lon="4.84862">
        <ele>167.2</ele>
        <time>2025-07-17T17:41:41.250000+02:00</time>
      </trkpt>
      <trkpt lat="45.76366" lon="4.84853">
        <ele>167.4</ele>
        <time>2025-07-17T17:41:42.250000+02:00</time>
      </trkpt>
      <trkpt lat="45.76366" lon="4.84844">
        <ele>167.7</ele>
        <time>2025-07-17T17:41:43.250000+02:00</time>
      </trkpt>
      <trkpt lat="45.76365" lon="4.84835">
        <ele>167.9</ele>
        <time>2025-07-17T17:41:44.251000+02:00</time>
      </trkpt>
      <trkpt lat="45.76365" lon="4.84826">
        <ele>168</ele>
        <time>2025-07-17T17:41:45.251000+02:00</time>
      </trkpt>
      <trkpt lat="45.76364" lon="4.84817">
        <ele>168</ele>
        <time>2025-07-17T17:41:46.251000+02:00</time>
      </trkpt>
      <trkpt lat="45.76366" lon="4.84799">
        <ele>168</ele>
        <time>2025-07-17T17:41:48.251000+02:00</time>
      </trkpt>
      <trkpt lat="45.76366" lon="4.8478">
        <ele>168</ele>
        <time>2025-07-17T17:41:50.251000+02:00</time>
      </trkpt>
      <trkpt lat="45.76367" lon="4.84762">
        <ele>167.5</ele>
        <time>2025-07-17T17:41:52.250000+02:00</time>
      </trkpt>
      <trkpt lat="45.76367" lon="4.84752">
        <ele>167.3</ele>
        <time>2025-07-17T17:41:53.250000+02:00</time>
      </trkpt>
      <trkpt lat="45.76367" lon="4.84743">
        <ele>167.1</ele>
        <time>2025-07-17T17:41:54.251000+02:00</time>
      </trkpt>
      <trkpt lat="45.76367" lon="4.84733">
        <ele>167.1</ele>
        <time>2025-07-17T17:41:55.251000+02:00</time>
      </trkpt>
      <trkpt lat="45.76367" lon="4.84724">
        <ele>167</ele>
        <time>2025-07-17T17:41:56.251000+02:00</time>
      </trkpt>
      <trkpt lat="45.76366" lon="4.84707">
        <ele>167</ele>
        <time>2025-07-17T17:41:58.250000+02:00</time>
      </trkpt>
      <trkpt lat="45.76366" lon="4.84698">
        <ele>167</ele>
        <time>2025-07-17T17:41:59.251000+02:00</time>
      </trkpt>
      <trkpt lat="45.76365" lon="4.84689">
        <ele>167</ele>
        <time>2025-07-17T17:42:00.251000+02:00</time>
      </trkpt>
      <trkpt lat="45.76366" lon="4.84674">
        <ele>167</ele>
        <time>2025-07-17T17:42:02.251000+02:00</time>
      </trkpt>
      <trkpt lat="45.76367" lon="4.84658">
        <ele>167</ele>
        <time>2025-07-17T17:42:04.250000+02:00</time>
      </trkpt>
      <trkpt lat="45.76367" lon="4.8465">
        <ele>167</ele>
        <time>2025-07-17T17:42:05.250000+02:00</time>
      </trkpt>
      <trkpt lat="45.76368" lon="4.84643">
        <ele>167</ele>
        <time>2025-07-17T17:42:06.251000+02:00</time>
      </trkpt>
      <trkpt lat="45.76367" lon="4.84635">
        <ele>167</ele>
        <time>2025-07-17T17:42:08.250000+02:00</time>
      </trkpt>
      <trkpt lat="45.76366" lon="4.84632">
        <ele>167</ele>
        <time>2025-07-17T17:42:09.250000+02:00</time>
      </trkpt>
      <trkpt lat="45.76365" lon="4.8463">
        <ele>167</ele>
        <time>2025-07-17T17:42:10.251000+02:00</time>
      </trkpt>
      <trkpt lat="45.76365" lon="4.84626">
        <ele>167</ele>
        <time>2025-07-17T17:42:12.250000+02:00</time>
      </trkpt>
      <trkpt lat="45.76365" lon="4.84623">
        <ele>167</ele>
        <time>2025-07-17T17:42:13.251000+02:00</time>
      </trkpt>
      <trkpt lat="45.76365" lon="4.84618">
        <ele>167</ele>
        <time>2025-07-17T17:42:15.250000+02:00</time>
      </trkpt>
      <trkpt lat="45.76365" lon="4.84615">
        <ele>167</ele>
        <time>2025-07-17T17:42:16.250000+02:00</time>
      </trkpt>
      <trkpt lat="45.76365" lon="4.84614">
        <ele>167</ele>
        <time>2025-07-17T17:42:17.251000+02:00</time>
      </trkpt>
      <trkpt lat="45.76364" lon="4.8461">
        <ele>167</ele>
        <time>2025-07-17T17:42:19.250000+02:00</time>
      </trkpt>
      <trkpt lat="45.76363" lon="4.84609">
        <ele>167</ele>
        <time>2025-07-17T17:42:20.250000+02:00</time>
      </trkpt>
      <trkpt lat="45.76363" lon="4.84608">
        <ele>167</ele>
        <time>2025-07-17T17:42:21.251000+02:00</time>
      </trkpt>
      <trkpt lat="45.76363" lon="4.84608">
        <ele>167</ele>
        <time>2025-07-17T17:42:22.251000+02:00</time>
      </trkpt>
      <trkpt lat="45.76363" lon="4.84602">
        <ele>167</ele>
        <time>2025-07-17T17:42:24.250000+02:00</time>
      </trkpt>
      <trkpt lat="45.76363" lon="4.84598">
        <ele>167</ele>
        <time>2025-07-17T17:42:25.250000+02:00</time>
      </trkpt>
      <trkpt lat="45.76363" lon="4.84592">
        <ele>167</ele>
        <time>2025-07-17T17:42:26.251000+02:00</time>
      </trkpt>
      <trkpt lat="45.76364" lon="4.8458">
        <ele>167</ele>
        <time>2025-07-17T17:42:28.250000+02:00</time>
      </trkpt>
      <trkpt lat="45.76365" lon="4.84572">
        <ele>167</ele>
        <time>2025-07-17T17:42:29.251000+02:00</time>
      </trkpt>
      <trkpt lat="45.76366" lon="4.84565">
        <ele>167</ele>
        <time>2025-07-17T17:42:30.251000+02:00</time>
      </trkpt>
      <trkpt lat="45.76366" lon="4.84557">
        <ele>167</ele>
        <time>2025-07-17T17:42:31.252000+02:00</time>
      </trkpt>
      <trkpt lat="45.76367" lon="4.84544">
        <ele>167</ele>
        <time>2025-07-17T17:42:33.250000+02:00</time>
      </trkpt>
      <trkpt lat="45.76367" lon="4.84536">
        <ele>167</ele>
        <time>2025-07-17T17:42:34.250000+02:00</time>
      </trkpt>
      <trkpt lat="45.76367" lon="4.84529">
        <ele>167</ele>
        <time>2025-07-17T17:42:35.251000+02:00</time>
      </trkpt>
      <trkpt lat="45.76364" lon="4.84516">
        <ele>167</ele>
        <time>2025-07-17T17:42:37.250000+02:00</time>
      </trkpt>
      <trkpt lat="45.76364" lon="4.84509">
        <ele>167</ele>
        <time>2025-07-17T17:42:38.251000+02:00</time>
      </trkpt>
      <trkpt lat="45.76363" lon="4.84501">
        <ele>167</ele>
        <time>2025-07-17T17:42:39.251000+02:00</time>
      </trkpt>
      <trkpt lat="45.76362" lon="4.84494">
        <ele>167</ele>
        <time>2025-07-17T17:42:40.251000+02:00</time>
      </trkpt>
      <trkpt lat="45.76361" lon="4.84487">
        <ele>167</ele>
        <time>2025-07-17T17:42:41.252000+02:00</time>
      </trkpt>
      <trkpt lat="45.76362" lon="4.84472">
        <ele>167</ele>
        <time>2025-07-17T17:42:43.251000+02:00</time>
      </trkpt>
      <trkpt lat="45.76362" lon="4.84463">
        <ele>167</ele>
        <time>2025-07-17T17:42:44.251000+02:00</time>
      </trkpt>
      <trkpt lat="45.76363" lon="4.84454">
        <ele>167</ele>
        <time>2025-07-17T17:42:45.251000+02:00</time>
      </trkpt>
      <trkpt lat="45.76364" lon="4.84435">
        <ele>167</ele>
        <time>2025-07-17T17:42:47.250000+02:00</time>
      </trkpt>
      <trkpt lat="45.76364" lon="4.84425">
        <ele>167</ele>
        <time>2025-07-17T17:42:48.250000+02:00</time>
      </trkpt>
      <trkpt lat="45.76364" lon="4.84416">
        <ele>167</ele>
        <time>2025-07-17T17:42:49.250000+02:00</time>
      </trkpt>
      <trkpt lat="45.76365" lon="4.84406">
        <ele>167</ele>
        <time>2025-07-17T17:42:50.250000+02:00</time>
      </trkpt>
      <trkpt lat="45.76364" lon="4.84397">
        <ele>167</ele>
        <time>2025-07-17T17:42:51.250000+02:00</time>
      </trkpt>
      <trkpt lat="45.76364" lon="4.84388">
        <ele>167</ele>
        <time>2025-07-17T17:42:52.251000+02:00</time>
      </trkpt>
      <trkpt lat="45.76363" lon="4.8437">
        <ele>167.7</ele>
        <time>2025-07-17T17:42:54.249000+02:00</time>
      </trkpt>
      <trkpt lat="45.76364" lon="4.84361">
        <ele>168</ele>
        <time>2025-07-17T17:42:55.250000+02:00</time>
      </trkpt>
      <trkpt lat="45.76364" lon="4.84343">
        <ele>168</ele>
        <time>2025-07-17T17:42:57.249000+02:00</time>
      </trkpt>
      <trkpt lat="45.76364" lon="4.84333">
        <ele>168</ele>
        <time>2025-07-17T17:42:58.250000+02:00</time>
      </trkpt>
      <trkpt lat="45.76365" lon="4.84323">
        <ele>168</ele>
        <time>2025-07-17T17:42:59.250000+02:00</time>
      </trkpt>
      <trkpt lat="45.76365" lon="4.84314">
        <ele>168</ele>
        <time>2025-07-17T17:43:00.251000+02:00</time>
      </trkpt>
      <trkpt lat="45.76364" lon="4.84295">
        <ele>168</ele>
        <time>2025-07-17T17:43:02.250000+02:00</time>
      </trkpt>
      <trkpt lat="45.76364" lon="4.84286">
        <ele>167.9</ele>
        <time>2025-07-17T17:43:03.251000+02:00</time>
      </trkpt>
      <trkpt lat="45.76363" lon="4.84267">
        <ele>168</ele>
        <time>2025-07-17T17:43:05.251000+02:00</time>
      </trkpt>
      <trkpt lat="45.76362" lon="4.84258">
        <ele>168</ele>
        <time>2025-07-17T17:43:06.251000+02:00</time>
      </trkpt>
      <trkpt lat="45.76362" lon="4.84249">
        <ele>168</ele>
        <time>2025-07-17T17:43:07.251000+02:00</time>
      </trkpt>
      <trkpt lat="45.76361" lon="4.8424">
        <ele>168</ele>
        <time>2025-07-17T17:43:08.251000+02:00</time>
      </trkpt>
      <trkpt lat="45.7636" lon="4.84222">
        <ele>168</ele>
        <time>2025-07-17T17:43:10.251000+02:00</time>
      </trkpt>
      <trkpt lat="45.76361" lon="4.84212">
        <ele>168.4</ele>
        <time>2025-07-17T17:43:11.251000+02:00</time>
      </trkpt>
      <trkpt lat="45.76361" lon="4.84203">
        <ele>168.7</ele>
        <time>2025-07-17T17:43:12.251000+02:00</time>
      </trkpt>
      <trkpt lat="45.76361" lon="4.84195">
        <ele>169</ele>
        <time>2025-07-17T17:43:13.251000+02:00</time>
      </trkpt>
      <trkpt lat="45.76361" lon="4.84186">
        <ele>169</ele>
        <time>2025-07-17T17:43:14.252000+02:00</time>
      </trkpt>
      <trkpt lat="45.7636" lon="4.84169">
        <ele>169</ele>
        <time>2025-07-17T17:43:16.250000+02:00</time>
      </trkpt>
      <trkpt lat="45.7636" lon="4.8416">
        <ele>169</ele>
        <time>2025-07-17T17:43:17.250000+02:00</time>
      </trkpt>
      <trkpt lat="45.7636" lon="4.84151">
        <ele>169</ele>
        <time>2025-07-17T17:43:18.251000+02:00</time>
      </trkpt>
      <trkpt lat="45.7636" lon="4.84142">
        <ele>169</ele>
        <time>2025-07-17T17:43:19.251000+02:00</time>
      </trkpt>
      <trkpt lat="45.76361" lon="4.84124">
        <ele>167.9</ele>
        <time>2025-07-17T17:43:21.251000+02:00</time>
      </trkpt>
      <trkpt lat="45.76361" lon="4.84117">
        <ele>167.4</ele>
        <time>2025-07-17T17:43:22.252000+02:00</time>
      </trkpt>
      <trkpt lat="45.76363" lon="4.84107">
        <ele>166.3</ele>
        <time>2025-07-17T17:43:24.250000+02:00</time>
      </trkpt>
      <trkpt lat="45.76364" lon="4.84095">
        <ele>164.5</ele>
        <time>2025-07-17T17:43:26.251000+02:00</time>
      </trkpt>
      <trkpt lat="45.76365" lon="4.8408">
        <ele>162.9</ele>
        <time>2025-07-17T17:43:28.251000+02:00</time>
      </trkpt>
      <trkpt lat="45.76365" lon="4.84064">
        <ele>162.3</ele>
        <time>2025-07-17T17:43:30.250000+02:00</time>
      </trkpt>
      <trkpt lat="45.76365" lon="4.84056">
        <ele>162</ele>
        <time>2025-07-17T17:43:31.251000+02:00</time>
      </trkpt>
      <trkpt lat="45.76365" lon="4.84041">
        <ele>162</ele>
        <time>2025-07-17T17:43:33.249000+02:00</time>
      </trkpt>
      <trkpt lat="45.76364" lon="4.84033">
        <ele>162</ele>
        <time>2025-07-17T17:43:34.249000+02:00</time>
      </trkpt>
      <trkpt lat="45.76364" lon="4.84025">
        <ele>162</ele>
        <time>2025-07-17T17:43:35.251000+02:00</time>
      </trkpt>
      <trkpt lat="45.76365" lon="4.84016">
        <ele>162</ele>
        <time>2025-07-17T17:43:36.251000+02:00</time>
      </trkpt>
      <trkpt lat="45.76364" lon="4.83999">
        <ele>162</ele>
        <time>2025-07-17T17:43:38.251000+02:00</time>
      </trkpt>
      <trkpt lat="45.76364" lon="4.83991">
        <ele>162</ele>
        <time>2025-07-17T17:43:39.251000+02:00</time>
      </trkpt>
      <trkpt lat="45.76364" lon="4.83974">
        <ele>162</ele>
        <time>2025-07-17T17:43:41.250000+02:00</time>
      </trkpt>
      <trkpt lat="45.76363" lon="4.83965">
        <ele>162</ele>
        <time>2025-07-17T17:43:42.251000+02:00</time>
      </trkpt>
      <trkpt lat="45.76364" lon="4.83946">
        <ele>162</ele>
        <time>2025-07-17T17:43:44.251000+02:00</time>
      </trkpt>
      <trkpt lat="45.76364" lon="4.83937">
        <ele>162</ele>
        <time>2025-07-17T17:43:45.251000+02:00</time>
      </trkpt>
      <trkpt lat="45.76364" lon="4.83928">
        <ele>162</ele>
        <time>2025-07-17T17:43:46.251000+02:00</time>
      </trkpt>
      <trkpt lat="45.76363" lon="4.83919">
        <ele>162</ele>
        <time>2025-07-17T17:43:47.251000+02:00</time>
      </trkpt>
      <trkpt lat="45.76363" lon="4.83901">
        <ele>162.5</ele>
        <time>2025-07-17T17:43:49.250000+02:00</time>
      </trkpt>
      <trkpt lat="45.76363" lon="4.83892">
        <ele>162.8</ele>
        <time>2025-07-17T17:43:50.251000+02:00</time>
      </trkpt>
      <trkpt lat="45.76362" lon="4.83884">
        <ele>164.2</ele>
        <time>2025-07-17T17:43:51.251000+02:00</time>
      </trkpt>
      <trkpt lat="45.76362" lon="4.83878">
        <ele>165.8</ele>
        <time>2025-07-17T17:43:52.251000+02:00</time>
      </trkpt>
      <trkpt lat="45.76364" lon="4.83867">
        <ele>168.3</ele>
        <time>2025-07-17T17:43:54.251000+02:00</time>
      </trkpt>
      <trkpt lat="45.76365" lon="4.83859">
        <ele>169.7</ele>
        <time>2025-07-17T17:43:56.251000+02:00</time>
      </trkpt>
      <trkpt lat="45.76365" lon="4.83848">
        <ele>169.3</ele>
        <time>2025-07-17T17:43:58.250000+02:00</time>
      </trkpt>
      <trkpt lat="45.76364" lon="4.83833">
        <ele>168.9</ele>
        <time>2025-07-17T17:44:00.251000+02:00</time>
      </trkpt>
      <trkpt lat="45.76363" lon="4.83815">
        <ele>168.9</ele>
        <time>2025-07-17T17:44:02.250000+02:00</time>
      </trkpt>
      <trkpt lat="45.76362" lon="4.83806">
        <ele>169</ele>
        <time>2025-07-17T17:44:03.252000+02:00</time>
      </trkpt>
      <trkpt lat="45.76362" lon="4.83787">
        <ele>168.3</ele>
        <time>2025-07-17T17:44:05.249000+02:00</time>
      </trkpt>
      <trkpt lat="45.76362" lon="4.83778">
        <ele>168</ele>
        <time>2025-07-17T17:44:06.251000+02:00</time>
      </trkpt>
      <trkpt lat="45.76362" lon="4.83758">
        <ele>168</ele>
        <time>2025-07-17T17:44:08.250000+02:00</time>
      </trkpt>
      <trkpt lat="45.76362" lon="4.83749">
        <ele>168</ele>
        <time>2025-07-17T17:44:09.250000+02:00</time>
      </trkpt>
      <trkpt lat="45.76364" lon="4.8374">
        <ele>168</ele>
        <time>2025-07-17T17:44:10.250000+02:00</time>
      </trkpt>
      <trkpt lat="45.76364" lon="4.83733">
        <ele>168</ele>
        <time>2025-07-17T17:44:11.251000+02:00</time>
      </trkpt>
      <trkpt lat="45.76364" lon="4.83727">
        <ele>168</ele>
        <time>2025-07-17T17:44:12.251000+02:00</time>
      </trkpt>
      <trkpt lat="45.76361" lon="4.83715">
        <ele>168</ele>
        <time>2025-07-17T17:44:14.249000+02:00</time>
      </trkpt>
      <trkpt lat="45.76361" lon="4.8371">
        <ele>168</ele>
        <time>2025-07-17T17:44:15.249000+02:00</time>
      </trkpt>
      <trkpt lat="45.7636" lon="4.83704">
        <ele>168</ele>
        <time>2025-07-17T17:44:16.250000+02:00</time>
      </trkpt>
      <trkpt lat="45.76358" lon="4.83691">
        <ele>167.9</ele>
        <time>2025-07-17T17:44:18.252000+02:00</time>
      </trkpt>
      <trkpt lat="45.76354" lon="4.83678">
        <ele>167.8</ele>
        <time>2025-07-17T17:44:20.249000+02:00</time>
      </trkpt>
      <trkpt lat="45.76352" lon="4.8367">
        <ele>167.7</ele>
        <time>2025-07-17T17:44:21.249000+02:00</time>
      </trkpt>
      <trkpt lat="45.76352" lon="4.83662">
        <ele>167.7</ele>
        <time>2025-07-17T17:44:22.249000+02:00</time>
      </trkpt>
      <trkpt lat="45.76352" lon="4.83655">
        <ele>167.8</ele>
        <time>2025-07-17T17:44:23.249000+02:00</time>
      </trkpt>
      <trkpt lat="45.76352" lon="4.83646">
        <ele>167.9</ele>
        <time>2025-07-17T17:44:24.249000+02:00</time>
      </trkpt>
      <trkpt lat="45.76352" lon="4.83638">
        <ele>168</ele>
        <time>2025-07-17T17:44:25.249000+02:00</time>
      </trkpt>
      <trkpt lat="45.76352" lon="4.8363">
        <ele>168</ele>
        <time>2025-07-17T17:44:26.249000+02:00</time>
      </trkpt>
      <trkpt lat="45.76352" lon="4.83622">
        <ele>168</ele>
        <time>2025-07-17T17:44:27.251000+02:00</time>
      </trkpt>
      <trkpt lat="45.76352" lon="4.83615">
        <ele>168</ele>
        <time>2025-07-17T17:44:28.251000+02:00</time>
      </trkpt>
      <trkpt lat="45.7635" lon="4.83602">
        <ele>167.9</ele>
        <time>2025-07-17T17:44:30.252000+02:00</time>
      </trkpt>
      <trkpt lat="45.76347" lon="4.83592">
        <ele>167.7</ele>
        <time>2025-07-17T17:44:32.250000+02:00</time>
      </trkpt>
      <trkpt lat="45.76347" lon="4.83588">
        <ele>167.6</ele>
        <time>2025-07-17T17:44:33.250000+02:00</time>
      </trkpt>
      <trkpt lat="45.76346" lon="4.83578">
        <ele>167.5</ele>
        <time>2025-07-17T17:44:35.250000+02:00</time>
      </trkpt>
      <trkpt lat="45.76348" lon="4.83564">
        <ele>167.5</ele>
        <time>2025-07-17T17:44:37.251000+02:00</time>
      </trkpt>
      <trkpt lat="45.76348" lon="4.83545">
        <ele>167.5</ele>
        <time>2025-07-17T17:44:39.250000+02:00</time>
      </trkpt>
      <trkpt lat="45.76348" lon="4.83536">
        <ele>167.5</ele>
        <time>2025-07-17T17:44:40.251000+02:00</time>
      </trkpt>
      <trkpt lat="45.76346" lon="4.83516">
        <ele>167.5</ele>
        <time>2025-07-17T17:44:42.251000+02:00</time>
      </trkpt>
      <trkpt lat="45.76346" lon="4.8351">
        <ele>167.5</ele>
        <time>2025-07-17T17:44:43.251000+02:00</time>
      </trkpt>
      <trkpt lat="45.76345" lon="4.83506">
        <ele>167.4</ele>
        <time>2025-07-17T17:44:44.251000+02:00</time>
      </trkpt>
      <trkpt lat="45.76345" lon="4.83499">
        <ele>167.4</ele>
        <time>2025-07-17T17:44:46.250000+02:00</time>
      </trkpt>
      <trkpt lat="45.76346" lon="4.83494">
        <ele>167.5</ele>
        <time>2025-07-17T17:44:47.252000+02:00</time>
      </trkpt>
      <trkpt lat="45.76346" lon="4.83481">
        <ele>167.4</ele>
        <time>2025-07-17T17:44:49.251000+02:00</time>
      </trkpt>
      <trkpt lat="45.76345" lon="4.83467">
        <ele>167.5</ele>
        <time>2025-07-17T17:44:51.250000+02:00</time>
      </trkpt>
      <trkpt lat="45.76344" lon="4.83452">
        <ele>167.8</ele>
        <time>2025-07-17T17:44:53.249000+02:00</time>
      </trkpt>
      <trkpt lat="45.76344" lon="4.83445">
        <ele>168</ele>
        <time>2025-07-17T17:44:54.250000+02:00</time>
      </trkpt>
      <trkpt lat="45.76342" lon="4.83438">
        <ele>168</ele>
        <time>2025-07-17T17:44:56.249000+02:00</time>
      </trkpt>
      <trkpt lat="45.76341" lon="4.83436">
        <ele>168</ele>
        <time>2025-07-17T17:44:57.250000+02:00</time>
      </trkpt>
      <trkpt lat="45.76341" lon="4.83436">
        <ele>168</ele>
        <time>2025-07-17T17:44:58.250000+02:00</time>
      </trkpt>
      <trkpt lat="45.76341" lon="4.83437">
        <ele>168</ele>
        <time>2025-07-17T17:45:00.249000+02:00</time>
      </trkpt>
      <trkpt lat="45.76341" lon="4.83437">
        <ele>168</ele>
        <time>2025-07-17T17:45:01.249000+02:00</time>
      </trkpt>
      <trkpt lat="45.76341" lon="4.83437">
        <ele>168</ele>
        <time>2025-07-17T17:45:02.250000+02:00</time>
      </trkpt>
      <trkpt lat="45.76341" lon="4.83436">
        <ele>168</ele>
        <time>2025-07-17T17:45:03.250000+02:00</time>
      </trkpt>
      <trkpt lat="45.7634" lon="4.83431">
        <ele>168</ele>
        <time>2025-07-17T17:45:05.249000+02:00</time>
      </trkpt>
      <trkpt lat="45.7634" lon="4.83427">
        <ele>168</ele>
        <time>2025-07-17T17:45:06.249000+02:00</time>
      </trkpt>
      <trkpt lat="45.7634" lon="4.83422">
        <ele>168</ele>
        <time>2025-07-17T17:45:07.249000+02:00</time>
      </trkpt>
      <trkpt lat="45.76339" lon="4.83415">
        <ele>168</ele>
        <time>2025-07-17T17:45:08.249000+02:00</time>
      </trkpt>
      <trkpt lat="45.76339" lon="4.83407">
        <ele>167.9</ele>
        <time>2025-07-17T17:45:09.249000+02:00</time>
      </trkpt>
      <trkpt lat="45.76338" lon="4.83399">
        <ele>167.9</ele>
        <time>2025-07-17T17:45:10.249000+02:00</time>
      </trkpt>
      <trkpt lat="45.76338" lon="4.83389">
        <ele>167.8</ele>
        <time>2025-07-17T17:45:11.249000+02:00</time>
      </trkpt>
      <trkpt lat="45.76337" lon="4.8338">
        <ele>167.6</ele>
        <time>2025-07-17T17:45:12.249000+02:00</time>
      </trkpt>
      <trkpt lat="45.76336" lon="4.8337">
        <ele>167.3</ele>
        <time>2025-07-17T17:45:13.250000+02:00</time>
      </trkpt>
      <trkpt lat="45.76336" lon="4.83361">
        <ele>167</ele>
        <time>2025-07-17T17:45:14.250000+02:00</time>
      </trkpt>
      <trkpt lat="45.76335" lon="4.83352">
        <ele>167</ele>
        <time>2025-07-17T17:45:15.251000+02:00</time>
      </trkpt>
      <trkpt lat="45.76335" lon="4.8334">
        <ele>167</ele>
        <time>2025-07-17T17:45:17.249000+02:00</time>
      </trkpt>
      <trkpt lat="45.76335" lon="4.83337">
        <ele>167</ele>
        <time>2025-07-17T17:45:18.249000+02:00</time>
      </trkpt>
      <trkpt lat="45.76335" lon="4.83335">
        <ele>167</ele>
        <time>2025-07-17T17:45:19.249000+02:00</time>
      </trkpt>
      <trkpt lat="45.76335" lon="4.83333">
        <ele>167</ele>
        <time>2025-07-17T17:45:20.250000+02:00</time>
      </trkpt>
      <trkpt lat="45.76334" lon="4.83331">
        <ele>167</ele>
        <time>2025-07-17T17:45:22.250000+02:00</time>
      </trkpt>
      <trkpt lat="45.76334" lon="4.83322">
        <ele>167</ele>
        <time>2025-07-17T17:45:24.249000+02:00</time>
      </trkpt>
      <trkpt lat="45.76334" lon="4.83318">
        <ele>167</ele>
        <time>2025-07-17T17:45:25.249000+02:00</time>
      </trkpt>
      <trkpt lat="45.76334" lon="4.83312">
        <ele>167</ele>
        <time>2025-07-17T17:45:26.250000+02:00</time>
      </trkpt>
      <trkpt lat="45.76333" lon="4.83306">
        <ele>167</ele>
        <time>2025-07-17T17:45:27.250000+02:00</time>
      </trkpt>
      <trkpt lat="45.76333" lon="4.83296">
        <ele>167</ele>
        <time>2025-07-17T17:45:29.249000+02:00</time>
      </trkpt>
      <trkpt lat="45.76333" lon="4.83293">
        <ele>167</ele>
        <time>2025-07-17T17:45:30.250000+02:00</time>
      </trkpt>
      <trkpt lat="45.76332" lon="4.83287">
        <ele>167</ele>
        <time>2025-07-17T17:45:32.249000+02:00</time>
      </trkpt>
      <trkpt lat="45.76332" lon="4.83285">
        <ele>167</ele>
        <time>2025-07-17T17:45:33.249000+02:00</time>
      </trkpt>
      <trkpt lat="45.76332" lon="4.83284">
        <ele>167</ele>
        <time>2025-07-17T17:45:34.249000+02:00</time>
      </trkpt>
      <trkpt lat="45.76332" lon="4.83284">
        <ele>167</ele>
        <time>2025-07-17T17:45:35.250000+02:00</time>
      </trkpt>
      <trkpt lat="45.76332" lon="4.83282">
        <ele>167</ele>
        <time>2025-07-17T17:45:36.250000+02:00</time>
      </trkpt>
      <trkpt lat="45.76331" lon="4.8328">
        <ele>167</ele>
        <time>2025-07-17T17:45:37.250000+02:00</time>
      </trkpt>
      <trkpt lat="45.76331" lon="4.83274">
        <ele>167</ele>
        <time>2025-07-17T17:45:39.249000+02:00</time>
      </trkpt>
      <trkpt lat="45.76331" lon="4.83271">
        <ele>167</ele>
        <time>2025-07-17T17:45:40.249000+02:00</time>
      </trkpt>
      <trkpt lat="45.76331" lon="4.83266">
        <ele>167</ele>
        <time>2025-07-17T17:45:41.249000+02:00</time>
      </trkpt>
      <trkpt lat="45.76331" lon="4.8326">
        <ele>167</ele>
        <time>2025-07-17T17:45:42.249000+02:00</time>
      </trkpt>
      <trkpt lat="45.7633" lon="4.83254">
        <ele>167</ele>
        <time>2025-07-17T17:45:43.250000+02:00</time>
      </trkpt>
      <trkpt lat="45.7633" lon="4.83247">
        <ele>167</ele>
        <time>2025-07-17T17:45:44.250000+02:00</time>
      </trkpt>
      <trkpt lat="45.7633" lon="4.83238">
        <ele>167</ele>
        <time>2025-07-17T17:45:45.252000+02:00</time>
      </trkpt>
      <trkpt lat="45.7633" lon="4.83221">
        <ele>167</ele>
        <time>2025-07-17T17:45:47.251000+02:00</time>
      </trkpt>
      <trkpt lat="45.7633" lon="4.83203">
        <ele>167</ele>
        <time>2025-07-17T17:45:49.249000+02:00</time>
      </trkpt>
      <trkpt lat="45.76329" lon="4.83194">
        <ele>167</ele>
        <time>2025-07-17T17:45:50.250000+02:00</time>
      </trkpt>
      <trkpt lat="45.76329" lon="4.83185">
        <ele>167.3</ele>
        <time>2025-07-17T17:45:51.250000+02:00</time>
      </trkpt>
      <trkpt lat="45.76328" lon="4.83177">
        <ele>167.6</ele>
        <time>2025-07-17T17:45:52.250000+02:00</time>
      </trkpt>
      <trkpt lat="45.7633" lon="4.8316">
        <ele>167</ele>
        <time>2025-07-17T17:45:54.249000+02:00</time>
      </trkpt>
      <trkpt lat="45.7633" lon="4.83152">
        <ele>165.9</ele>
        <time>2025-07-17T17:45:55.250000+02:00</time>
      </trkpt>
      <trkpt lat="45.76331" lon="4.83144">
        <ele>164.7</ele>
        <time>2025-07-17T17:45:56.250000+02:00</time>
      </trkpt>
      <trkpt lat="45.76331" lon="4.83136">
        <ele>163.8</ele>
        <time>2025-07-17T17:45:57.251000+02:00</time>
      </trkpt>
      <trkpt lat="45.76332" lon="4.8312">
        <ele>162.7</ele>
        <time>2025-07-17T17:45:59.249000+02:00</time>
      </trkpt>
      <trkpt lat="45.76332" lon="4.83113">
        <ele>162.1</ele>
        <time>2025-07-17T17:46:00.249000+02:00</time>
      </trkpt>
      <trkpt lat="45.76332" lon="4.83105">
        <ele>162</ele>
        <time>2025-07-17T17:46:01.249000+02:00</time>
      </trkpt>
      <trkpt lat="45.76333" lon="4.83098">
        <ele>162</ele>
        <time>2025-07-17T17:46:02.250000+02:00</time>
      </trkpt>
      <trkpt lat="45.76334" lon="4.83082">
        <ele>162</ele>
        <time>2025-07-17T17:46:04.249000+02:00</time>
      </trkpt>
      <trkpt lat="45.76334" lon="4.83075">
        <ele>162</ele>
        <time>2025-07-17T17:46:05.249000+02:00</time>
      </trkpt>
      <trkpt lat="45.76334" lon="4.83061">
        <ele>162</ele>
        <time>2025-07-17T17:46:07.249000+02:00</time>
      </trkpt>
      <trkpt lat="45.76335" lon="4.83054">
        <ele>162</ele>
        <time>2025-07-17T17:46:08.249000+02:00</time>
      </trkpt>
      <trkpt lat="45.76334" lon="4.83046">
        <ele>162</ele>
        <time>2025-07-17T17:46:09.250000+02:00</time>
      </trkpt>
      <trkpt lat="45.76335" lon="4.83032">
        <ele>162</ele>
        <time>2025-07-17T17:46:11.249000+02:00</time>
      </trkpt>
      <trkpt lat="45.76335" lon="4.83025">
        <ele>162</ele>
        <time>2025-07-17T17:46:12.250000+02:00</time>
      </trkpt>
      <trkpt lat="45.76335" lon="4.83017">
        <ele>162</ele>
        <time>2025-07-17T17:46:13.250000+02:00</time>
      </trkpt>
      <trkpt lat="45.76336" lon="4.83">
        <ele>162</ele>
        <time>2025-07-17T17:46:15.249000+02:00</time>
      </trkpt>
      <trkpt lat="45.76336" lon="4.82984">
        <ele>164.6</ele>
        <time>2025-07-17T17:46:17.249000+02:00</time>
      </trkpt>
      <trkpt lat="45.76337" lon="4.82977">
        <ele>165.9</ele>
        <time>2025-07-17T17:46:18.250000+02:00</time>
      </trkpt>
      <trkpt lat="45.76337" lon="4.82965">
        <ele>167.2</ele>
        <time>2025-07-17T17:46:20.248000+02:00</time>
      </trkpt>
      <trkpt lat="45.76337" lon="4.82961">
        <ele>167.5</ele>
        <time>2025-07-17T17:46:21.250000+02:00</time>
      </trkpt>
      <trkpt lat="45.76334" lon="4.82954">
        <ele>168.3</ele>
        <time>2025-07-17T17:46:23.253000+02:00</time>
      </trkpt>
      <trkpt lat="45.76328" lon="4.82952">
        <ele>168.1</ele>
        <time>2025-07-17T17:46:25.249000+02:00</time>
      </trkpt>
      <trkpt lat="45.76322" lon="4.82951">
        <ele>167.9</ele>
        <time>2025-07-17T17:46:27.250000+02:00</time>
      </trkpt>
      <trkpt lat="45.76319" lon="4.82947">
        <ele>168.2</ele>
        <time>2025-07-17T17:46:29.250000+02:00</time>
      </trkpt>
      <trkpt lat="45.76317" lon="4.82946">
        <ele>168.3</ele>
        <time>2025-07-17T17:46:31.250000+02:00</time>
      </trkpt>
      <trkpt lat="45.76316" lon="4.82944">
        <ele>168.3</ele>
        <time>2025-07-17T17:46:33.251000+02:00</time>
      </trkpt>
      <trkpt lat="45.76315" lon="4.82944">
        <ele>168.2</ele>
        <time>2025-07-17T17:46:35.249000+02:00</time>
      </trkpt>
      <trkpt lat="45.76314" lon="4.82944">
        <ele>168.2</ele>
        <time>2025-07-17T17:46:36.249000+02:00</time>
      </trkpt>
      <trkpt lat="45.76314" lon="4.82944">
        <ele>168.2</ele>
        <time>2025-07-17T17:46:38.249000+02:00</time>
      </trkpt>
      <trkpt lat="45.76313" lon="4.82943">
        <ele>168.1</ele>
        <time>2025-07-17T17:46:39.249000+02:00</time>
      </trkpt>
      <trkpt lat="45.76312" lon="4.82942">
        <ele>168</ele>
        <time>2025-07-17T17:46:40.250000+02:00</time>
      </trkpt>
      <trkpt lat="45.76309" lon="4.82941">
        <ele>167.8</ele>
        <time>2025-07-17T17:46:41.250000+02:00</time>
      </trkpt>
      <trkpt lat="45.76302" lon="4.8294">
        <ele>167.5</ele>
        <time>2025-07-17T17:46:43.250000+02:00</time>
      </trkpt>
      <trkpt lat="45.76293" lon="4.82939">
        <ele>167.5</ele>
        <time>2025-07-17T17:46:45.248000+02:00</time>
      </trkpt>
      <trkpt lat="45.76288" lon="4.82937">
        <ele>167.4</ele>
        <time>2025-07-17T17:46:46.249000+02:00</time>
      </trkpt>
      <trkpt lat="45.76278" lon="4.82933">
        <ele>167.2</ele>
        <time>2025-07-17T17:46:48.250000+02:00</time>
      </trkpt>
      <trkpt lat="45.76267" lon="4.82929">
        <ele>167.1</ele>
        <time>2025-07-17T17:46:50.249000+02:00</time>
      </trkpt>
      <trkpt lat="45.76261" lon="4.82927">
        <ele>167.1</ele>
        <time>2025-07-17T17:46:51.250000+02:00</time>
      </trkpt>
      <trkpt lat="45.76249" lon="4.82922">
        <ele>167.2</ele>
        <time>2025-07-17T17:46:53.248000+02:00</time>
      </trkpt>
      <trkpt lat="45.76243" lon="4.8292">
        <ele>167.3</ele>
        <time>2025-07-17T17:46:54.250000+02:00</time>
      </trkpt>
      <trkpt lat="45.76232" lon="4.82914">
        <ele>167.5</ele>
        <time>2025-07-17T17:46:56.248000+02:00</time>
      </trkpt>
      <trkpt lat="45.76227" lon="4.82911">
        <ele>167.5</ele>
        <time>2025-07-17T17:46:57.249000+02:00</time>
      </trkpt>
      <trkpt lat="45.76223" lon="4.82908">
        <ele>167.4</ele>
        <time>2025-07-17T17:46:58.249000+02:00</time>
      </trkpt>
      <trkpt lat="45.76218" lon="4.82905">
        <ele>167.2</ele>
        <time>2025-07-17T17:46:59.249000+02:00</time>
      </trkpt>
      <trkpt lat="45.76213" lon="4.82902">
        <ele>167.1</ele>
        <time>2025-07-17T17:47:00.249000+02:00</time>
      </trkpt>
      <trkpt lat="45.76209" lon="4.82899">
        <ele>167</ele>
        <time>2025-07-17T17:47:01.250000+02:00</time>
      </trkpt>
      <trkpt lat="45.76204" lon="4.82896">
        <ele>167</ele>
        <time>2025-07-17T17:47:02.250000+02:00</time>
      </trkpt>
      <trkpt lat="45.76197" lon="4.82892">
        <ele>167</ele>
        <time>2025-07-17T17:47:04.248000+02:00</time>
      </trkpt>
      <trkpt lat="45.76195" lon="4.8289">
        <ele>167</ele>
        <time>2025-07-17T17:47:05.249000+02:00</time>
      </trkpt>
      <trkpt lat="45.76194" lon="4.8289">
        <ele>167</ele>
        <time>2025-07-17T17:47:06.249000+02:00</time>
      </trkpt>
      <trkpt lat="45.76193" lon="4.8289">
        <ele>167</ele>
        <time>2025-07-17T17:47:07.249000+02:00</time>
      </trkpt>
      <trkpt lat="45.76193" lon="4.8289">
        <ele>167</ele>
        <time>2025-07-17T17:47:08.249000+02:00</time>
      </trkpt>
      <trkpt lat="45.76193" lon="4.82891">
        <ele>167.1</ele>
        <time>2025-07-17T17:47:10.249000+02:00</time>
      </trkpt>
      <trkpt lat="45.76193" lon="4.82891">
        <ele>167.1</ele>
        <time>2025-07-17T17:47:11.249000+02:00</time>
      </trkpt>
      <trkpt lat="45.76192" lon="4.82891">
        <ele>167.1</ele>
        <time>2025-07-17T17:47:12.249000+02:00</time>
      </trkpt>
      <trkpt lat="45.76188" lon="4.82889">
        <ele>167</ele>
        <time>2025-07-17T17:47:14.249000+02:00</time>
      </trkpt>
      <trkpt lat="45.76185" lon="4.82888">
        <ele>167</ele>
        <time>2025-07-17T17:47:15.250000+02:00</time>
      </trkpt>
      <trkpt lat="45.7618" lon="4.82885">
        <ele>167</ele>
        <time>2025-07-17T17:47:17.248000+02:00</time>
      </trkpt>
      <trkpt lat="45.76176" lon="4.82884">
        <ele>167</ele>
        <time>2025-07-17T17:47:18.249000+02:00</time>
      </trkpt>
      <trkpt lat="45.76172" lon="4.82883">
        <ele>167</ele>
        <time>2025-07-17T17:47:19.249000+02:00</time>
      </trkpt>
      <trkpt lat="45.76168" lon="4.82882">
        <ele>167</ele>
        <time>2025-07-17T17:47:20.249000+02:00</time>
      </trkpt>
      <trkpt lat="45.76164" lon="4.82881">
        <ele>167</ele>
        <time>2025-07-17T17:47:21.249000+02:00</time>
      </trkpt>
      <trkpt lat="45.76156" lon="4.82878">
        <ele>167</ele>
        <time>2025-07-17T17:47:23.248000+02:00</time>
      </trkpt>
      <trkpt lat="45.76151" lon="4.82876">
        <ele>167</ele>
        <time>2025-07-17T17:47:24.248000+02:00</time>
      </trkpt>
      <trkpt lat="45.76147" lon="4.82875">
        <ele>167</ele>
        <time>2025-07-17T17:47:25.249000+02:00</time>
      </trkpt>
      <trkpt lat="45.76143" lon="4.82873">
        <ele>167</ele>
        <time>2025-07-17T17:47:26.249000+02:00</time>
      </trkpt>
      <trkpt lat="45.76139" lon="4.82872">
        <ele>167</ele>
        <time>2025-07-17T17:47:27.249000+02:00</time>
      </trkpt>
      <trkpt lat="45.76137" lon="4.82871">
        <ele>167</ele>
        <time>2025-07-17T17:47:28.250000+02:00</time>
      </trkpt>
      <trkpt lat="45.76135" lon="4.82869">
        <ele>167</ele>
        <time>2025-07-17T17:47:30.248000+02:00</time>
      </trkpt>
      <trkpt lat="45.76135" lon="4.82869">
        <ele>167</ele>
        <time>2025-07-17T17:47:31.248000+02:00</time>
      </trkpt>
      <trkpt lat="45.76135" lon="4.82869">
        <ele>167</ele>
        <time>2025-07-17T17:47:32.250000+02:00</time>
      </trkpt>
      <trkpt lat="45.76135" lon="4.82869">
        <ele>167</ele>
        <time>2025-07-17T17:47:33.250000+02:00</time>
      </trkpt>
      <trkpt lat="45.76135" lon="4.82869">
        <ele>167</ele>
        <time>2025-07-17T17:47:35.248000+02:00</time>
      </trkpt>
      <trkpt lat="45.76135" lon="4.82869">
        <ele>167</ele>
        <time>2025-07-17T17:47:36.248000+02:00</time>
      </trkpt>
      <trkpt lat="45.76135" lon="4.82869">
        <ele>167</ele>
        <time>2025-07-17T17:47:37.249000+02:00</time>
      </trkpt>
      <trkpt lat="45.76135" lon="4.82869">
        <ele>167</ele>
        <time>2025-07-17T17:47:39.249000+02:00</time>
      </trkpt>
      <trkpt lat="45.76135" lon="4.82869">
        <ele>167</ele>
        <time>2025-07-17T17:47:41.249000+02:00</time>
      </trkpt>
      <trkpt lat="45.76135" lon="4.82869">
        <ele>167</ele>
        <time>2025-07-17T17:47:42.250000+02:00</time>
      </trkpt>
      <trkpt lat="45.76135" lon="4.82869">
        <ele>167</ele>
        <time>2025-07-17T17:47:44.248000+02:00</time>
      </trkpt>
      <trkpt lat="45.76135" lon="4.82869">
        <ele>167</ele>
        <time>2025-07-17T17:47:46.249000+02:00</time>
      </trkpt>
      <trkpt lat="45.76135" lon="4.82869">
        <ele>167</ele>
        <time>2025-07-17T17:47:49.248000+02:00</time>
      </trkpt>
      <trkpt lat="45.76135" lon="4.82869">
        <ele>167</ele>
        <time>2025-07-17T17:47:50.248000+02:00</time>
      </trkpt>
      <trkpt lat="45.76135" lon="4.82869">
        <ele>167</ele>
        <time>2025-07-17T17:47:52.250000+02:00</time>
      </trkpt>
      <trkpt lat="45.76135" lon="4.82869">
        <ele>167</ele>
        <time>2025-07-17T17:47:54.249000+02:00</time>
      </trkpt>
      <trkpt lat="45.76135" lon="4.82869">
        <ele>167</ele>
        <time>2025-07-17T17:47:56.248000+02:00</time>
      </trkpt>
      <trkpt lat="45.76135" lon="4.82869">
        <ele>167</ele>
        <time>2025-07-17T17:47:57.249000+02:00</time>
      </trkpt>
      <trkpt lat="45.76135" lon="4.82869">
        <ele>167</ele>
        <time>2025-07-17T17:48:00.249000+02:00</time>
      </trkpt>
      <trkpt lat="45.76135" lon="4.82869">
        <ele>167</ele>
        <time>2025-07-17T17:48:01.249000+02:00</time>
      </trkpt>
      <trkpt lat="45.76135" lon="4.82869">
        <ele>167</ele>
        <time>2025-07-17T17:48:02.249000+02:00</time>
      </trkpt>
      <trkpt lat="45.76135" lon="4.82866">
        <ele>167</ele>
        <time>2025-07-17T17:48:04.249000+02:00</time>
      </trkpt>
      <trkpt lat="45.76135" lon="4.82862">
        <ele>167</ele>
        <time>2025-07-17T17:48:05.249000+02:00</time>
      </trkpt>
      <trkpt lat="45.76139" lon="4.8285">
        <ele>167</ele>
        <time>2025-07-17T17:48:07.248000+02:00</time>
      </trkpt>
      <trkpt lat="45.7614" lon="4.82843">
        <ele>167</ele>
        <time>2025-07-17T17:48:08.249000+02:00</time>
      </trkpt>
      <trkpt lat="45.76141" lon="4.82836">
        <ele>167.1</ele>
        <time>2025-07-17T17:48:09.249000+02:00</time>
      </trkpt>
      <trkpt lat="45.76143" lon="4.82829">
        <ele>167.1</ele>
        <time>2025-07-17T17:48:10.249000+02:00</time>
      </trkpt>
      <trkpt lat="45.76144" lon="4.82813">
        <ele>167</ele>
        <time>2025-07-17T17:48:12.248000+02:00</time>
      </trkpt>
      <trkpt lat="45.76145" lon="4.82805">
        <ele>167</ele>
        <time>2025-07-17T17:48:13.249000+02:00</time>
      </trkpt>
      <trkpt lat="45.76146" lon="4.82798">
        <ele>167.1</ele>
        <time>2025-07-17T17:48:14.249000+02:00</time>
      </trkpt>
      <trkpt lat="45.7615" lon="4.82782">
        <ele>167.3</ele>
        <time>2025-07-17T17:48:16.248000+02:00</time>
      </trkpt>
      <trkpt lat="45.76152" lon="4.82775">
        <ele>167.5</ele>
        <time>2025-07-17T17:48:17.249000+02:00</time>
      </trkpt>
      <trkpt lat="45.76154" lon="4.82768">
        <ele>167.7</ele>
        <time>2025-07-17T17:48:18.249000+02:00</time>
      </trkpt>
      <trkpt lat="45.76155" lon="4.82762">
        <ele>167.8</ele>
        <time>2025-07-17T17:48:19.249000+02:00</time>
      </trkpt>
      <trkpt lat="45.76159" lon="4.8275">
        <ele>168</ele>
        <time>2025-07-17T17:48:21.248000+02:00</time>
      </trkpt>
      <trkpt lat="45.76161" lon="4.82745">
        <ele>168.1</ele>
        <time>2025-07-17T17:48:22.249000+02:00</time>
      </trkpt>
      <trkpt lat="45.76162" lon="4.8274">
        <ele>168.3</ele>
        <time>2025-07-17T17:48:23.249000+02:00</time>
      </trkpt>
      <trkpt lat="45.76164" lon="4.82733">
        <ele>168.5</ele>
        <time>2025-07-17T17:48:25.248000+02:00</time>
      </trkpt>
      <trkpt lat="45.76165" lon="4.82731">
        <ele>168.6</ele>
        <time>2025-07-17T17:48:26.249000+02:00</time>
      </trkpt>
      <trkpt lat="45.76165" lon="4.82729">
        <ele>168.7</ele>
        <time>2025-07-17T17:48:27.250000+02:00</time>
      </trkpt>
      <trkpt lat="45.76165" lon="4.82726">
        <ele>168.8</ele>
        <time>2025-07-17T17:48:28.250000+02:00</time>
      </trkpt>
      <trkpt lat="45.76166" lon="4.82721">
        <ele>169</ele>
        <time>2025-07-17T17:48:30.249000+02:00</time>
      </trkpt>
      <trkpt lat="45.76167" lon="4.82718">
        <ele>169.2</ele>
        <time>2025-07-17T17:48:31.249000+02:00</time>
      </trkpt>
      <trkpt lat="45.76169" lon="4.8271">
        <ele>169.5</ele>
        <time>2025-07-17T17:48:33.248000+02:00</time>
      </trkpt>
      <trkpt lat="45.7617" lon="4.82705">
        <ele>169.6</ele>
        <time>2025-07-17T17:48:34.250000+02:00</time>
      </trkpt>
      <trkpt lat="45.76173" lon="4.82698">
        <ele>169.9</ele>
        <time>2025-07-17T17:48:36.248000+02:00</time>
      </trkpt>
      <trkpt lat="45.76174" lon="4.82696">
        <ele>169.9</ele>
        <time>2025-07-17T17:48:37.248000+02:00</time>
      </trkpt>
      <trkpt lat="45.76175" lon="4.82694">
        <ele>170</ele>
        <time>2025-07-17T17:48:38.249000+02:00</time>
      </trkpt>
      <trkpt lat="45.76177" lon="4.82687">
        <ele>170.2</ele>
        <time>2025-07-17T17:48:40.248000+02:00</time>
      </trkpt>
      <trkpt lat="45.76178" lon="4.82683">
        <ele>170.3</ele>
        <time>2025-07-17T17:48:41.249000+02:00</time>
      </trkpt>
      <trkpt lat="45.76179" lon="4.82674">
        <ele>170.6</ele>
        <time>2025-07-17T17:48:43.249000+02:00</time>
      </trkpt>
      <trkpt lat="45.7618" lon="4.8267">
        <ele>170.9</ele>
        <time>2025-07-17T17:48:44.249000+02:00</time>
      </trkpt>
      <trkpt lat="45.76184" lon="4.82661">
        <ele>171.6</ele>
        <time>2025-07-17T17:48:46.248000+02:00</time>
      </trkpt>
      <trkpt lat="45.76186" lon="4.82655">
        <ele>172.1</ele>
        <time>2025-07-17T17:48:47.248000+02:00</time>
      </trkpt>
      <trkpt lat="45.76188" lon="4.82648">
        <ele>172.7</ele>
        <time>2025-07-17T17:48:48.248000+02:00</time>
      </trkpt>
      <trkpt lat="45.7619" lon="4.82641">
        <ele>173.4</ele>
        <time>2025-07-17T17:48:49.248000+02:00</time>
      </trkpt>
      <trkpt lat="45.76192" lon="4.82636">
        <ele>174</ele>
        <time>2025-07-17T17:48:50.248000+02:00</time>
      </trkpt>
      <trkpt lat="45.76193" lon="4.82631">
        <ele>174.4</ele>
        <time>2025-07-17T17:48:51.248000+02:00</time>
      </trkpt>
      <trkpt lat="45.76195" lon="4.82627">
        <ele>174.9</ele>
        <time>2025-07-17T17:48:52.248000+02:00</time>
      </trkpt>
      <trkpt lat="45.76196" lon="4.82623">
        <ele>175.3</ele>
        <time>2025-07-17T17:48:53.249000+02:00</time>
      </trkpt>
      <trkpt lat="45.762" lon="4.8261">
        <ele>177.4</ele>
        <time>2025-07-17T17:48:55.248000+02:00</time>
      </trkpt>
      <trkpt lat="45.76203" lon="4.82604">
        <ele>179.3</ele>
        <time>2025-07-17T17:48:56.249000+02:00</time>
      </trkpt>
      <trkpt lat="45.76206" lon="4.82594">
        <ele>182.8</ele>
        <time>2025-07-17T17:48:58.249000+02:00</time>
      </trkpt>
      <trkpt lat="45.76205" lon="4.82589">
        <ele>184.1</ele>
        <time>2025-07-17T17:48:59.249000+02:00</time>
      </trkpt>
      <trkpt lat="45.76203" lon="4.82584">
        <ele>184.8</ele>
        <time>2025-07-17T17:49:00.249000+02:00</time>
      </trkpt>
      <trkpt lat="45.76198" lon="4.82575">
        <ele>186.4</ele>
        <time>2025-07-17T17:49:02.249000+02:00</time>
      </trkpt>
      <trkpt lat="45.76195" lon="4.8257">
        <ele>187.2</ele>
        <time>2025-07-17T17:49:03.249000+02:00</time>
      </trkpt>
      <trkpt lat="45.76191" lon="4.82566">
        <ele>188.1</ele>
        <time>2025-07-17T17:49:04.249000+02:00</time>
      </trkpt>
      <trkpt lat="45.76184" lon="4.82558">
        <ele>189</ele>
        <time>2025-07-17T17:49:06.248000+02:00</time>
      </trkpt>
      <trkpt lat="45.76181" lon="4.82554">
        <ele>189.3</ele>
        <time>2025-07-17T17:49:07.248000+02:00</time>
      </trkpt>
      <trkpt lat="45.76178" lon="4.8255">
        <ele>189.8</ele>
        <time>2025-07-17T17:49:08.249000+02:00</time>
      </trkpt>
      <trkpt lat="45.76171" lon="4.82543">
        <ele>190.5</ele>
        <time>2025-07-17T17:49:10.249000+02:00</time>
      </trkpt>
      <trkpt lat="45.76167" lon="4.8254">
        <ele>190.8</ele>
        <time>2025-07-17T17:49:11.249000+02:00</time>
      </trkpt>
      <trkpt lat="45.7616" lon="4.82534">
        <ele>192.2</ele>
        <time>2025-07-17T17:49:13.248000+02:00</time>
      </trkpt>
      <trkpt lat="45.76157" lon="4.82531">
        <ele>192.6</ele>
        <time>2025-07-17T17:49:14.249000+02:00</time>
      </trkpt>
      <trkpt lat="45.7615" lon="4.82526">
        <ele>193.3</ele>
        <time>2025-07-17T17:49:16.248000+02:00</time>
      </trkpt>
      <trkpt lat="45.76147" lon="4.82523">
        <ele>193.7</ele>
        <time>2025-07-17T17:49:17.249000+02:00</time>
      </trkpt>
      <trkpt lat="45.76141" lon="4.82519">
        <ele>194.5</ele>
        <time>2025-07-17T17:49:19.248000+02:00</time>
      </trkpt>
      <trkpt lat="45.76137" lon="4.82517">
        <ele>195.2</ele>
        <time>2025-07-17T17:49:20.249000+02:00</time>
      </trkpt>
      <trkpt lat="45.76134" lon="4.82514">
        <ele>196</ele>
        <time>2025-07-17T17:49:21.249000+02:00</time>
      </trkpt>
      <trkpt lat="45.76127" lon="4.8251">
        <ele>197.3</ele>
        <time>2025-07-17T17:49:23.248000+02:00</time>
      </trkpt>
      <trkpt lat="45.76124" lon="4.82509">
        <ele>197.9</ele>
        <time>2025-07-17T17:49:24.249000+02:00</time>
      </trkpt>
      <trkpt lat="45.76121" lon="4.82507">
        <ele>198.4</ele>
        <time>2025-07-17T17:49:25.249000+02:00</time>
      </trkpt>
      <trkpt lat="45.76117" lon="4.82505">
        <ele>198.8</ele>
        <time>2025-07-17T17:49:26.249000+02:00</time>
      </trkpt>
      <trkpt lat="45.7611" lon="4.82501">
        <ele>199.5</ele>
        <time>2025-07-17T17:49:28.249000+02:00</time>
      </trkpt>
      <trkpt lat="45.76103" lon="4.82498">
        <ele>200.6</ele>
        <time>2025-07-17T17:49:30.248000+02:00</time>
      </trkpt>
      <trkpt lat="45.761" lon="4.82497">
        <ele>201.2</ele>
        <time>2025-07-17T17:49:31.249000+02:00</time>
      </trkpt>
      <trkpt lat="45.76093" lon="4.82495">
        <ele>202.2</ele>
        <time>2025-07-17T17:49:33.250000+02:00</time>
      </trkpt>
      <trkpt lat="45.76086" lon="4.82492">
        <ele>203.4</ele>
        <time>2025-07-17T17:49:35.249000+02:00</time>
      </trkpt>
      <trkpt lat="45.7608" lon="4.82488">
        <ele>205.3</ele>
        <time>2025-07-17T17:49:37.248000+02:00</time>
      </trkpt>
      <trkpt lat="45.76077" lon="4.82486">
        <ele>206.1</ele>
        <time>2025-07-17T17:49:38.248000+02:00</time>
      </trkpt>
      <trkpt lat="45.76074" lon="4.82485">
        <ele>206.6</ele>
        <time>2025-07-17T17:49:39.248000+02:00</time>
      </trkpt>
      <trkpt lat="45.7607" lon="4.82483">
        <ele>206.9</ele>
        <time>2025-07-17T17:49:40.249000+02:00</time>
      </trkpt>
      <trkpt lat="45.76063" lon="4.82481">
        <ele>207.4</ele>
        <time>2025-07-17T17:49:42.248000+02:00</time>
      </trkpt>
      <trkpt lat="45.76059" lon="4.82479">
        <ele>207.7</ele>
        <time>2025-07-17T17:49:43.248000+02:00</time>
      </trkpt>
      <trkpt lat="45.76056" lon="4.82477">
        <ele>208</ele>
        <time>2025-07-17T17:49:44.248000+02:00</time>
      </trkpt>
      <trkpt lat="45.76052" lon="4.82476">
        <ele>208.4</ele>
        <time>2025-07-17T17:49:45.248000+02:00</time>
      </trkpt>
      <trkpt lat="45.76049" lon="4.82474">
        <ele>208.7</ele>
        <time>2025-07-17T17:49:46.249000+02:00</time>
      </trkpt>
      <trkpt lat="45.76042" lon="4.82471">
        <ele>209.7</ele>
        <time>2025-07-17T17:49:48.248000+02:00</time>
      </trkpt>
      <trkpt lat="45.76039" lon="4.82469">
        <ele>210.3</ele>
        <time>2025-07-17T17:49:49.249000+02:00</time>
      </trkpt>
      <trkpt lat="45.76032" lon="4.82466">
        <ele>211.7</ele>
        <time>2025-07-17T17:49:51.249000+02:00</time>
      </trkpt>
      <trkpt lat="45.76025" lon="4.82463">
        <ele>213.2</ele>
        <time>2025-07-17T17:49:53.249000+02:00</time>
      </trkpt>
      <trkpt lat="45.76018" lon="4.8246">
        <ele>214.5</ele>
        <time>2025-07-17T17:49:55.247000+02:00</time>
      </trkpt>
      <trkpt lat="45.76015" lon="4.82458">
        <ele>215</ele>
        <time>2025-07-17T17:49:56.248000+02:00</time>
      </trkpt>
      <trkpt lat="45.76012" lon="4.82457">
        <ele>215.3</ele>
        <time>2025-07-17T17:49:57.248000+02:00</time>
      </trkpt>
      <trkpt lat="45.76008" lon="4.82455">
        <ele>215.8</ele>
        <time>2025-07-17T17:49:58.248000+02:00</time>
      </trkpt>
      <trkpt lat="45.76006" lon="4.82452">
        <ele>216.7</ele>
        <time>2025-07-17T17:49:59.248000+02:00</time>
      </trkpt>
      <trkpt lat="45.76003" lon="4.82449">
        <ele>217.6</ele>
        <time>2025-07-17T17:50:00.248000+02:00</time>
      </trkpt>
      <trkpt lat="45.75997" lon="4.82445">
        <ele>218.4</ele>
        <time>2025-07-17T17:50:02.248000+02:00</time>
      </trkpt>
      <trkpt lat="45.75994" lon="4.82443">
        <ele>218.5</ele>
        <time>2025-07-17T17:50:03.248000+02:00</time>
      </trkpt>
      <trkpt lat="45.75991" lon="4.82441">
        <ele>218.6</ele>
        <time>2025-07-17T17:50:04.248000+02:00</time>
      </trkpt>
      <trkpt lat="45.75985" lon="4.82438">
        <ele>218.6</ele>
        <time>2025-07-17T17:50:06.247000+02:00</time>
      </trkpt>
      <trkpt lat="45.75981" lon="4.82437">
        <ele>218.6</ele>
        <time>2025-07-17T17:50:07.247000+02:00</time>
      </trkpt>
      <trkpt lat="45.75978" lon="4.82435">
        <ele>218.8</ele>
        <time>2025-07-17T17:50:08.248000+02:00</time>
      </trkpt>
      <trkpt lat="45.75971" lon="4.82431">
        <ele>219.2</ele>
        <time>2025-07-17T17:50:10.247000+02:00</time>
      </trkpt>
      <trkpt lat="45.75968" lon="4.8243">
        <ele>219.7</ele>
        <time>2025-07-17T17:50:11.247000+02:00</time>
      </trkpt>
      <trkpt lat="45.75964" lon="4.82429">
        <ele>220.1</ele>
        <time>2025-07-17T17:50:12.249000+02:00</time>
      </trkpt>
      <trkpt lat="45.75957" lon="4.82425">
        <ele>221.1</ele>
        <time>2025-07-17T17:50:14.247000+02:00</time>
      </trkpt>
      <trkpt lat="45.75954" lon="4.82423">
        <ele>221.6</ele>
        <time>2025-07-17T17:50:15.249000+02:00</time>
      </trkpt>
      <trkpt lat="45.75947" lon="4.8242">
        <ele>222.3</ele>
        <time>2025-07-17T17:50:17.247000+02:00</time>
      </trkpt>
      <trkpt lat="45.75944" lon="4.82418">
        <ele>222.7</ele>
        <time>2025-07-17T17:50:18.248000+02:00</time>
      </trkpt>
      <trkpt lat="45.7594" lon="4.82416">
        <ele>223.4</ele>
        <time>2025-07-17T17:50:19.248000+02:00</time>
      </trkpt>
      <trkpt lat="45.75934" lon="4.82413">
        <ele>225</ele>
        <time>2025-07-17T17:50:21.247000+02:00</time>
      </trkpt>
      <trkpt lat="45.75931" lon="4.8241">
        <ele>226.5</ele>
        <time>2025-07-17T17:50:22.248000+02:00</time>
      </trkpt>
      <trkpt lat="45.75925" lon="4.82406">
        <ele>228.6</ele>
        <time>2025-07-17T17:50:24.247000+02:00</time>
      </trkpt>
      <trkpt lat="45.75922" lon="4.82404">
        <ele>229.5</ele>
        <time>2025-07-17T17:50:25.249000+02:00</time>
      </trkpt>
      <trkpt lat="45.75916" lon="4.824">
        <ele>231.5</ele>
        <time>2025-07-17T17:50:27.248000+02:00</time>
      </trkpt>
      <trkpt lat="45.75912" lon="4.82398">
        <ele>231.5</ele>
        <time>2025-07-17T17:50:28.249000+02:00</time>
      </trkpt>
      <trkpt lat="45.75906" lon="4.82392">
        <ele>232</ele>
        <time>2025-07-17T17:50:30.248000+02:00</time>
      </trkpt>
      <trkpt lat="45.75899" lon="4.82387">
        <ele>231</ele>
        <time>2025-07-17T17:50:32.247000+02:00</time>
      </trkpt>
      <trkpt lat="45.75895" lon="4.82385">
        <ele>230.7</ele>
        <time>2025-07-17T17:50:33.247000+02:00</time>
      </trkpt>
      <trkpt lat="45.75891" lon="4.82382">
        <ele>230.6</ele>
        <time>2025-07-17T17:50:34.249000+02:00</time>
      </trkpt>
      <trkpt lat="45.75884" lon="4.82376">
        <ele>231.5</ele>
        <time>2025-07-17T17:50:36.248000+02:00</time>
      </trkpt>
      <trkpt lat="45.75881" lon="4.82373">
        <ele>232</ele>
        <time>2025-07-17T17:50:37.249000+02:00</time>
      </trkpt>
      <trkpt lat="45.75878" lon="4.8237">
        <ele>232.8</ele>
        <time>2025-07-17T17:50:38.249000+02:00</time>
      </trkpt>
      <trkpt lat="45.75871" lon="4.82364">
        <ele>233.4</ele>
        <time>2025-07-17T17:50:40.247000+02:00</time>
      </trkpt>
      <trkpt lat="45.75868" lon="4.8236">
        <ele>233.9</ele>
        <time>2025-07-17T17:50:41.249000+02:00</time>
      </trkpt>
      <trkpt lat="45.75864" lon="4.8235">
        <ele>236.3</ele>
        <time>2025-07-17T17:50:43.248000+02:00</time>
      </trkpt>
      <trkpt lat="45.7586" lon="4.82342">
        <ele>238.1</ele>
        <time>2025-07-17T17:50:45.249000+02:00</time>
      </trkpt>
      <trkpt lat="45.75856" lon="4.82332">
        <ele>239.7</ele>
        <time>2025-07-17T17:50:47.247000+02:00</time>
      </trkpt>
      <trkpt lat="45.75854" lon="4.82327">
        <ele>239.2</ele>
        <time>2025-07-17T17:50:48.250000+02:00</time>
      </trkpt>
      <trkpt lat="45.7585" lon="4.82316">
        <ele>238.4</ele>
        <time>2025-07-17T17:50:50.247000+02:00</time>
      </trkpt>
      <trkpt lat="45.75849" lon="4.8231">
        <ele>238.4</ele>
        <time>2025-07-17T17:50:51.248000+02:00</time>
      </trkpt>
      <trkpt lat="45.75848" lon="4.82303">
        <ele>238.5</ele>
        <time>2025-07-17T17:50:52.248000+02:00</time>
      </trkpt>
      <trkpt lat="45.75846" lon="4.82289">
        <ele>237.7</ele>
        <time>2025-07-17T17:50:54.250000+02:00</time>
      </trkpt>
      <trkpt lat="45.75842" lon="4.82277">
        <ele>236.7</ele>
        <time>2025-07-17T17:50:56.247000+02:00</time>
      </trkpt>
      <trkpt lat="45.7584" lon="4.82271">
        <ele>236.6</ele>
        <time>2025-07-17T17:50:57.247000+02:00</time>
      </trkpt>
      <trkpt lat="45.75838" lon="4.82265">
        <ele>236.7</ele>
        <time>2025-07-17T17:50:58.248000+02:00</time>
      </trkpt>
      <trkpt lat="45.75836" lon="4.82258">
        <ele>236.8</ele>
        <time>2025-07-17T17:50:59.248000+02:00</time>
      </trkpt>
      <trkpt lat="45.75833" lon="4.82245">
        <ele>237.1</ele>
        <time>2025-07-17T17:51:01.248000+02:00</time>
      </trkpt>
      <trkpt lat="45.75829" lon="4.82231">
        <ele>237.2</ele>
        <time>2025-07-17T17:51:03.247000+02:00</time>
      </trkpt>
      <trkpt lat="45.75828" lon="4.82224">
        <ele>237.4</ele>
        <time>2025-07-17T17:51:04.248000+02:00</time>
      </trkpt>
      <trkpt lat="45.75823" lon="4.82211">
        <ele>237.6</ele>
        <time>2025-07-17T17:51:06.247000+02:00</time>
      </trkpt>
      <trkpt lat="45.75819" lon="4.82207">
        <ele>237.6</ele>
        <time>2025-07-17T17:51:07.248000+02:00</time>
      </trkpt>
      <trkpt lat="45.75814" lon="4.82204">
        <ele>237.5</ele>
        <time>2025-07-17T17:51:08.248000+02:00</time>
      </trkpt>
      <trkpt lat="45.75805" lon="4.82197">
        <ele>237.7</ele>
        <time>2025-07-17T17:51:10.248000+02:00</time>
      </trkpt>
      <trkpt lat="45.75794" lon="4.8219">
        <ele>237.9</ele>
        <time>2025-07-17T17:51:12.248000+02:00</time>
      </trkpt>
      <trkpt lat="45.75783" lon="4.82183">
        <ele>238</ele>
        <time>2025-07-17T17:51:14.248000+02:00</time>
      </trkpt>
      <trkpt lat="45.75772" lon="4.82175">
        <ele>238</ele>
        <time>2025-07-17T17:51:16.247000+02:00</time>
      </trkpt>
      <trkpt lat="45.75766" lon="4.82171">
        <ele>238</ele>
        <time>2025-07-17T17:51:17.247000+02:00</time>
      </trkpt>
      <trkpt lat="45.75761" lon="4.82166">
        <ele>238.2</ele>
        <time>2025-07-17T17:51:18.248000+02:00</time>
      </trkpt>
      <trkpt lat="45.75749" lon="4.82158">
        <ele>239.1</ele>
        <time>2025-07-17T17:51:20.247000+02:00</time>
      </trkpt>
      <trkpt lat="45.75744" lon="4.82153">
        <ele>239.9</ele>
        <time>2025-07-17T17:51:21.248000+02:00</time>
      </trkpt>
      <trkpt lat="45.75734" lon="4.82143">
        <ele>240.6</ele>
        <time>2025-07-17T17:51:23.248000+02:00</time>
      </trkpt>
      <trkpt lat="45.7573" lon="4.82138">
        <ele>240.4</ele>
        <time>2025-07-17T17:51:24.248000+02:00</time>
      </trkpt>
      <trkpt lat="45.75725" lon="4.82133">
        <ele>240.1</ele>
        <time>2025-07-17T17:51:25.248000+02:00</time>
      </trkpt>
      <trkpt lat="45.75717" lon="4.82122">
        <ele>241</ele>
        <time>2025-07-17T17:51:27.248000+02:00</time>
      </trkpt>
      <trkpt lat="45.75709" lon="4.82111">
        <ele>242</ele>
        <time>2025-07-17T17:51:29.248000+02:00</time>
      </trkpt>
      <trkpt lat="45.75705" lon="4.82105">
        <ele>242.5</ele>
        <time>2025-07-17T17:51:30.248000+02:00</time>
      </trkpt>
      <trkpt lat="45.75701" lon="4.82101">
        <ele>242.8</ele>
        <time>2025-07-17T17:51:31.248000+02:00</time>
      </trkpt>
      <trkpt lat="45.75696" lon="4.82092">
        <ele>243.4</ele>
        <time>2025-07-17T17:51:33.248000+02:00</time>
      </trkpt>
      <trkpt lat="45.75694" lon="4.82088">
        <ele>243.7</ele>
        <time>2025-07-17T17:51:34.248000+02:00</time>
      </trkpt>
      <trkpt lat="45.75695" lon="4.82083">
        <ele>244</ele>
        <time>2025-07-17T17:51:35.248000+02:00</time>
      </trkpt>
      <trkpt lat="45.75692" lon="4.82073">
        <ele>244.4</ele>
        <time>2025-07-17T17:51:37.248000+02:00</time>
      </trkpt>
      <trkpt lat="45.75684" lon="4.82063">
        <ele>244.7</ele>
        <time>2025-07-17T17:51:39.247000+02:00</time>
      </trkpt>
      <trkpt lat="45.7568" lon="4.82058">
        <ele>244.9</ele>
        <time>2025-07-17T17:51:40.247000+02:00</time>
      </trkpt>
      <trkpt lat="45.75676" lon="4.82053">
        <ele>245.2</ele>
        <time>2025-07-17T17:51:41.248000+02:00</time>
      </trkpt>
      <trkpt lat="45.75671" lon="4.82048">
        <ele>245.7</ele>
        <time>2025-07-17T17:51:42.248000+02:00</time>
      </trkpt>
      <trkpt lat="45.75664" lon="4.82038">
        <ele>247.1</ele>
        <time>2025-07-17T17:51:44.248000+02:00</time>
      </trkpt>
      <trkpt lat="45.7566" lon="4.82032">
        <ele>247.8</ele>
        <time>2025-07-17T17:51:45.248000+02:00</time>
      </trkpt>
      <trkpt lat="45.75656" lon="4.82026">
        <ele>248.5</ele>
        <time>2025-07-17T17:51:46.248000+02:00</time>
      </trkpt>
      <trkpt lat="45.7565" lon="4.82014">
        <ele>249.3</ele>
        <time>2025-07-17T17:51:48.248000+02:00</time>
      </trkpt>
      <trkpt lat="45.75647" lon="4.82007">
        <ele>249.7</ele>
        <time>2025-07-17T17:51:49.248000+02:00</time>
      </trkpt>
      <trkpt lat="45.75644" lon="4.82001">
        <ele>250</ele>
        <time>2025-07-17T17:51:50.248000+02:00</time>
      </trkpt>
      <trkpt lat="45.75639" lon="4.81988">
        <ele>250.9</ele>
        <time>2025-07-17T17:51:52.247000+02:00</time>
      </trkpt>
      <trkpt lat="45.75633" lon="4.81974">
        <ele>251.9</ele>
        <time>2025-07-17T17:51:54.247000+02:00</time>
      </trkpt>
      <trkpt lat="45.75629" lon="4.81967">
        <ele>252.2</ele>
        <time>2025-07-17T17:51:55.248000+02:00</time>
      </trkpt>
      <trkpt lat="45.75627" lon="4.8196">
        <ele>252.5</ele>
        <time>2025-07-17T17:51:56.248000+02:00</time>
      </trkpt>
      <trkpt lat="45.75622" lon="4.81944">
        <ele>253</ele>
        <time>2025-07-17T17:51:58.247000+02:00</time>
      </trkpt>
      <trkpt lat="45.75619" lon="4.81936">
        <ele>253.7</ele>
        <time>2025-07-17T17:51:59.247000+02:00</time>
      </trkpt>
      <trkpt lat="45.75617" lon="4.81928">
        <ele>254.3</ele>
        <time>2025-07-17T17:52:00.247000+02:00</time>
      </trkpt>
      <trkpt lat="45.75615" lon="4.81921">
        <ele>254.8</ele>
        <time>2025-07-17T17:52:01.247000+02:00</time>
      </trkpt>
      <trkpt lat="45.75613" lon="4.81913">
        <ele>255.5</ele>
        <time>2025-07-17T17:52:02.248000+02:00</time>
      </trkpt>
      <trkpt lat="45.75609" lon="4.81896">
        <ele>257.1</ele>
        <time>2025-07-17T17:52:04.248000+02:00</time>
      </trkpt>
      <trkpt lat="45.75608" lon="4.81888">
        <ele>257.8</ele>
        <time>2025-07-17T17:52:05.249000+02:00</time>
      </trkpt>
      <trkpt lat="45.75606" lon="4.81871">
        <ele>258.6</ele>
        <time>2025-07-17T17:52:07.247000+02:00</time>
      </trkpt>
      <trkpt lat="45.75606" lon="4.81863">
        <ele>259</ele>
        <time>2025-07-17T17:52:08.247000+02:00</time>
      </trkpt>
      <trkpt lat="45.75607" lon="4.81855">
        <ele>259.2</ele>
        <time>2025-07-17T17:52:09.247000+02:00</time>
      </trkpt>
      <trkpt lat="45.7561" lon="4.81838">
        <ele>259.8</ele>
        <time>2025-07-17T17:52:11.246000+02:00</time>
      </trkpt>
      <trkpt lat="45.75612" lon="4.8183">
        <ele>260.1</ele>
        <time>2025-07-17T17:52:12.248000+02:00</time>
      </trkpt>
      <trkpt lat="45.75615" lon="4.81812">
        <ele>260.3</ele>
        <time>2025-07-17T17:52:14.248000+02:00</time>
      </trkpt>
      <trkpt lat="45.75619" lon="4.81797">
        <ele>261</ele>
        <time>2025-07-17T17:52:16.247000+02:00</time>
      </trkpt>
      <trkpt lat="45.75622" lon="4.8178">
        <ele>261.8</ele>
        <time>2025-07-17T17:52:18.248000+02:00</time>
      </trkpt>
      <trkpt lat="45.75625" lon="4.81764">
        <ele>262.3</ele>
        <time>2025-07-17T17:52:20.246000+02:00</time>
      </trkpt>
      <trkpt lat="45.75627" lon="4.81757">
        <ele>262.6</ele>
        <time>2025-07-17T17:52:21.247000+02:00</time>
      </trkpt>
      <trkpt lat="45.7563" lon="4.81748">
        <ele>262.9</ele>
        <time>2025-07-17T17:52:22.247000+02:00</time>
      </trkpt>
      <trkpt lat="45.75632" lon="4.8174">
        <ele>262.6</ele>
        <time>2025-07-17T17:52:23.247000+02:00</time>
      </trkpt>
      <trkpt lat="45.75636" lon="4.81732">
        <ele>262.6</ele>
        <time>2025-07-17T17:52:24.247000+02:00</time>
      </trkpt>
      <trkpt lat="45.7564" lon="4.81724">
        <ele>262.5</ele>
        <time>2025-07-17T17:52:25.247000+02:00</time>
      </trkpt>
      <trkpt lat="45.75646" lon="4.8171">
        <ele>264.1</ele>
        <time>2025-07-17T17:52:27.247000+02:00</time>
      </trkpt>
      <trkpt lat="45.7565" lon="4.81704">
        <ele>265.1</ele>
        <time>2025-07-17T17:52:28.247000+02:00</time>
      </trkpt>
      <trkpt lat="45.75656" lon="4.8169">
        <ele>266.6</ele>
        <time>2025-07-17T17:52:30.247000+02:00</time>
      </trkpt>
      <trkpt lat="45.75659" lon="4.81683">
        <ele>267</ele>
        <time>2025-07-17T17:52:31.247000+02:00</time>
      </trkpt>
      <trkpt lat="45.75667" lon="4.8167">
        <ele>267.4</ele>
        <time>2025-07-17T17:52:33.247000+02:00</time>
      </trkpt>
      <trkpt lat="45.75674" lon="4.81657">
        <ele>267.6</ele>
        <time>2025-07-17T17:52:35.247000+02:00</time>
      </trkpt>
      <trkpt lat="45.75678" lon="4.81651">
        <ele>267.8</ele>
        <time>2025-07-17T17:52:36.248000+02:00</time>
      </trkpt>
      <trkpt lat="45.75684" lon="4.81636">
        <ele>267.2</ele>
        <time>2025-07-17T17:52:38.248000+02:00</time>
      </trkpt>
      <trkpt lat="45.7569" lon="4.81623">
        <ele>267</ele>
        <time>2025-07-17T17:52:40.247000+02:00</time>
      </trkpt>
      <trkpt lat="45.75693" lon="4.81616">
        <ele>266.5</ele>
        <time>2025-07-17T17:52:41.248000+02:00</time>
      </trkpt>
      <trkpt lat="45.75699" lon="4.81602">
        <ele>266.3</ele>
        <time>2025-07-17T17:52:43.247000+02:00</time>
      </trkpt>
      <trkpt lat="45.75702" lon="4.81595">
        <ele>266.5</ele>
        <time>2025-07-17T17:52:44.247000+02:00</time>
      </trkpt>
      <trkpt lat="45.75705" lon="4.81588">
        <ele>266.5</ele>
        <time>2025-07-17T17:52:45.247000+02:00</time>
      </trkpt>
      <trkpt lat="45.75708" lon="4.8158">
        <ele>266.4</ele>
        <time>2025-07-17T17:52:46.247000+02:00</time>
      </trkpt>
      <trkpt lat="45.75716" lon="4.81566">
        <ele>266.6</ele>
        <time>2025-07-17T17:52:48.247000+02:00</time>
      </trkpt>
      <trkpt lat="45.75721" lon="4.81553">
        <ele>266.9</ele>
        <time>2025-07-17T17:52:50.247000+02:00</time>
      </trkpt>
      <trkpt lat="45.75725" lon="4.81546">
        <ele>267.1</ele>
        <time>2025-07-17T17:52:51.248000+02:00</time>
      </trkpt>
      <trkpt lat="45.75728" lon="4.81539">
        <ele>267.3</ele>
        <time>2025-07-17T17:52:52.248000+02:00</time>
      </trkpt>
      <trkpt lat="45.75734" lon="4.81525">
        <ele>267.3</ele>
        <time>2025-07-17T17:52:54.247000+02:00</time>
      </trkpt>
      <trkpt lat="45.75737" lon="4.81517">
        <ele>267.1</ele>
        <time>2025-07-17T17:52:55.247000+02:00</time>
      </trkpt>
      <trkpt lat="45.7574" lon="4.81509">
        <ele>267</ele>
        <time>2025-07-17T17:52:56.247000+02:00</time>
      </trkpt>
      <trkpt lat="45.75743" lon="4.81501">
        <ele>266.8</ele>
        <time>2025-07-17T17:52:57.247000+02:00</time>
      </trkpt>
      <trkpt lat="45.75746" lon="4.81494">
        <ele>266.8</ele>
        <time>2025-07-17T17:52:58.247000+02:00</time>
      </trkpt>
      <trkpt lat="45.75754" lon="4.81478">
        <ele>267.4</ele>
        <time>2025-07-17T17:53:00.247000+02:00</time>
      </trkpt>
      <trkpt lat="45.75761" lon="4.81462">
        <ele>268.1</ele>
        <time>2025-07-17T17:53:02.248000+02:00</time>
      </trkpt>
      <trkpt lat="45.75768" lon="4.81447">
        <ele>268.1</ele>
        <time>2025-07-17T17:53:04.247000+02:00</time>
      </trkpt>
      <trkpt lat="45.75776" lon="4.81434">
        <ele>267.9</ele>
        <time>2025-07-17T17:53:06.248000+02:00</time>
      </trkpt>
      <trkpt lat="45.75779" lon="4.81427">
        <ele>268.1</ele>
        <time>2025-07-17T17:53:07.248000+02:00</time>
      </trkpt>
      <trkpt lat="45.75788" lon="4.81414">
        <ele>268.6</ele>
        <time>2025-07-17T17:53:09.246000+02:00</time>
      </trkpt>
      <trkpt lat="45.75791" lon="4.81408">
        <ele>268.7</ele>
        <time>2025-07-17T17:53:10.246000+02:00</time>
      </trkpt>
      <trkpt lat="45.75794" lon="4.81402">
        <ele>268.6</ele>
        <time>2025-07-17T17:53:11.247000+02:00</time>
      </trkpt>
      <trkpt lat="45.75799" lon="4.81393">
        <ele>268.7</ele>
        <time>2025-07-17T17:53:13.246000+02:00</time>
      </trkpt>
      <trkpt lat="45.75802" lon="4.81388">
        <ele>268.7</ele>
        <time>2025-07-17T17:53:14.247000+02:00</time>
      </trkpt>
      <trkpt lat="45.75805" lon="4.81383">
        <ele>268.8</ele>
        <time>2025-07-17T17:53:15.247000+02:00</time>
      </trkpt>
      <trkpt lat="45.75808" lon="4.81378">
        <ele>268.8</ele>
        <time>2025-07-17T17:53:16.248000+02:00</time>
      </trkpt>
      <trkpt lat="45.75815" lon="4.81364">
        <ele>268.2</ele>
        <time>2025-07-17T17:53:18.248000+02:00</time>
      </trkpt>
      <trkpt lat="45.75822" lon="4.81347">
        <ele>267</ele>
        <time>2025-07-17T17:53:20.248000+02:00</time>
      </trkpt>
      <trkpt lat="45.75828" lon="4.81328">
        <ele>265.8</ele>
        <time>2025-07-17T17:53:22.247000+02:00</time>
      </trkpt>
      <trkpt lat="45.75829" lon="4.81317">
        <ele>265.5</ele>
        <time>2025-07-17T17:53:23.247000+02:00</time>
      </trkpt>
      <trkpt lat="45.75828" lon="4.81306">
        <ele>265.2</ele>
        <time>2025-07-17T17:53:24.248000+02:00</time>
      </trkpt>
      <trkpt lat="45.75824" lon="4.81284">
        <ele>265.1</ele>
        <time>2025-07-17T17:53:26.249000+02:00</time>
      </trkpt>
      <trkpt lat="45.75818" lon="4.81266">
        <ele>264.6</ele>
        <time>2025-07-17T17:53:28.246000+02:00</time>
      </trkpt>
      <trkpt lat="45.75814" lon="4.81258">
        <ele>264.3</ele>
        <time>2025-07-17T17:53:29.247000+02:00</time>
      </trkpt>
      <trkpt lat="45.75805" lon="4.81241">
        <ele>264</ele>
        <time>2025-07-17T17:53:31.248000+02:00</time>
      </trkpt>
      <trkpt lat="45.75798" lon="4.81224">
        <ele>263.7</ele>
        <time>2025-07-17T17:53:33.246000+02:00</time>
      </trkpt>
      <trkpt lat="45.75794" lon="4.81216">
        <ele>263.3</ele>
        <time>2025-07-17T17:53:34.246000+02:00</time>
      </trkpt>
      <trkpt lat="45.7579" lon="4.81207">
        <ele>262.9</ele>
        <time>2025-07-17T17:53:35.246000+02:00</time>
      </trkpt>
      <trkpt lat="45.75785" lon="4.81198">
        <ele>262.8</ele>
        <time>2025-07-17T17:53:36.246000+02:00</time>
      </trkpt>
      <trkpt lat="45.75781" lon="4.81189">
        <ele>262.7</ele>
        <time>2025-07-17T17:53:37.248000+02:00</time>
      </trkpt>
      <trkpt lat="45.75771" lon="4.8117">
        <ele>262.1</ele>
        <time>2025-07-17T17:53:39.246000+02:00</time>
      </trkpt>
      <trkpt lat="45.75766" lon="4.8116">
        <ele>261.9</ele>
        <time>2025-07-17T17:53:40.246000+02:00</time>
      </trkpt>
      <trkpt lat="45.75762" lon="4.81151">
        <ele>261.8</ele>
        <time>2025-07-17T17:53:41.247000+02:00</time>
      </trkpt>
      <trkpt lat="45.75757" lon="4.81141">
        <ele>261.8</ele>
        <time>2025-07-17T17:53:42.247000+02:00</time>
      </trkpt>
      <trkpt lat="45.75753" lon="4.81131">
        <ele>261.9</ele>
        <time>2025-07-17T17:53:43.248000+02:00</time>
      </trkpt>
      <trkpt lat="45.75745" lon="4.81111">
        <ele>262.2</ele>
        <time>2025-07-17T17:53:45.247000+02:00</time>
      </trkpt>
      <trkpt lat="45.75741" lon="4.81101">
        <ele>262.2</ele>
        <time>2025-07-17T17:53:46.247000+02:00</time>
      </trkpt>
      <trkpt lat="45.75737" lon="4.81092">
        <ele>262.1</ele>
        <time>2025-07-17T17:53:47.247000+02:00</time>
      </trkpt>
      <trkpt lat="45.75733" lon="4.81084">
        <ele>262</ele>
        <time>2025-07-17T17:53:48.248000+02:00</time>
      </trkpt>
      <trkpt lat="45.75725" lon="4.81067">
        <ele>262.5</ele>
        <time>2025-07-17T17:53:50.246000+02:00</time>
      </trkpt>
      <trkpt lat="45.75721" lon="4.81059">
        <ele>262.9</ele>
        <time>2025-07-17T17:53:51.247000+02:00</time>
      </trkpt>
      <trkpt lat="45.75716" lon="4.81041">
        <ele>262.6</ele>
        <time>2025-07-17T17:53:53.246000+02:00</time>
      </trkpt>
      <trkpt lat="45.75715" lon="4.81031">
        <ele>262.3</ele>
        <time>2025-07-17T17:53:54.248000+02:00</time>
      </trkpt>
      <trkpt lat="45.75714" lon="4.81012">
        <ele>262.5</ele>
        <time>2025-07-17T17:53:56.246000+02:00</time>
      </trkpt>
      <trkpt lat="45.75713" lon="4.81003">
        <ele>262.6</ele>
        <time>2025-07-17T17:53:57.246000+02:00</time>
      </trkpt>
      <trkpt lat="45.75712" lon="4.80994">
        <ele>262.6</ele>
        <time>2025-07-17T17:53:58.247000+02:00</time>
      </trkpt>
      <trkpt lat="45.75708" lon="4.80975">
        <ele>262.6</ele>
        <time>2025-07-17T17:54:00.247000+02:00</time>
      </trkpt>
      <trkpt lat="45.75706" lon="4.80967">
        <ele>262.7</ele>
        <time>2025-07-17T17:54:01.247000+02:00</time>
      </trkpt>
      <trkpt lat="45.75702" lon="4.8095">
        <ele>263</ele>
        <time>2025-07-17T17:54:03.246000+02:00</time>
      </trkpt>
      <trkpt lat="45.75703" lon="4.80942">
        <ele>263.1</ele>
        <time>2025-07-17T17:54:04.246000+02:00</time>
      </trkpt>
      <trkpt lat="45.75701" lon="4.80933">
        <ele>263.3</ele>
        <time>2025-07-17T17:54:05.246000+02:00</time>
      </trkpt>
      <trkpt lat="45.75698" lon="4.80925">
        <ele>263.6</ele>
        <time>2025-07-17T17:54:06.247000+02:00</time>
      </trkpt>
      <trkpt lat="45.75693" lon="4.80907">
        <ele>264.4</ele>
        <time>2025-07-17T17:54:08.246000+02:00</time>
      </trkpt>
      <trkpt lat="45.7569" lon="4.80899">
        <ele>264.9</ele>
        <time>2025-07-17T17:54:09.246000+02:00</time>
      </trkpt>
      <trkpt lat="45.75688" lon="4.8089">
        <ele>265.2</ele>
        <time>2025-07-17T17:54:10.246000+02:00</time>
      </trkpt>
      <trkpt lat="45.75686" lon="4.80882">
        <ele>265.2</ele>
        <time>2025-07-17T17:54:11.246000+02:00</time>
      </trkpt>
      <trkpt lat="45.75683" lon="4.80873">
        <ele>265.2</ele>
        <time>2025-07-17T17:54:12.246000+02:00</time>
      </trkpt>
      <trkpt lat="45.75681" lon="4.80865">
        <ele>265.1</ele>
        <time>2025-07-17T17:54:13.247000+02:00</time>
      </trkpt>
      <trkpt lat="45.75679" lon="4.80857">
        <ele>265.1</ele>
        <time>2025-07-17T17:54:14.247000+02:00</time>
      </trkpt>
      <trkpt lat="45.75677" lon="4.80839">
        <ele>265.5</ele>
        <time>2025-07-17T17:54:16.246000+02:00</time>
      </trkpt>
      <trkpt lat="45.75676" lon="4.80831">
        <ele>265.8</ele>
        <time>2025-07-17T17:54:17.247000+02:00</time>
      </trkpt>
      <trkpt lat="45.75674" lon="4.80823">
        <ele>266.2</ele>
        <time>2025-07-17T17:54:18.247000+02:00</time>
      </trkpt>
      <trkpt lat="45.75673" lon="4.80814">
        <ele>266.6</ele>
        <time>2025-07-17T17:54:19.247000+02:00</time>
      </trkpt>
      <trkpt lat="45.75671" lon="4.80797">
        <ele>267</ele>
        <time>2025-07-17T17:54:21.247000+02:00</time>
      </trkpt>
      <trkpt lat="45.75669" lon="4.8078">
        <ele>267</ele>
        <time>2025-07-17T17:54:23.246000+02:00</time>
      </trkpt>
      <trkpt lat="45.75669" lon="4.80772">
        <ele>267.2</ele>
        <time>2025-07-17T17:54:24.246000+02:00</time>
      </trkpt>
      <trkpt lat="45.75668" lon="4.80764">
        <ele>267.5</ele>
        <time>2025-07-17T17:54:25.247000+02:00</time>
      </trkpt>
      <trkpt lat="45.75666" lon="4.80747">
        <ele>268.2</ele>
        <time>2025-07-17T17:54:27.246000+02:00</time>
      </trkpt>
      <trkpt lat="45.75665" lon="4.80739">
        <ele>268.7</ele>
        <time>2025-07-17T17:54:28.246000+02:00</time>
      </trkpt>
      <trkpt lat="45.75663" lon="4.80722">
        <ele>269.7</ele>
        <time>2025-07-17T17:54:30.248000+02:00</time>
      </trkpt>
      <trkpt lat="45.75661" lon="4.80706">
        <ele>271</ele>
        <time>2025-07-17T17:54:32.246000+02:00</time>
      </trkpt>
      <trkpt lat="45.75659" lon="4.80698">
        <ele>271.6</ele>
        <time>2025-07-17T17:54:33.246000+02:00</time>
      </trkpt>
      <trkpt lat="45.75659" lon="4.80691">
        <ele>272</ele>
        <time>2025-07-17T17:54:34.246000+02:00</time>
      </trkpt>
      <trkpt lat="45.75658" lon="4.80684">
        <ele>272.2</ele>
        <time>2025-07-17T17:54:35.246000+02:00</time>
      </trkpt>
      <trkpt lat="45.75657" lon="4.80677">
        <ele>272.4</ele>
        <time>2025-07-17T17:54:36.247000+02:00</time>
      </trkpt>
      <trkpt lat="45.75655" lon="4.80664">
        <ele>273</ele>
        <time>2025-07-17T17:54:38.246000+02:00</time>
      </trkpt>
      <trkpt lat="45.75654" lon="4.80657">
        <ele>273.3</ele>
        <time>2025-07-17T17:54:39.247000+02:00</time>
      </trkpt>
      <trkpt lat="45.75652" lon="4.80644">
        <ele>273.9</ele>
        <time>2025-07-17T17:54:41.246000+02:00</time>
      </trkpt>
      <trkpt lat="45.75652" lon="4.80641">
        <ele>274</ele>
        <time>2025-07-17T17:54:42.246000+02:00</time>
      </trkpt>
      <trkpt lat="45.75651" lon="4.8064">
        <ele>274.1</ele>
        <time>2025-07-17T17:54:43.248000+02:00</time>
      </trkpt>
      <trkpt lat="45.7565" lon="4.80635">
        <ele>274.2</ele>
        <time>2025-07-17T17:54:45.247000+02:00</time>
      </trkpt>
      <trkpt lat="45.7565" lon="4.80631">
        <ele>274.3</ele>
        <time>2025-07-17T17:54:46.247000+02:00</time>
      </trkpt>
      <trkpt lat="45.75649" lon="4.80621">
        <ele>274.5</ele>
        <time>2025-07-17T17:54:48.247000+02:00</time>
      </trkpt>
      <trkpt lat="45.75645" lon="4.80611">
        <ele>274.8</ele>
        <time>2025-07-17T17:54:50.245000+02:00</time>
      </trkpt>
      <trkpt lat="45.75644" lon="4.80606">
        <ele>275</ele>
        <time>2025-07-17T17:54:51.247000+02:00</time>
      </trkpt>
      <trkpt lat="45.75641" lon="4.80601">
        <ele>275.2</ele>
        <time>2025-07-17T17:54:52.247000+02:00</time>
      </trkpt>
      <trkpt lat="45.75634" lon="4.80593">
        <ele>275.9</ele>
        <time>2025-07-17T17:54:54.247000+02:00</time>
      </trkpt>
      <trkpt lat="45.75626" lon="4.80585">
        <ele>276.4</ele>
        <time>2025-07-17T17:54:56.246000+02:00</time>
      </trkpt>
      <trkpt lat="45.75623" lon="4.80581">
        <ele>276.6</ele>
        <time>2025-07-17T17:54:57.247000+02:00</time>
      </trkpt>
      <trkpt lat="45.7562" lon="4.80574">
        <ele>276.7</ele>
        <time>2025-07-17T17:54:59.247000+02:00</time>
      </trkpt>
      <trkpt lat="45.75619" lon="4.80571">
        <ele>276.7</ele>
        <time>2025-07-17T17:55:01.246000+02:00</time>
      </trkpt>
      <trkpt lat="45.75618" lon="4.80569">
        <ele>276.7</ele>
        <time>2025-07-17T17:55:02.246000+02:00</time>
      </trkpt>
      <trkpt lat="45.75618" lon="4.80569">
        <ele>276.8</ele>
        <time>2025-07-17T17:55:03.246000+02:00</time>
      </trkpt>
      <trkpt lat="45.75617" lon="4.80569">
        <ele>276.8</ele>
        <time>2025-07-17T17:55:04.246000+02:00</time>
      </trkpt>
      <trkpt lat="45.75617" lon="4.80569">
        <ele>276.8</ele>
        <time>2025-07-17T17:55:05.246000+02:00</time>
      </trkpt>
      <trkpt lat="45.75617" lon="4.8057">
        <ele>276.8</ele>
        <time>2025-07-17T17:55:06.247000+02:00</time>
      </trkpt>
      <trkpt lat="45.75617" lon="4.8057">
        <ele>276.8</ele>
        <time>2025-07-17T17:55:08.246000+02:00</time>
      </trkpt>
      <trkpt lat="45.75617" lon="4.8057">
        <ele>276.8</ele>
        <time>2025-07-17T17:55:09.247000+02:00</time>
      </trkpt>
      <trkpt lat="45.75617" lon="4.80569">
        <ele>276.8</ele>
        <time>2025-07-17T17:55:11.246000+02:00</time>
      </trkpt>
      <trkpt lat="45.75617" lon="4.80566">
        <ele>276.8</ele>
        <time>2025-07-17T17:55:13.246000+02:00</time>
      </trkpt>
      <trkpt lat="45.75618" lon="4.80562">
        <ele>276.8</ele>
        <time>2025-07-17T17:55:14.246000+02:00</time>
      </trkpt>
      <trkpt lat="45.75618" lon="4.80559">
        <ele>276.7</ele>
        <time>2025-07-17T17:55:15.246000+02:00</time>
      </trkpt>
      <trkpt lat="45.75619" lon="4.80557">
        <ele>276.7</ele>
        <time>2025-07-17T17:55:16.246000+02:00</time>
      </trkpt>
      <trkpt lat="45.75619" lon="4.80551">
        <ele>276.8</ele>
        <time>2025-07-17T17:55:18.246000+02:00</time>
      </trkpt>
      <trkpt lat="45.75618" lon="4.80548">
        <ele>276.8</ele>
        <time>2025-07-17T17:55:19.246000+02:00</time>
      </trkpt>
      <trkpt lat="45.75618" lon="4.80545">
        <ele>276.8</ele>
        <time>2025-07-17T17:55:20.247000+02:00</time>
      </trkpt>
      <trkpt lat="45.75619" lon="4.80542">
        <ele>276.9</ele>
        <time>2025-07-17T17:55:21.247000+02:00</time>
      </trkpt>
      <trkpt lat="45.75619" lon="4.80539">
        <ele>276.9</ele>
        <time>2025-07-17T17:55:22.247000+02:00</time>
      </trkpt>
      <trkpt lat="45.75619" lon="4.80535">
        <ele>276.9</ele>
        <time>2025-07-17T17:55:24.247000+02:00</time>
      </trkpt>
      <trkpt lat="45.75619" lon="4.80535">
        <ele>276.9</ele>
        <time>2025-07-17T17:55:26.246000+02:00</time>
      </trkpt>
      <trkpt lat="45.75619" lon="4.80534">
        <ele>276.9</ele>
        <time>2025-07-17T17:55:27.246000+02:00</time>
      </trkpt>
      <trkpt lat="45.75618" lon="4.80531">
        <ele>277</ele>
        <time>2025-07-17T17:55:29.246000+02:00</time>
      </trkpt>
      <trkpt lat="45.75618" lon="4.80529">
        <ele>277</ele>
        <time>2025-07-17T17:55:30.246000+02:00</time>
      </trkpt>
      <trkpt lat="45.75618" lon="4.80527">
        <ele>277</ele>
        <time>2025-07-17T17:55:31.247000+02:00</time>
      </trkpt>
      <trkpt lat="45.75618" lon="4.8052">
        <ele>277.3</ele>
        <time>2025-07-17T17:55:33.246000+02:00</time>
      </trkpt>
      <trkpt lat="45.75618" lon="4.80515">
        <ele>277.5</ele>
        <time>2025-07-17T17:55:34.247000+02:00</time>
      </trkpt>
      <trkpt lat="45.75617" lon="4.8051">
        <ele>277.6</ele>
        <time>2025-07-17T17:55:35.247000+02:00</time>
      </trkpt>
      <trkpt lat="45.75617" lon="4.80499">
        <ele>278</ele>
        <time>2025-07-17T17:55:37.247000+02:00</time>
      </trkpt>
      <trkpt lat="45.75617" lon="4.80491">
        <ele>278</ele>
        <time>2025-07-17T17:55:39.246000+02:00</time>
      </trkpt>
      <trkpt lat="45.75617" lon="4.80485">
        <ele>278</ele>
        <time>2025-07-17T17:55:41.246000+02:00</time>
      </trkpt>
      <trkpt lat="45.75617" lon="4.80482">
        <ele>278</ele>
        <time>2025-07-17T17:55:42.246000+02:00</time>
      </trkpt>
      <trkpt lat="45.75617" lon="4.80479">
        <ele>278</ele>
        <time>2025-07-17T17:55:43.246000+02:00</time>
      </trkpt>
      <trkpt lat="45.75618" lon="4.80473">
        <ele>278</ele>
        <time>2025-07-17T17:55:45.245000+02:00</time>
      </trkpt>
      <trkpt lat="45.75619" lon="4.80469">
        <ele>278</ele>
        <time>2025-07-17T17:55:46.245000+02:00</time>
      </trkpt>
      <trkpt lat="45.75619" lon="4.80465">
        <ele>278</ele>
        <time>2025-07-17T17:55:47.248000+02:00</time>
      </trkpt>
      <trkpt lat="45.75621" lon="4.80461">
        <ele>278</ele>
        <time>2025-07-17T17:55:49.246000+02:00</time>
      </trkpt>
      <trkpt lat="45.75622" lon="4.8046">
        <ele>278</ele>
        <time>2025-07-17T17:55:50.247000+02:00</time>
      </trkpt>
      <trkpt lat="45.75622" lon="4.80459">
        <ele>278</ele>
        <time>2025-07-17T17:55:51.247000+02:00</time>
      </trkpt>
      <trkpt lat="45.75622" lon="4.80457">
        <ele>278</ele>
        <time>2025-07-17T17:55:53.246000+02:00</time>
      </trkpt>
      <trkpt lat="45.75622" lon="4.80457">
        <ele>278</ele>
        <time>2025-07-17T17:55:54.246000+02:00</time>
      </trkpt>
      <trkpt lat="45.75622" lon="4.80457">
        <ele>278</ele>
        <time>2025-07-17T17:55:55.246000+02:00</time>
      </trkpt>
      <trkpt lat="45.75623" lon="4.80456">
        <ele>278</ele>
        <time>2025-07-17T17:55:56.246000+02:00</time>
      </trkpt>
      <trkpt lat="45.75623" lon="4.80456">
        <ele>278</ele>
        <time>2025-07-17T17:55:57.247000+02:00</time>
      </trkpt>
      <trkpt lat="45.75623" lon="4.80456">
        <ele>278</ele>
        <time>2025-07-17T17:55:59.246000+02:00</time>
      </trkpt>
      <trkpt lat="45.75623" lon="4.80456">
        <ele>278</ele>
        <time>2025-07-17T17:56:00.246000+02:00</time>
      </trkpt>
      <trkpt lat="45.75623" lon="4.80456">
        <ele>278</ele>
        <time>2025-07-17T17:56:01.246000+02:00</time>
      </trkpt>
      <trkpt lat="45.75623" lon="4.80456">
        <ele>278</ele>
        <time>2025-07-17T17:56:02.246000+02:00</time>
      </trkpt>
      <trkpt lat="45.75623" lon="4.80457">
        <ele>278</ele>
        <time>2025-07-17T17:56:04.246000+02:00</time>
      </trkpt>
      <trkpt lat="45.75623" lon="4.80457">
        <ele>278</ele>
        <time>2025-07-17T17:56:05.246000+02:00</time>
      </trkpt>
      <trkpt lat="45.75623" lon="4.80457">
        <ele>278</ele>
        <time>2025-07-17T17:56:06.246000+02:00</time>
      </trkpt>
      <trkpt lat="45.75623" lon="4.80457">
        <ele>278</ele>
        <time>2025-07-17T17:56:08.245000+02:00</time>
      </trkpt>
      <trkpt lat="45.75623" lon="4.80457">
        <ele>278</ele>
        <time>2025-07-17T17:56:09.245000+02:00</time>
      </trkpt>
      <trkpt lat="45.75623" lon="4.80457">
        <ele>278</ele>
        <time>2025-07-17T17:56:11.245000+02:00</time>
      </trkpt>
      <trkpt lat="45.75623" lon="4.80457">
        <ele>278</ele>
        <time>2025-07-17T17:56:12.247000+02:00</time>
      </trkpt>
      <trkpt lat="45.75623" lon="4.80457">
        <ele>278</ele>
        <time>2025-07-17T17:56:14.246000+02:00</time>
      </trkpt>
      <trkpt lat="45.75623" lon="4.80457">
        <ele>278</ele>
        <time>2025-07-17T17:56:16.246000+02:00</time>
      </trkpt>
      <trkpt lat="45.75623" lon="4.80457">
        <ele>278</ele>
        <time>2025-07-17T17:56:18.245000+02:00</time>
      </trkpt>
      <trkpt lat="45.75623" lon="4.80457">
        <ele>278</ele>
        <time>2025-07-17T17:56:19.246000+02:00</time>
      </trkpt>
      <trkpt lat="45.75623" lon="4.80457">
        <ele>278</ele>
        <time>2025-07-17T17:56:21.245000+02:00</time>
      </trkpt>
      <trkpt lat="45.75623" lon="4.80457">
        <ele>278</ele>
        <time>2025-07-17T17:56:23.246000+02:00</time>
      </trkpt>
      <trkpt lat="45.75623" lon="4.80457">
        <ele>278</ele>
        <time>2025-07-17T17:56:24.246000+02:00</time>
      </trkpt>
      <trkpt lat="45.75623" lon="4.80457">
        <ele>278</ele>
        <time>2025-07-17T17:56:27.247000+02:00</time>
      </trkpt>
      <trkpt lat="45.75623" lon="4.80456">
        <ele>278</ele>
        <time>2025-07-17T17:56:30.246000+02:00</time>
      </trkpt>
      <trkpt lat="45.75623" lon="4.8045">
        <ele>278</ele>
        <time>2025-07-17T17:56:32.246000+02:00</time>
      </trkpt>
      <trkpt lat="45.75623" lon="4.80446">
        <ele>278</ele>
        <time>2025-07-17T17:56:33.246000+02:00</time>
      </trkpt>
      <trkpt lat="45.75624" lon="4.80442">
        <ele>278</ele>
        <time>2025-07-17T17:56:34.246000+02:00</time>
      </trkpt>
      <trkpt lat="45.75624" lon="4.80437">
        <ele>278</ele>
        <time>2025-07-17T17:56:35.246000+02:00</time>
      </trkpt>
      <trkpt lat="45.75625" lon="4.80426">
        <ele>278</ele>
        <time>2025-07-17T17:56:37.246000+02:00</time>
      </trkpt>
      <trkpt lat="45.75626" lon="4.80419">
        <ele>278</ele>
        <time>2025-07-17T17:56:38.246000+02:00</time>
      </trkpt>
      <trkpt lat="45.75628" lon="4.80403">
        <ele>278.3</ele>
        <time>2025-07-17T17:56:40.247000+02:00</time>
      </trkpt>
      <trkpt lat="45.7563" lon="4.80386">
        <ele>278.7</ele>
        <time>2025-07-17T17:56:42.246000+02:00</time>
      </trkpt>
      <trkpt lat="45.7563" lon="4.80376">
        <ele>278.7</ele>
        <time>2025-07-17T17:56:43.246000+02:00</time>
      </trkpt>
      <trkpt lat="45.7563" lon="4.80367">
        <ele>278.7</ele>
        <time>2025-07-17T17:56:44.246000+02:00</time>
      </trkpt>
      <trkpt lat="45.7563" lon="4.80347">
        <ele>278.3</ele>
        <time>2025-07-17T17:56:46.247000+02:00</time>
      </trkpt>
      <trkpt lat="45.7563" lon="4.80327">
        <ele>277.8</ele>
        <time>2025-07-17T17:56:48.246000+02:00</time>
      </trkpt>
      <trkpt lat="45.75629" lon="4.80316">
        <ele>277.4</ele>
        <time>2025-07-17T17:56:49.246000+02:00</time>
      </trkpt>
      <trkpt lat="45.75628" lon="4.80294">
        <ele>276.6</ele>
        <time>2025-07-17T17:56:51.245000+02:00</time>
      </trkpt>
      <trkpt lat="45.75627" lon="4.80283">
        <ele>276.2</ele>
        <time>2025-07-17T17:56:52.246000+02:00</time>
      </trkpt>
      <trkpt lat="45.75627" lon="4.80259">
        <ele>276</ele>
        <time>2025-07-17T17:56:54.246000+02:00</time>
      </trkpt>
      <trkpt lat="45.75628" lon="4.80247">
        <ele>275.8</ele>
        <time>2025-07-17T17:56:55.248000+02:00</time>
      </trkpt>
      <trkpt lat="45.75628" lon="4.80222">
        <ele>274.4</ele>
        <time>2025-07-17T17:56:57.248000+02:00</time>
      </trkpt>
      <trkpt lat="45.75627" lon="4.80196">
        <ele>274</ele>
        <time>2025-07-17T17:56:59.247000+02:00</time>
      </trkpt>
      <trkpt lat="45.75626" lon="4.80182">
        <ele>273.8</ele>
        <time>2025-07-17T17:57:00.248000+02:00</time>
      </trkpt>
      <trkpt lat="45.75626" lon="4.80156">
        <ele>273.3</ele>
        <time>2025-07-17T17:57:02.245000+02:00</time>
      </trkpt>
      <trkpt lat="45.75626" lon="4.80144">
        <ele>273.1</ele>
        <time>2025-07-17T17:57:03.250000+02:00</time>
      </trkpt>
      <trkpt lat="45.75627" lon="4.80118">
        <ele>272.6</ele>
        <time>2025-07-17T17:57:05.249000+02:00</time>
      </trkpt>
      <trkpt lat="45.7563" lon="4.80093">
        <ele>272.3</ele>
        <time>2025-07-17T17:57:07.245000+02:00</time>
      </trkpt>
      <trkpt lat="45.75631" lon="4.80081">
        <ele>272.3</ele>
        <time>2025-07-17T17:57:08.245000+02:00</time>
      </trkpt>
      <trkpt lat="45.75633" lon="4.80069">
        <ele>272.2</ele>
        <time>2025-07-17T17:57:09.246000+02:00</time>
      </trkpt>
      <trkpt lat="45.75634" lon="4.80057">
        <ele>272.2</ele>
        <time>2025-07-17T17:57:10.246000+02:00</time>
      </trkpt>
      <trkpt lat="45.75637" lon="4.80036">
        <ele>272.1</ele>
        <time>2025-07-17T17:57:12.245000+02:00</time>
      </trkpt>
      <trkpt lat="45.75639" lon="4.80025">
        <ele>272</ele>
        <time>2025-07-17T17:57:13.245000+02:00</time>
      </trkpt>
      <trkpt lat="45.75641" lon="4.80014">
        <ele>272</ele>
        <time>2025-07-17T17:57:14.246000+02:00</time>
      </trkpt>
      <trkpt lat="45.75643" lon="4.80003">
        <ele>272.1</ele>
        <time>2025-07-17T17:57:15.246000+02:00</time>
      </trkpt>
      <trkpt lat="45.75645" lon="4.79982">
        <ele>272.7</ele>
        <time>2025-07-17T17:57:17.245000+02:00</time>
      </trkpt>
      <trkpt lat="45.75649" lon="4.79962">
        <ele>273</ele>
        <time>2025-07-17T17:57:19.245000+02:00</time>
      </trkpt>
      <trkpt lat="45.7565" lon="4.79953">
        <ele>273</ele>
        <time>2025-07-17T17:57:20.246000+02:00</time>
      </trkpt>
      <trkpt lat="45.75652" lon="4.79944">
        <ele>273</ele>
        <time>2025-07-17T17:57:21.246000+02:00</time>
      </trkpt>
      <trkpt lat="45.75653" lon="4.79934">
        <ele>273</ele>
        <time>2025-07-17T17:57:22.246000+02:00</time>
      </trkpt>
      <trkpt lat="45.75654" lon="4.79916">
        <ele>273</ele>
        <time>2025-07-17T17:57:24.245000+02:00</time>
      </trkpt>
      <trkpt lat="45.75654" lon="4.79907">
        <ele>273</ele>
        <time>2025-07-17T17:57:25.246000+02:00</time>
      </trkpt>
      <trkpt lat="45.75654" lon="4.79898">
        <ele>273</ele>
        <time>2025-07-17T17:57:26.247000+02:00</time>
      </trkpt>
      <trkpt lat="45.75653" lon="4.7988">
        <ele>273</ele>
        <time>2025-07-17T17:57:28.246000+02:00</time>
      </trkpt>
      <trkpt lat="45.75652" lon="4.79871">
        <ele>273</ele>
        <time>2025-07-17T17:57:29.246000+02:00</time>
      </trkpt>
      <trkpt lat="45.75651" lon="4.79852">
        <ele>273.1</ele>
        <time>2025-07-17T17:57:31.244000+02:00</time>
      </trkpt>
      <trkpt lat="45.7565" lon="4.79843">
        <ele>273.3</ele>
        <time>2025-07-17T17:57:32.247000+02:00</time>
      </trkpt>
      <trkpt lat="45.75647" lon="4.79825">
        <ele>273.3</ele>
        <time>2025-07-17T17:57:34.245000+02:00</time>
      </trkpt>
      <trkpt lat="45.75646" lon="4.79816">
        <ele>273.3</ele>
        <time>2025-07-17T17:57:35.245000+02:00</time>
      </trkpt>
      <trkpt lat="45.75645" lon="4.79807">
        <ele>273.2</ele>
        <time>2025-07-17T17:57:36.245000+02:00</time>
      </trkpt>
      <trkpt lat="45.75645" lon="4.79798">
        <ele>273.2</ele>
        <time>2025-07-17T17:57:37.246000+02:00</time>
      </trkpt>
      <trkpt lat="45.75645" lon="4.79788">
        <ele>273.2</ele>
        <time>2025-07-17T17:57:38.246000+02:00</time>
      </trkpt>
      <trkpt lat="45.75644" lon="4.79779">
        <ele>273.2</ele>
        <time>2025-07-17T17:57:39.246000+02:00</time>
      </trkpt>
      <trkpt lat="45.75643" lon="4.7977">
        <ele>273.4</ele>
        <time>2025-07-17T17:57:40.246000+02:00</time>
      </trkpt>
      <trkpt lat="45.75643" lon="4.79752">
        <ele>274.1</ele>
        <time>2025-07-17T17:57:42.247000+02:00</time>
      </trkpt>
      <trkpt lat="45.75643" lon="4.79738">
        <ele>274.1</ele>
        <time>2025-07-17T17:57:44.247000+02:00</time>
      </trkpt>
      <trkpt lat="45.75643" lon="4.79729">
        <ele>274</ele>
        <time>2025-07-17T17:57:46.244000+02:00</time>
      </trkpt>
      <trkpt lat="45.75643" lon="4.79726">
        <ele>274</ele>
        <time>2025-07-17T17:57:47.245000+02:00</time>
      </trkpt>
      <trkpt lat="45.75643" lon="4.79724">
        <ele>274</ele>
        <time>2025-07-17T17:57:48.245000+02:00</time>
      </trkpt>
      <trkpt lat="45.75643" lon="4.79722">
        <ele>274</ele>
        <time>2025-07-17T17:57:49.245000+02:00</time>
      </trkpt>
      <trkpt lat="45.75643" lon="4.79721">
        <ele>274</ele>
        <time>2025-07-17T17:57:50.246000+02:00</time>
      </trkpt>
      <trkpt lat="45.75643" lon="4.79721">
        <ele>273.9</ele>
        <time>2025-07-17T17:57:51.246000+02:00</time>
      </trkpt>
      <trkpt lat="45.75642" lon="4.7972">
        <ele>273.9</ele>
        <time>2025-07-17T17:57:53.244000+02:00</time>
      </trkpt>
      <trkpt lat="45.75642" lon="4.7972">
        <ele>273.9</ele>
        <time>2025-07-17T17:57:54.245000+02:00</time>
      </trkpt>
      <trkpt lat="45.75642" lon="4.7972">
        <ele>273.9</ele>
        <time>2025-07-17T17:57:56.245000+02:00</time>
      </trkpt>
      <trkpt lat="45.75642" lon="4.7972">
        <ele>273.9</ele>
        <time>2025-07-17T17:57:57.245000+02:00</time>
      </trkpt>
      <trkpt lat="45.75642" lon="4.7972">
        <ele>273.9</ele>
        <time>2025-07-17T17:57:58.245000+02:00</time>
      </trkpt>
      <trkpt lat="45.75642" lon="4.7972">
        <ele>273.9</ele>
        <time>2025-07-17T17:57:59.245000+02:00</time>
      </trkpt>
      <trkpt lat="45.75642" lon="4.7972">
        <ele>273.9</ele>
        <time>2025-07-17T17:58:00.246000+02:00</time>
      </trkpt>
      <trkpt lat="45.75642" lon="4.7972">
        <ele>273.9</ele>
        <time>2025-07-17T17:58:02.245000+02:00</time>
      </trkpt>
      <trkpt lat="45.75642" lon="4.7972">
        <ele>273.9</ele>
        <time>2025-07-17T17:58:03.245000+02:00</time>
      </trkpt>
      <trkpt lat="45.75642" lon="4.7972">
        <ele>273.9</ele>
        <time>2025-07-17T17:58:04.246000+02:00</time>
      </trkpt>
      <trkpt lat="45.75641" lon="4.79715">
        <ele>273.8</ele>
        <time>2025-07-17T17:58:06.246000+02:00</time>
      </trkpt>
      <trkpt lat="45.75641" lon="4.79704">
        <ele>273.4</ele>
        <time>2025-07-17T17:58:08.246000+02:00</time>
      </trkpt>
      <trkpt lat="45.7564" lon="4.7969">
        <ele>273</ele>
        <time>2025-07-17T17:58:10.246000+02:00</time>
      </trkpt>
      <trkpt lat="45.75638" lon="4.79673">
        <ele>273</ele>
        <time>2025-07-17T17:58:12.244000+02:00</time>
      </trkpt>
      <trkpt lat="45.75637" lon="4.79664">
        <ele>273.1</ele>
        <time>2025-07-17T17:58:13.245000+02:00</time>
      </trkpt>
      <trkpt lat="45.75636" lon="4.79654">
        <ele>273.4</ele>
        <time>2025-07-17T17:58:14.246000+02:00</time>
      </trkpt>
      <trkpt lat="45.75633" lon="4.79636">
        <ele>273.8</ele>
        <time>2025-07-17T17:58:16.244000+02:00</time>
      </trkpt>
      <trkpt lat="45.75632" lon="4.79626">
        <ele>273.7</ele>
        <time>2025-07-17T17:58:17.245000+02:00</time>
      </trkpt>
      <trkpt lat="45.75631" lon="4.79616">
        <ele>273.7</ele>
        <time>2025-07-17T17:58:18.246000+02:00</time>
      </trkpt>
      <trkpt lat="45.75631" lon="4.79597">
        <ele>273.4</ele>
        <time>2025-07-17T17:58:20.246000+02:00</time>
      </trkpt>
      <trkpt lat="45.75634" lon="4.79579">
        <ele>273</ele>
        <time>2025-07-17T17:58:22.245000+02:00</time>
      </trkpt>
      <trkpt lat="45.75636" lon="4.79569">
        <ele>273</ele>
        <time>2025-07-17T17:58:23.247000+02:00</time>
      </trkpt>
      <trkpt lat="45.75641" lon="4.79552">
        <ele>272.9</ele>
        <time>2025-07-17T17:58:25.246000+02:00</time>
      </trkpt>
      <trkpt lat="45.75646" lon="4.79534">
        <ele>272.5</ele>
        <time>2025-07-17T17:58:27.245000+02:00</time>
      </trkpt>
      <trkpt lat="45.75649" lon="4.79525">
        <ele>272.4</ele>
        <time>2025-07-17T17:58:28.245000+02:00</time>
      </trkpt>
      <trkpt lat="45.75651" lon="4.79516">
        <ele>272.4</ele>
        <time>2025-07-17T17:58:29.245000+02:00</time>
      </trkpt>
      <trkpt lat="45.75653" lon="4.79508">
        <ele>272.5</ele>
        <time>2025-07-17T17:58:30.246000+02:00</time>
      </trkpt>
      <trkpt lat="45.75658" lon="4.7949">
        <ele>272.4</ele>
        <time>2025-07-17T17:58:32.245000+02:00</time>
      </trkpt>
      <trkpt lat="45.75662" lon="4.79472">
        <ele>272</ele>
        <time>2025-07-17T17:58:34.246000+02:00</time>
      </trkpt>
      <trkpt lat="45.75663" lon="4.79454">
        <ele>272.1</ele>
        <time>2025-07-17T17:58:36.244000+02:00</time>
      </trkpt>
      <trkpt lat="45.75662" lon="4.79444">
        <ele>272.2</ele>
        <time>2025-07-17T17:58:37.245000+02:00</time>
      </trkpt>
      <trkpt lat="45.7566" lon="4.79435">
        <ele>272.2</ele>
        <time>2025-07-17T17:58:38.246000+02:00</time>
      </trkpt>
      <trkpt lat="45.75656" lon="4.79417">
        <ele>272</ele>
        <time>2025-07-17T17:58:40.246000+02:00</time>
      </trkpt>
      <trkpt lat="45.75653" lon="4.79399">
        <ele>271.7</ele>
        <time>2025-07-17T17:58:42.246000+02:00</time>
      </trkpt>
      <trkpt lat="45.75649" lon="4.79381">
        <ele>271.4</ele>
        <time>2025-07-17T17:58:44.245000+02:00</time>
      </trkpt>
      <trkpt lat="45.75647" lon="4.79372">
        <ele>271.3</ele>
        <time>2025-07-17T17:58:45.245000+02:00</time>
      </trkpt>
      <trkpt lat="45.75643" lon="4.79354">
        <ele>271.1</ele>
        <time>2025-07-17T17:58:47.244000+02:00</time>
      </trkpt>
      <trkpt lat="45.75642" lon="4.79345">
        <ele>271</ele>
        <time>2025-07-17T17:58:48.245000+02:00</time>
      </trkpt>
      <trkpt lat="45.7564" lon="4.79336">
        <ele>271</ele>
        <time>2025-07-17T17:58:49.246000+02:00</time>
      </trkpt>
      <trkpt lat="45.75636" lon="4.79317">
        <ele>271.1</ele>
        <time>2025-07-17T17:58:51.245000+02:00</time>
      </trkpt>
      <trkpt lat="45.75635" lon="4.79308">
        <ele>271.2</ele>
        <time>2025-07-17T17:58:52.245000+02:00</time>
      </trkpt>
      <trkpt lat="45.75633" lon="4.79299">
        <ele>271</ele>
        <time>2025-07-17T17:58:53.245000+02:00</time>
      </trkpt>
      <trkpt lat="45.75629" lon="4.79281">
        <ele>270.8</ele>
        <time>2025-07-17T17:58:55.245000+02:00</time>
      </trkpt>
      <trkpt lat="45.75627" lon="4.79272">
        <ele>270.8</ele>
        <time>2025-07-17T17:58:56.246000+02:00</time>
      </trkpt>
      <trkpt lat="45.75624" lon="4.79254">
        <ele>270.6</ele>
        <time>2025-07-17T17:58:58.245000+02:00</time>
      </trkpt>
      <trkpt lat="45.7562" lon="4.79236">
        <ele>270.3</ele>
        <time>2025-07-17T17:59:00.245000+02:00</time>
      </trkpt>
      <trkpt lat="45.75618" lon="4.79227">
        <ele>270.1</ele>
        <time>2025-07-17T17:59:01.245000+02:00</time>
      </trkpt>
      <trkpt lat="45.75617" lon="4.79218">
        <ele>270</ele>
        <time>2025-07-17T17:59:02.245000+02:00</time>
      </trkpt>
      <trkpt lat="45.75615" lon="4.79209">
        <ele>269.9</ele>
        <time>2025-07-17T17:59:03.245000+02:00</time>
      </trkpt>
      <trkpt lat="45.75612" lon="4.7919">
        <ele>270</ele>
        <time>2025-07-17T17:59:05.244000+02:00</time>
      </trkpt>
      <trkpt lat="45.7561" lon="4.79181">
        <ele>270.1</ele>
        <time>2025-07-17T17:59:06.244000+02:00</time>
      </trkpt>
      <trkpt lat="45.75608" lon="4.79171">
        <ele>270.1</ele>
        <time>2025-07-17T17:59:07.244000+02:00</time>
      </trkpt>
      <trkpt lat="45.75606" lon="4.79162">
        <ele>270</ele>
        <time>2025-07-17T17:59:08.244000+02:00</time>
      </trkpt>
      <trkpt lat="45.75604" lon="4.79153">
        <ele>269.9</ele>
        <time>2025-07-17T17:59:09.244000+02:00</time>
      </trkpt>
      <trkpt lat="45.75603" lon="4.79145">
        <ele>269.8</ele>
        <time>2025-07-17T17:59:10.245000+02:00</time>
      </trkpt>
      <trkpt lat="45.75602" lon="4.79138">
        <ele>269.6</ele>
        <time>2025-07-17T17:59:11.245000+02:00</time>
      </trkpt>
      <trkpt lat="45.75602" lon="4.7913">
        <ele>269.3</ele>
        <time>2025-07-17T17:59:12.245000+02:00</time>
      </trkpt>
      <trkpt lat="45.75602" lon="4.79122">
        <ele>269.1</ele>
        <time>2025-07-17T17:59:13.245000+02:00</time>
      </trkpt>
      <trkpt lat="45.756" lon="4.79105">
        <ele>268.5</ele>
        <time>2025-07-17T17:59:15.245000+02:00</time>
      </trkpt>
      <trkpt lat="45.75596" lon="4.79087">
        <ele>267.7</ele>
        <time>2025-07-17T17:59:17.244000+02:00</time>
      </trkpt>
      <trkpt lat="45.75596" lon="4.79078">
        <ele>267.2</ele>
        <time>2025-07-17T17:59:18.245000+02:00</time>
      </trkpt>
      <trkpt lat="45.75597" lon="4.7907">
        <ele>266.5</ele>
        <time>2025-07-17T17:59:19.245000+02:00</time>
      </trkpt>
      <trkpt lat="45.756" lon="4.7905">
        <ele>265</ele>
        <time>2025-07-17T17:59:21.247000+02:00</time>
      </trkpt>
      <trkpt lat="45.75603" lon="4.79027">
        <ele>263.8</ele>
        <time>2025-07-17T17:59:23.245000+02:00</time>
      </trkpt>
      <trkpt lat="45.75606" lon="4.79002">
        <ele>261.7</ele>
        <time>2025-07-17T17:59:25.245000+02:00</time>
      </trkpt>
      <trkpt lat="45.75606" lon="4.78988">
        <ele>261</ele>
        <time>2025-07-17T17:59:26.245000+02:00</time>
      </trkpt>
      <trkpt lat="45.75607" lon="4.78975">
        <ele>260.4</ele>
        <time>2025-07-17T17:59:27.246000+02:00</time>
      </trkpt>
      <trkpt lat="45.75607" lon="4.78947">
        <ele>258.6</ele>
        <time>2025-07-17T17:59:29.246000+02:00</time>
      </trkpt>
      <trkpt lat="45.75606" lon="4.78918">
        <ele>256.3</ele>
        <time>2025-07-17T17:59:31.244000+02:00</time>
      </trkpt>
      <trkpt lat="45.75605" lon="4.78904">
        <ele>255.6</ele>
        <time>2025-07-17T17:59:32.245000+02:00</time>
      </trkpt>
      <trkpt lat="45.75604" lon="4.78889">
        <ele>255</ele>
        <time>2025-07-17T17:59:33.247000+02:00</time>
      </trkpt>
      <trkpt lat="45.75603" lon="4.7886">
        <ele>253</ele>
        <time>2025-07-17T17:59:35.246000+02:00</time>
      </trkpt>
      <trkpt lat="45.75602" lon="4.78835">
        <ele>251.4</ele>
        <time>2025-07-17T17:59:37.244000+02:00</time>
      </trkpt>
      <trkpt lat="45.75601" lon="4.78824">
        <ele>250.9</ele>
        <time>2025-07-17T17:59:38.245000+02:00</time>
      </trkpt>
      <trkpt lat="45.75602" lon="4.78815">
        <ele>250.5</ele>
        <time>2025-07-17T17:59:39.245000+02:00</time>
      </trkpt>
      <trkpt lat="45.756" lon="4.78803">
        <ele>249.8</ele>
        <time>2025-07-17T17:59:41.245000+02:00</time>
      </trkpt>
      <trkpt lat="45.75601" lon="4.78799">
        <ele>249.6</ele>
        <time>2025-07-17T17:59:42.245000+02:00</time>
      </trkpt>
      <trkpt lat="45.75603" lon="4.78794">
        <ele>249.3</ele>
        <time>2025-07-17T17:59:43.245000+02:00</time>
      </trkpt>
      <trkpt lat="45.75609" lon="4.78781">
        <ele>248.3</ele>
        <time>2025-07-17T17:59:45.246000+02:00</time>
      </trkpt>
      <trkpt lat="45.75617" lon="4.78764">
        <ele>247.9</ele>
        <time>2025-07-17T17:59:47.245000+02:00</time>
      </trkpt>
      <trkpt lat="45.75625" lon="4.78745">
        <ele>247.1</ele>
        <time>2025-07-17T17:59:49.244000+02:00</time>
      </trkpt>
      <trkpt lat="45.75629" lon="4.78735">
        <ele>246.3</ele>
        <time>2025-07-17T17:59:50.244000+02:00</time>
      </trkpt>
      <trkpt lat="45.75634" lon="4.78725">
        <ele>245.4</ele>
        <time>2025-07-17T17:59:51.244000+02:00</time>
      </trkpt>
      <trkpt lat="45.75638" lon="4.78714">
        <ele>245</ele>
        <time>2025-07-17T17:59:52.244000+02:00</time>
      </trkpt>
      <trkpt lat="45.75643" lon="4.78703">
        <ele>245</ele>
        <time>2025-07-17T17:59:53.246000+02:00</time>
      </trkpt>
      <trkpt lat="45.75652" lon="4.7868">
        <ele>244.2</ele>
        <time>2025-07-17T17:59:55.244000+02:00</time>
      </trkpt>
      <trkpt lat="45.75657" lon="4.78669">
        <ele>243.5</ele>
        <time>2025-07-17T17:59:56.245000+02:00</time>
      </trkpt>
      <trkpt lat="45.75662" lon="4.78658">
        <ele>242.8</ele>
        <time>2025-07-17T17:59:57.245000+02:00</time>
      </trkpt>
      <trkpt lat="45.75667" lon="4.78646">
        <ele>242.2</ele>
        <time>2025-07-17T17:59:58.245000+02:00</time>
      </trkpt>
      <trkpt lat="45.75672" lon="4.78634">
        <ele>241.8</ele>
        <time>2025-07-17T17:59:59.245000+02:00</time>
      </trkpt>
      <trkpt lat="45.75681" lon="4.78612">
        <ele>241</ele>
        <time>2025-07-17T18:00:01.245000+02:00</time>
      </trkpt>
      <trkpt lat="45.75685" lon="4.78602">
        <ele>240.7</ele>
        <time>2025-07-17T18:00:02.246000+02:00</time>
      </trkpt>
      <trkpt lat="45.75694" lon="4.78585">
        <ele>240.1</ele>
        <time>2025-07-17T18:00:04.245000+02:00</time>
      </trkpt>
      <trkpt lat="45.75701" lon="4.7857">
        <ele>240.5</ele>
        <time>2025-07-17T18:00:06.244000+02:00</time>
      </trkpt>
      <trkpt lat="45.75702" lon="4.78561">
        <ele>240.6</ele>
        <time>2025-07-17T18:00:07.244000+02:00</time>
      </trkpt>
      <trkpt lat="45.75704" lon="4.78552">
        <ele>240.6</ele>
        <time>2025-07-17T18:00:08.245000+02:00</time>
      </trkpt>
      <trkpt lat="45.75705" lon="4.78534">
        <ele>240.3</ele>
        <time>2025-07-17T18:00:10.244000+02:00</time>
      </trkpt>
      <trkpt lat="45.75705" lon="4.78524">
        <ele>240.1</ele>
        <time>2025-07-17T18:00:11.246000+02:00</time>
      </trkpt>
      <trkpt lat="45.75705" lon="4.78504">
        <ele>240.1</ele>
        <time>2025-07-17T18:00:13.245000+02:00</time>
      </trkpt>
      <trkpt lat="45.75705" lon="4.78493">
        <ele>240</ele>
        <time>2025-07-17T18:00:14.245000+02:00</time>
      </trkpt>
      <trkpt lat="45.75706" lon="4.78483">
        <ele>239.9</ele>
        <time>2025-07-17T18:00:15.246000+02:00</time>
      </trkpt>
      <trkpt lat="45.75706" lon="4.78461">
        <ele>239.5</ele>
        <time>2025-07-17T18:00:17.243000+02:00</time>
      </trkpt>
      <trkpt lat="45.75706" lon="4.78451">
        <ele>239.2</ele>
        <time>2025-07-17T18:00:18.244000+02:00</time>
      </trkpt>
      <trkpt lat="45.75707" lon="4.7843">
        <ele>239.2</ele>
        <time>2025-07-17T18:00:20.246000+02:00</time>
      </trkpt>
      <trkpt lat="45.75705" lon="4.7841">
        <ele>238.8</ele>
        <time>2025-07-17T18:00:22.244000+02:00</time>
      </trkpt>
      <trkpt lat="45.75704" lon="4.78399">
        <ele>238.3</ele>
        <time>2025-07-17T18:00:23.244000+02:00</time>
      </trkpt>
      <trkpt lat="45.75702" lon="4.78389">
        <ele>237.8</ele>
        <time>2025-07-17T18:00:24.244000+02:00</time>
      </trkpt>
      <trkpt lat="45.75699" lon="4.78379">
        <ele>237.8</ele>
        <time>2025-07-17T18:00:25.245000+02:00</time>
      </trkpt>
      <trkpt lat="45.75694" lon="4.78358">
        <ele>237.9</ele>
        <time>2025-07-17T18:00:27.245000+02:00</time>
      </trkpt>
      <trkpt lat="45.75689" lon="4.78338">
        <ele>236.5</ele>
        <time>2025-07-17T18:00:29.244000+02:00</time>
      </trkpt>
      <trkpt lat="45.75686" lon="4.78328">
        <ele>236.1</ele>
        <time>2025-07-17T18:00:30.245000+02:00</time>
      </trkpt>
      <trkpt lat="45.75681" lon="4.78309">
        <ele>235.6</ele>
        <time>2025-07-17T18:00:32.245000+02:00</time>
      </trkpt>
      <trkpt lat="45.75679" lon="4.78301">
        <ele>235.4</ele>
        <time>2025-07-17T18:00:33.245000+02:00</time>
      </trkpt>
      <trkpt lat="45.75677" lon="4.78294">
        <ele>235.1</ele>
        <time>2025-07-17T18:00:34.245000+02:00</time>
      </trkpt>
      <trkpt lat="45.75676" lon="4.78287">
        <ele>235</ele>
        <time>2025-07-17T18:00:35.245000+02:00</time>
      </trkpt>
      <trkpt lat="45.75674" lon="4.78274">
        <ele>234.6</ele>
        <time>2025-07-17T18:00:37.243000+02:00</time>
      </trkpt>
      <trkpt lat="45.75674" lon="4.7827">
        <ele>234.3</ele>
        <time>2025-07-17T18:00:38.244000+02:00</time>
      </trkpt>
      <trkpt lat="45.75673" lon="4.78266">
        <ele>234</ele>
        <time>2025-07-17T18:00:39.244000+02:00</time>
      </trkpt>
      <trkpt lat="45.75673" lon="4.78264">
        <ele>233.7</ele>
        <time>2025-07-17T18:00:40.245000+02:00</time>
      </trkpt>
      <trkpt lat="45.75673" lon="4.78262">
        <ele>233.6</ele>
        <time>2025-07-17T18:00:41.245000+02:00</time>
      </trkpt>
      <trkpt lat="45.75672" lon="4.78256">
        <ele>233.1</ele>
        <time>2025-07-17T18:00:43.245000+02:00</time>
      </trkpt>
      <trkpt lat="45.75671" lon="4.78247">
        <ele>232.4</ele>
        <time>2025-07-17T18:00:45.244000+02:00</time>
      </trkpt>
      <trkpt lat="45.75671" lon="4.78243">
        <ele>232</ele>
        <time>2025-07-17T18:00:46.245000+02:00</time>
      </trkpt>
      <trkpt lat="45.75672" lon="4.78235">
        <ele>231.2</ele>
        <time>2025-07-17T18:00:48.244000+02:00</time>
      </trkpt>
      <trkpt lat="45.75672" lon="4.7823">
        <ele>230.8</ele>
        <time>2025-07-17T18:00:50.245000+02:00</time>
      </trkpt>
      <trkpt lat="45.75672" lon="4.78231">
        <ele>230.8</ele>
        <time>2025-07-17T18:00:52.245000+02:00</time>
      </trkpt>
      <trkpt lat="45.75672" lon="4.78231">
        <ele>230.9</ele>
        <time>2025-07-17T18:00:54.244000+02:00</time>
      </trkpt>
      <trkpt lat="45.75672" lon="4.78231">
        <ele>230.9</ele>
        <time>2025-07-17T18:00:55.244000+02:00</time>
      </trkpt>
      <trkpt lat="45.75672" lon="4.78231">
        <ele>230.9</ele>
        <time>2025-07-17T18:00:56.244000+02:00</time>
      </trkpt>
      <trkpt lat="45.75672" lon="4.78231">
        <ele>230.9</ele>
        <time>2025-07-17T18:00:57.245000+02:00</time>
      </trkpt>
      <trkpt lat="45.75672" lon="4.78232">
        <ele>231</ele>
        <time>2025-07-17T18:00:59.245000+02:00</time>
      </trkpt>
      <trkpt lat="45.75672" lon="4.78232">
        <ele>231</ele>
        <time>2025-07-17T18:01:01.245000+02:00</time>
      </trkpt>
      <trkpt lat="45.75673" lon="4.78232">
        <ele>231</ele>
        <time>2025-07-17T18:01:03.244000+02:00</time>
      </trkpt>
      <trkpt lat="45.75673" lon="4.78232">
        <ele>231</ele>
        <time>2025-07-17T18:01:04.244000+02:00</time>
      </trkpt>
      <trkpt lat="45.75673" lon="4.78232">
        <ele>231</ele>
        <time>2025-07-17T18:01:05.244000+02:00</time>
      </trkpt>
      <trkpt lat="45.75673" lon="4.78232">
        <ele>231</ele>
        <time>2025-07-17T18:01:06.244000+02:00</time>
      </trkpt>
      <trkpt lat="45.75673" lon="4.78232">
        <ele>231</ele>
        <time>2025-07-17T18:01:07.244000+02:00</time>
      </trkpt>
      <trkpt lat="45.75673" lon="4.78232">
        <ele>231</ele>
        <time>2025-07-17T18:01:08.244000+02:00</time>
      </trkpt>
      <trkpt lat="45.75673" lon="4.78232">
        <ele>231</ele>
        <time>2025-07-17T18:01:09.245000+02:00</time>
      </trkpt>
      <trkpt lat="45.75673" lon="4.78232">
        <ele>231</ele>
        <time>2025-07-17T18:01:10.245000+02:00</time>
      </trkpt>
      <trkpt lat="45.75673" lon="4.78232">
        <ele>231</ele>
        <time>2025-07-17T18:01:12.245000+02:00</time>
      </trkpt>
      <trkpt lat="45.75673" lon="4.78232">
        <ele>231</ele>
        <time>2025-07-17T18:01:16.245000+02:00</time>
      </trkpt>
      <trkpt lat="45.75673" lon="4.78232">
        <ele>231</ele>
        <time>2025-07-17T18:01:20.244000+02:00</time>
      </trkpt>
      <trkpt lat="45.75673" lon="4.78232">
        <ele>231</ele>
        <time>2025-07-17T18:01:25.245000+02:00</time>
      </trkpt>
      <trkpt lat="45.75673" lon="4.78232">
        <ele>231</ele>
        <time>2025-07-17T18:01:30.243000+02:00</time>
      </trkpt>
      <trkpt lat="45.75672" lon="4.7823">
        <ele>230.8</ele>
        <time>2025-07-17T18:01:33.243000+02:00</time>
      </trkpt>
      <trkpt lat="45.75672" lon="4.78227">
        <ele>230.5</ele>
        <time>2025-07-17T18:01:34.245000+02:00</time>
      </trkpt>
      <trkpt lat="45.75674" lon="4.78216">
        <ele>229.8</ele>
        <time>2025-07-17T18:01:36.244000+02:00</time>
      </trkpt>
      <trkpt lat="45.75677" lon="4.78198">
        <ele>229.1</ele>
        <time>2025-07-17T18:01:38.245000+02:00</time>
      </trkpt>
      <trkpt lat="45.7568" lon="4.78179">
        <ele>227.9</ele>
        <time>2025-07-17T18:01:40.244000+02:00</time>
      </trkpt>
      <trkpt lat="45.75681" lon="4.78169">
        <ele>227.2</ele>
        <time>2025-07-17T18:01:41.245000+02:00</time>
      </trkpt>
      <trkpt lat="45.75686" lon="4.78148">
        <ele>225.9</ele>
        <time>2025-07-17T18:01:43.244000+02:00</time>
      </trkpt>
      <trkpt lat="45.75691" lon="4.78128">
        <ele>224.8</ele>
        <time>2025-07-17T18:01:45.244000+02:00</time>
      </trkpt>
      <trkpt lat="45.75692" lon="4.78119">
        <ele>224.4</ele>
        <time>2025-07-17T18:01:46.244000+02:00</time>
      </trkpt>
      <trkpt lat="45.75694" lon="4.7811">
        <ele>224</ele>
        <time>2025-07-17T18:01:47.244000+02:00</time>
      </trkpt>
      <trkpt lat="45.75697" lon="4.78101">
        <ele>223.9</ele>
        <time>2025-07-17T18:01:48.246000+02:00</time>
      </trkpt>
      <trkpt lat="45.75699" lon="4.78084">
        <ele>223.6</ele>
        <time>2025-07-17T18:01:50.245000+02:00</time>
      </trkpt>
      <trkpt lat="45.75702" lon="4.78066">
        <ele>223</ele>
        <time>2025-07-17T18:01:52.243000+02:00</time>
      </trkpt>
      <trkpt lat="45.75704" lon="4.78057">
        <ele>222.7</ele>
        <time>2025-07-17T18:01:53.244000+02:00</time>
      </trkpt>
      <trkpt lat="45.75706" lon="4.78047">
        <ele>222.4</ele>
        <time>2025-07-17T18:01:54.244000+02:00</time>
      </trkpt>
      <trkpt lat="45.7571" lon="4.78027">
        <ele>222</ele>
        <time>2025-07-17T18:01:56.244000+02:00</time>
      </trkpt>
      <trkpt lat="45.75714" lon="4.78009">
        <ele>221.8</ele>
        <time>2025-07-17T18:01:58.244000+02:00</time>
      </trkpt>
      <trkpt lat="45.75717" lon="4.78002">
        <ele>221.8</ele>
        <time>2025-07-17T18:01:59.244000+02:00</time>
      </trkpt>
      <trkpt lat="45.75721" lon="4.77984">
        <ele>221.4</ele>
        <time>2025-07-17T18:02:01.243000+02:00</time>
      </trkpt>
      <trkpt lat="45.75722" lon="4.77975">
        <ele>221.1</ele>
        <time>2025-07-17T18:02:02.244000+02:00</time>
      </trkpt>
      <trkpt lat="45.75724" lon="4.77965">
        <ele>220.7</ele>
        <time>2025-07-17T18:02:03.245000+02:00</time>
      </trkpt>
      <trkpt lat="45.75727" lon="4.77945">
        <ele>220.2</ele>
        <time>2025-07-17T18:02:05.243000+02:00</time>
      </trkpt>
      <trkpt lat="45.75729" lon="4.77935">
        <ele>220.2</ele>
        <time>2025-07-17T18:02:06.244000+02:00</time>
      </trkpt>
      <trkpt lat="45.7573" lon="4.77925">
        <ele>220.3</ele>
        <time>2025-07-17T18:02:07.244000+02:00</time>
      </trkpt>
      <trkpt lat="45.75733" lon="4.77905">
        <ele>220.2</ele>
        <time>2025-07-17T18:02:09.244000+02:00</time>
      </trkpt>
      <trkpt lat="45.75734" lon="4.77895">
        <ele>220.1</ele>
        <time>2025-07-17T18:02:10.244000+02:00</time>
      </trkpt>
      <trkpt lat="45.75737" lon="4.77876">
        <ele>219.8</ele>
        <time>2025-07-17T18:02:12.245000+02:00</time>
      </trkpt>
      <trkpt lat="45.75739" lon="4.77862">
        <ele>219.6</ele>
        <time>2025-07-17T18:02:14.243000+02:00</time>
      </trkpt>
      <trkpt lat="45.7574" lon="4.77857">
        <ele>219.6</ele>
        <time>2025-07-17T18:02:15.244000+02:00</time>
      </trkpt>
      <trkpt lat="45.7574" lon="4.77854">
        <ele>219.6</ele>
        <time>2025-07-17T18:02:16.244000+02:00</time>
      </trkpt>
      <trkpt lat="45.75741" lon="4.77852">
        <ele>219.7</ele>
        <time>2025-07-17T18:02:17.246000+02:00</time>
      </trkpt>
      <trkpt lat="45.75741" lon="4.77852">
        <ele>219.7</ele>
        <time>2025-07-17T18:02:19.244000+02:00</time>
      </trkpt>
      <trkpt lat="45.75741" lon="4.77852">
        <ele>219.7</ele>
        <time>2025-07-17T18:02:20.245000+02:00</time>
      </trkpt>
      <trkpt lat="45.75741" lon="4.77852">
        <ele>219.7</ele>
        <time>2025-07-17T18:02:22.243000+02:00</time>
      </trkpt>
      <trkpt lat="45.75741" lon="4.77852">
        <ele>219.7</ele>
        <time>2025-07-17T18:02:23.243000+02:00</time>
      </trkpt>
      <trkpt lat="45.75741" lon="4.77852">
        <ele>219.7</ele>
        <time>2025-07-17T18:02:24.244000+02:00</time>
      </trkpt>
      <trkpt lat="45.75742" lon="4.77852">
        <ele>219.7</ele>
        <time>2025-07-17T18:02:25.244000+02:00</time>
      </trkpt>
      <trkpt lat="45.75742" lon="4.77853">
        <ele>219.7</ele>
        <time>2025-07-17T18:02:26.244000+02:00</time>
      </trkpt>
      <trkpt lat="45.75742" lon="4.77852">
        <ele>219.7</ele>
        <time>2025-07-17T18:02:27.244000+02:00</time>
      </trkpt>
      <trkpt lat="45.75742" lon="4.77852">
        <ele>219.7</ele>
        <time>2025-07-17T18:02:28.244000+02:00</time>
      </trkpt>
      <trkpt lat="45.75742" lon="4.77852">
        <ele>219.7</ele>
        <time>2025-07-17T18:02:30.243000+02:00</time>
      </trkpt>
      <trkpt lat="45.75742" lon="4.77852">
        <ele>219.7</ele>
        <time>2025-07-17T18:02:31.243000+02:00</time>
      </trkpt>
      <trkpt lat="45.75742" lon="4.77852">
        <ele>219.7</ele>
        <time>2025-07-17T18:02:32.243000+02:00</time>
      </trkpt>
      <trkpt lat="45.75742" lon="4.77852">
        <ele>219.7</ele>
        <time>2025-07-17T18:02:34.243000+02:00</time>
      </trkpt>
      <trkpt lat="45.75742" lon="4.77852">
        <ele>219.7</ele>
        <time>2025-07-17T18:02:35.243000+02:00</time>
      </trkpt>
      <trkpt lat="45.75742" lon="4.77852">
        <ele>219.7</ele>
        <time>2025-07-17T18:02:36.244000+02:00</time>
      </trkpt>
      <trkpt lat="45.75742" lon="4.77852">
        <ele>219.7</ele>
        <time>2025-07-17T18:02:39.243000+02:00</time>
      </trkpt>
      <trkpt lat="45.75742" lon="4.77852">
        <ele>219.7</ele>
        <time>2025-07-17T18:02:41.243000+02:00</time>
      </trkpt>
      <trkpt lat="45.75742" lon="4.77852">
        <ele>219.7</ele>
        <time>2025-07-17T18:02:43.244000+02:00</time>
      </trkpt>
      <trkpt lat="45.75742" lon="4.77851">
        <ele>219.7</ele>
        <time>2025-07-17T18:02:44.245000+02:00</time>
      </trkpt>
      <trkpt lat="45.75742" lon="4.77846">
        <ele>219.7</ele>
        <time>2025-07-17T18:02:46.243000+02:00</time>
      </trkpt>
      <trkpt lat="45.75742" lon="4.77844">
        <ele>219.7</ele>
        <time>2025-07-17T18:02:47.243000+02:00</time>
      </trkpt>
      <trkpt lat="45.75743" lon="4.7784">
        <ele>219.7</ele>
        <time>2025-07-17T18:02:48.245000+02:00</time>
      </trkpt>
      <trkpt lat="45.75744" lon="4.77829">
        <ele>219.6</ele>
        <time>2025-07-17T18:02:50.243000+02:00</time>
      </trkpt>
      <trkpt lat="45.75744" lon="4.77822">
        <ele>219.5</ele>
        <time>2025-07-17T18:02:51.244000+02:00</time>
      </trkpt>
      <trkpt lat="45.75747" lon="4.77806">
        <ele>219</ele>
        <time>2025-07-17T18:02:53.243000+02:00</time>
      </trkpt>
      <trkpt lat="45.75748" lon="4.77797">
        <ele>218.7</ele>
        <time>2025-07-17T18:02:54.243000+02:00</time>
      </trkpt>
      <trkpt lat="45.75749" lon="4.77787">
        <ele>218.4</ele>
        <time>2025-07-17T18:02:55.243000+02:00</time>
      </trkpt>
      <trkpt lat="45.75751" lon="4.77778">
        <ele>218</ele>
        <time>2025-07-17T18:02:56.244000+02:00</time>
      </trkpt>
      <trkpt lat="45.75753" lon="4.77759">
        <ele>218.1</ele>
        <time>2025-07-17T18:02:58.243000+02:00</time>
      </trkpt>
      <trkpt lat="45.75755" lon="4.77749">
        <ele>218.2</ele>
        <time>2025-07-17T18:02:59.245000+02:00</time>
      </trkpt>
      <trkpt lat="45.75759" lon="4.77731">
        <ele>218.1</ele>
        <time>2025-07-17T18:03:01.245000+02:00</time>
      </trkpt>
      <trkpt lat="45.75764" lon="4.77713">
        <ele>217.7</ele>
        <time>2025-07-17T18:03:03.244000+02:00</time>
      </trkpt>
      <trkpt lat="45.75769" lon="4.77697">
        <ele>217.1</ele>
        <time>2025-07-17T18:03:05.243000+02:00</time>
      </trkpt>
      <trkpt lat="45.75772" lon="4.77689">
        <ele>217</ele>
        <time>2025-07-17T18:03:06.244000+02:00</time>
      </trkpt>
      <trkpt lat="45.75775" lon="4.77681">
        <ele>217</ele>
        <time>2025-07-17T18:03:07.244000+02:00</time>
      </trkpt>
      <trkpt lat="45.75778" lon="4.77673">
        <ele>217</ele>
        <time>2025-07-17T18:03:08.244000+02:00</time>
      </trkpt>
      <trkpt lat="45.7578" lon="4.77664">
        <ele>217.1</ele>
        <time>2025-07-17T18:03:09.244000+02:00</time>
      </trkpt>
      <trkpt lat="45.75786" lon="4.77648">
        <ele>217.3</ele>
        <time>2025-07-17T18:03:11.243000+02:00</time>
      </trkpt>
      <trkpt lat="45.75789" lon="4.77639">
        <ele>217.4</ele>
        <time>2025-07-17T18:03:12.244000+02:00</time>
      </trkpt>
      <trkpt lat="45.75791" lon="4.77631">
        <ele>217.3</ele>
        <time>2025-07-17T18:03:13.244000+02:00</time>
      </trkpt>
      <trkpt lat="45.75797" lon="4.77613">
        <ele>217.1</ele>
        <time>2025-07-17T18:03:15.243000+02:00</time>
      </trkpt>
      <trkpt lat="45.75799" lon="4.77605">
        <ele>217</ele>
        <time>2025-07-17T18:03:16.243000+02:00</time>
      </trkpt>
      <trkpt lat="45.75802" lon="4.77597">
        <ele>217</ele>
        <time>2025-07-17T18:03:17.243000+02:00</time>
      </trkpt>
      <trkpt lat="45.75804" lon="4.77589">
        <ele>217</ele>
        <time>2025-07-17T18:03:18.244000+02:00</time>
      </trkpt>
      <trkpt lat="45.75807" lon="4.7758">
        <ele>217</ele>
        <time>2025-07-17T18:03:19.244000+02:00</time>
      </trkpt>
      <trkpt lat="45.75809" lon="4.77573">
        <ele>217</ele>
        <time>2025-07-17T18:03:20.244000+02:00</time>
      </trkpt>
      <trkpt lat="45.75812" lon="4.77558">
        <ele>217</ele>
        <time>2025-07-17T18:03:22.243000+02:00</time>
      </trkpt>
      <trkpt lat="45.75813" lon="4.77552">
        <ele>217</ele>
        <time>2025-07-17T18:03:23.243000+02:00</time>
      </trkpt>
      <trkpt lat="45.75815" lon="4.77539">
        <ele>217</ele>
        <time>2025-07-17T18:03:25.243000+02:00</time>
      </trkpt>
      <trkpt lat="45.75817" lon="4.77532">
        <ele>217</ele>
        <time>2025-07-17T18:03:26.243000+02:00</time>
      </trkpt>
      <trkpt lat="45.75818" lon="4.77524">
        <ele>217</ele>
        <time>2025-07-17T18:03:27.244000+02:00</time>
      </trkpt>
      <trkpt lat="45.75821" lon="4.77506">
        <ele>217</ele>
        <time>2025-07-17T18:03:29.244000+02:00</time>
      </trkpt>
      <trkpt lat="45.75824" lon="4.77488">
        <ele>217</ele>
        <time>2025-07-17T18:03:31.244000+02:00</time>
      </trkpt>
      <trkpt lat="45.75826" lon="4.77479">
        <ele>217</ele>
        <time>2025-07-17T18:03:32.244000+02:00</time>
      </trkpt>
      <trkpt lat="45.75828" lon="4.7747">
        <ele>217</ele>
        <time>2025-07-17T18:03:33.244000+02:00</time>
      </trkpt>
      <trkpt lat="45.7583" lon="4.77461">
        <ele>217</ele>
        <time>2025-07-17T18:03:34.244000+02:00</time>
      </trkpt>
      <trkpt lat="45.75833" lon="4.77443">
        <ele>217</ele>
        <time>2025-07-17T18:03:36.244000+02:00</time>
      </trkpt>
      <trkpt lat="45.75834" lon="4.77433">
        <ele>217</ele>
        <time>2025-07-17T18:03:37.244000+02:00</time>
      </trkpt>
      <trkpt lat="45.75837" lon="4.77415">
        <ele>217</ele>
        <time>2025-07-17T18:03:39.243000+02:00</time>
      </trkpt>
      <trkpt lat="45.75838" lon="4.77406">
        <ele>216.9</ele>
        <time>2025-07-17T18:03:40.243000+02:00</time>
      </trkpt>
      <trkpt lat="45.75839" lon="4.77398">
        <ele>216.7</ele>
        <time>2025-07-17T18:03:41.244000+02:00</time>
      </trkpt>
      <trkpt lat="45.75842" lon="4.77379">
        <ele>216.5</ele>
        <time>2025-07-17T18:03:43.244000+02:00</time>
      </trkpt>
      <trkpt lat="45.75846" lon="4.77361">
        <ele>216.5</ele>
        <time>2025-07-17T18:03:45.243000+02:00</time>
      </trkpt>
      <trkpt lat="45.75848" lon="4.77352">
        <ele>216.7</ele>
        <time>2025-07-17T18:03:46.243000+02:00</time>
      </trkpt>
      <trkpt lat="45.75849" lon="4.77343">
        <ele>216.8</ele>
        <time>2025-07-17T18:03:47.243000+02:00</time>
      </trkpt>
      <trkpt lat="45.75853" lon="4.77326">
        <ele>217</ele>
        <time>2025-07-17T18:03:49.243000+02:00</time>
      </trkpt>
      <trkpt lat="45.75855" lon="4.77317">
        <ele>217</ele>
        <time>2025-07-17T18:03:50.243000+02:00</time>
      </trkpt>
      <trkpt lat="45.75858" lon="4.77298">
        <ele>216.8</ele>
        <time>2025-07-17T18:03:52.243000+02:00</time>
      </trkpt>
      <trkpt lat="45.75861" lon="4.77289">
        <ele>216.4</ele>
        <time>2025-07-17T18:03:53.243000+02:00</time>
      </trkpt>
      <trkpt lat="45.75863" lon="4.7728">
        <ele>216.1</ele>
        <time>2025-07-17T18:03:54.243000+02:00</time>
      </trkpt>
      <trkpt lat="45.75865" lon="4.77272">
        <ele>216.1</ele>
        <time>2025-07-17T18:03:55.243000+02:00</time>
      </trkpt>
      <trkpt lat="45.75867" lon="4.77263">
        <ele>216.1</ele>
        <time>2025-07-17T18:03:56.243000+02:00</time>
      </trkpt>
      <trkpt lat="45.75868" lon="4.77254">
        <ele>216</ele>
        <time>2025-07-17T18:03:57.243000+02:00</time>
      </trkpt>
      <trkpt lat="45.7587" lon="4.77246">
        <ele>216</ele>
        <time>2025-07-17T18:03:58.243000+02:00</time>
      </trkpt>
      <trkpt lat="45.75871" lon="4.77237">
        <ele>216</ele>
        <time>2025-07-17T18:04:00.243000+02:00</time>
      </trkpt>
      <trkpt lat="45.75872" lon="4.77234">
        <ele>216</ele>
        <time>2025-07-17T18:04:01.243000+02:00</time>
      </trkpt>
      <trkpt lat="45.75872" lon="4.7723">
        <ele>216</ele>
        <time>2025-07-17T18:04:02.243000+02:00</time>
      </trkpt>
      <trkpt lat="45.75873" lon="4.77225">
        <ele>216</ele>
        <time>2025-07-17T18:04:03.243000+02:00</time>
      </trkpt>
      <trkpt lat="45.75874" lon="4.7722">
        <ele>216</ele>
        <time>2025-07-17T18:04:04.245000+02:00</time>
      </trkpt>
      <trkpt lat="45.75878" lon="4.77206">
        <ele>216</ele>
        <time>2025-07-17T18:04:06.244000+02:00</time>
      </trkpt>
      <trkpt lat="45.75883" lon="4.7719">
        <ele>216</ele>
        <time>2025-07-17T18:04:08.243000+02:00</time>
      </trkpt>
      <trkpt lat="45.75885" lon="4.77181">
        <ele>215.9</ele>
        <time>2025-07-17T18:04:09.244000+02:00</time>
      </trkpt>
      <trkpt lat="45.75889" lon="4.77162">
        <ele>216</ele>
        <time>2025-07-17T18:04:11.242000+02:00</time>
      </trkpt>
      <trkpt lat="45.75891" lon="4.77154">
        <ele>216</ele>
        <time>2025-07-17T18:04:12.243000+02:00</time>
      </trkpt>
      <trkpt lat="45.75892" lon="4.77145">
        <ele>216</ele>
        <time>2025-07-17T18:04:13.244000+02:00</time>
      </trkpt>
      <trkpt lat="45.75893" lon="4.77126">
        <ele>216</ele>
        <time>2025-07-17T18:04:15.242000+02:00</time>
      </trkpt>
      <trkpt lat="45.75894" lon="4.77117">
        <ele>216</ele>
        <time>2025-07-17T18:04:16.242000+02:00</time>
      </trkpt>
      <trkpt lat="45.75894" lon="4.7711">
        <ele>216.2</ele>
        <time>2025-07-17T18:04:17.244000+02:00</time>
      </trkpt>
      <trkpt lat="45.75895" lon="4.771">
        <ele>218</ele>
        <time>2025-07-17T18:04:19.243000+02:00</time>
      </trkpt>
      <trkpt lat="45.75895" lon="4.77097">
        <ele>218.5</ele>
        <time>2025-07-17T18:04:20.243000+02:00</time>
      </trkpt>
      <trkpt lat="45.75894" lon="4.77095">
        <ele>218.9</ele>
        <time>2025-07-17T18:04:21.243000+02:00</time>
      </trkpt>
      <trkpt lat="45.75895" lon="4.77093">
        <ele>219.1</ele>
        <time>2025-07-17T18:04:22.244000+02:00</time>
      </trkpt>
      <trkpt lat="45.75894" lon="4.7709">
        <ele>219.6</ele>
        <time>2025-07-17T18:04:24.243000+02:00</time>
      </trkpt>
      <trkpt lat="45.75894" lon="4.77088">
        <ele>219.9</ele>
        <time>2025-07-17T18:04:25.243000+02:00</time>
      </trkpt>
      <trkpt lat="45.75895" lon="4.77087">
        <ele>220.2</ele>
        <time>2025-07-17T18:04:26.243000+02:00</time>
      </trkpt>
      <trkpt lat="45.75895" lon="4.77086">
        <ele>220.4</ele>
        <time>2025-07-17T18:04:27.244000+02:00</time>
      </trkpt>
      <trkpt lat="45.75895" lon="4.77083">
        <ele>220.8</ele>
        <time>2025-07-17T18:04:29.242000+02:00</time>
      </trkpt>
      <trkpt lat="45.75895" lon="4.7708">
        <ele>220.6</ele>
        <time>2025-07-17T18:04:30.242000+02:00</time>
      </trkpt>
      <trkpt lat="45.75895" lon="4.77077">
        <ele>220.4</ele>
        <time>2025-07-17T18:04:31.243000+02:00</time>
      </trkpt>
      <trkpt lat="45.75896" lon="4.77067">
        <ele>219.8</ele>
        <time>2025-07-17T18:04:33.243000+02:00</time>
      </trkpt>
      <trkpt lat="45.75896" lon="4.77061">
        <ele>219.6</ele>
        <time>2025-07-17T18:04:34.243000+02:00</time>
      </trkpt>
      <trkpt lat="45.75896" lon="4.77054">
        <ele>219.1</ele>
        <time>2025-07-17T18:04:35.243000+02:00</time>
      </trkpt>
      <trkpt lat="45.75896" lon="4.77046">
        <ele>218.1</ele>
        <time>2025-07-17T18:04:36.243000+02:00</time>
      </trkpt>
      <trkpt lat="45.75896" lon="4.77037">
        <ele>217.1</ele>
        <time>2025-07-17T18:04:37.243000+02:00</time>
      </trkpt>
      <trkpt lat="45.75897" lon="4.77029">
        <ele>216.1</ele>
        <time>2025-07-17T18:04:38.243000+02:00</time>
      </trkpt>
      <trkpt lat="45.75898" lon="4.7701">
        <ele>216</ele>
        <time>2025-07-17T18:04:40.244000+02:00</time>
      </trkpt>
      <trkpt lat="45.75898" lon="4.76992">
        <ele>216</ele>
        <time>2025-07-17T18:04:42.242000+02:00</time>
      </trkpt>
      <trkpt lat="45.75898" lon="4.76983">
        <ele>216</ele>
        <time>2025-07-17T18:04:43.243000+02:00</time>
      </trkpt>
      <trkpt lat="45.75899" lon="4.76965">
        <ele>216</ele>
        <time>2025-07-17T18:04:45.243000+02:00</time>
      </trkpt>
      <trkpt lat="45.75899" lon="4.76956">
        <ele>216</ele>
        <time>2025-07-17T18:04:46.243000+02:00</time>
      </trkpt>
      <trkpt lat="45.75899" lon="4.76947">
        <ele>216</ele>
        <time>2025-07-17T18:04:47.243000+02:00</time>
      </trkpt>
      <trkpt lat="45.75899" lon="4.76932">
        <ele>216</ele>
        <time>2025-07-17T18:04:49.243000+02:00</time>
      </trkpt>
      <trkpt lat="45.75899" lon="4.76927">
        <ele>216</ele>
        <time>2025-07-17T18:04:50.243000+02:00</time>
      </trkpt>
      <trkpt lat="45.75898" lon="4.76924">
        <ele>216</ele>
        <time>2025-07-17T18:04:51.243000+02:00</time>
      </trkpt>
      <trkpt lat="45.75898" lon="4.7692">
        <ele>216</ele>
        <time>2025-07-17T18:04:53.243000+02:00</time>
      </trkpt>
      <trkpt lat="45.75899" lon="4.76917">
        <ele>216</ele>
        <time>2025-07-17T18:04:55.244000+02:00</time>
      </trkpt>
      <trkpt lat="45.75899" lon="4.7691">
        <ele>216.1</ele>
        <time>2025-07-17T18:04:57.244000+02:00</time>
      </trkpt>
      <trkpt lat="45.75898" lon="4.76899">
        <ele>216.2</ele>
        <time>2025-07-17T18:04:59.242000+02:00</time>
      </trkpt>
      <trkpt lat="45.75897" lon="4.76892">
        <ele>216.3</ele>
        <time>2025-07-17T18:05:00.243000+02:00</time>
      </trkpt>
      <trkpt lat="45.75897" lon="4.76885">
        <ele>216.4</ele>
        <time>2025-07-17T18:05:01.243000+02:00</time>
      </trkpt>
      <trkpt lat="45.75896" lon="4.76868">
        <ele>216.8</ele>
        <time>2025-07-17T18:05:03.243000+02:00</time>
      </trkpt>
      <trkpt lat="45.75896" lon="4.76859">
        <ele>217</ele>
        <time>2025-07-17T18:05:04.243000+02:00</time>
      </trkpt>
      <trkpt lat="45.75896" lon="4.7684">
        <ele>217</ele>
        <time>2025-07-17T18:05:06.244000+02:00</time>
      </trkpt>
      <trkpt lat="45.75895" lon="4.76831">
        <ele>217</ele>
        <time>2025-07-17T18:05:07.244000+02:00</time>
      </trkpt>
      <trkpt lat="45.75894" lon="4.76813">
        <ele>217</ele>
        <time>2025-07-17T18:05:09.243000+02:00</time>
      </trkpt>
      <trkpt lat="45.75893" lon="4.76796">
        <ele>217.4</ele>
        <time>2025-07-17T18:05:11.242000+02:00</time>
      </trkpt>
      <trkpt lat="45.75892" lon="4.76787">
        <ele>217.7</ele>
        <time>2025-07-17T18:05:12.243000+02:00</time>
      </trkpt>
      <trkpt lat="45.75891" lon="4.7677">
        <ele>218</ele>
        <time>2025-07-17T18:05:14.243000+02:00</time>
      </trkpt>
      <trkpt lat="45.7589" lon="4.76761">
        <ele>218</ele>
        <time>2025-07-17T18:05:15.243000+02:00</time>
      </trkpt>
      <trkpt lat="45.75889" lon="4.76743">
        <ele>218.2</ele>
        <time>2025-07-17T18:05:17.243000+02:00</time>
      </trkpt>
      <trkpt lat="45.75889" lon="4.76734">
        <ele>218.6</ele>
        <time>2025-07-17T18:05:18.243000+02:00</time>
      </trkpt>
      <trkpt lat="45.75888" lon="4.76716">
        <ele>219</ele>
        <time>2025-07-17T18:05:20.243000+02:00</time>
      </trkpt>
      <trkpt lat="45.75887" lon="4.76699">
        <ele>219</ele>
        <time>2025-07-17T18:05:22.242000+02:00</time>
      </trkpt>
      <trkpt lat="45.75886" lon="4.7669">
        <ele>219.2</ele>
        <time>2025-07-17T18:05:23.243000+02:00</time>
      </trkpt>
      <trkpt lat="45.75885" lon="4.76681">
        <ele>219.5</ele>
        <time>2025-07-17T18:05:24.244000+02:00</time>
      </trkpt>
      <trkpt lat="45.75883" lon="4.76664">
        <ele>220.1</ele>
        <time>2025-07-17T18:05:26.243000+02:00</time>
      </trkpt>
      <trkpt lat="45.75882" lon="4.76656">
        <ele>220.3</ele>
        <time>2025-07-17T18:05:27.243000+02:00</time>
      </trkpt>
      <trkpt lat="45.7588" lon="4.76638">
        <ele>220.7</ele>
        <time>2025-07-17T18:05:29.243000+02:00</time>
      </trkpt>
      <trkpt lat="45.75879" lon="4.76629">
        <ele>220.9</ele>
        <time>2025-07-17T18:05:30.243000+02:00</time>
      </trkpt>
      <trkpt lat="45.75878" lon="4.76621">
        <ele>221</ele>
        <time>2025-07-17T18:05:31.244000+02:00</time>
      </trkpt>
      <trkpt lat="45.75876" lon="4.76603">
        <ele>221.1</ele>
        <time>2025-07-17T18:05:33.242000+02:00</time>
      </trkpt>
      <trkpt lat="45.75875" lon="4.76595">
        <ele>221</ele>
        <time>2025-07-17T18:05:34.242000+02:00</time>
      </trkpt>
      <trkpt lat="45.75874" lon="4.76587">
        <ele>220.9</ele>
        <time>2025-07-17T18:05:35.243000+02:00</time>
      </trkpt>
      <trkpt lat="45.75873" lon="4.76578">
        <ele>221</ele>
        <time>2025-07-17T18:05:36.243000+02:00</time>
      </trkpt>
      <trkpt lat="45.75871" lon="4.76561">
        <ele>221.5</ele>
        <time>2025-07-17T18:05:38.242000+02:00</time>
      </trkpt>
      <trkpt lat="45.7587" lon="4.76552">
        <ele>221.6</ele>
        <time>2025-07-17T18:05:39.243000+02:00</time>
      </trkpt>
      <trkpt lat="45.75869" lon="4.76543">
        <ele>221.6</ele>
        <time>2025-07-17T18:05:40.243000+02:00</time>
      </trkpt>
      <trkpt lat="45.75867" lon="4.76526">
        <ele>221.5</ele>
        <time>2025-07-17T18:05:42.243000+02:00</time>
      </trkpt>
      <trkpt lat="45.75866" lon="4.76508">
        <ele>221.9</ele>
        <time>2025-07-17T18:05:44.243000+02:00</time>
      </trkpt>
      <trkpt lat="45.75865" lon="4.76499">
        <ele>222.1</ele>
        <time>2025-07-17T18:05:45.243000+02:00</time>
      </trkpt>
      <trkpt lat="45.75864" lon="4.76491">
        <ele>222.1</ele>
        <time>2025-07-17T18:05:46.243000+02:00</time>
      </trkpt>
      <trkpt lat="45.75863" lon="4.76483">
        <ele>222.1</ele>
        <time>2025-07-17T18:05:47.243000+02:00</time>
      </trkpt>
      <trkpt lat="45.75862" lon="4.76474">
        <ele>222.1</ele>
        <time>2025-07-17T18:05:48.243000+02:00</time>
      </trkpt>
      <trkpt lat="45.7586" lon="4.76457">
        <ele>223.1</ele>
        <time>2025-07-17T18:05:50.243000+02:00</time>
      </trkpt>
      <trkpt lat="45.75859" lon="4.76449">
        <ele>223.7</ele>
        <time>2025-07-17T18:05:51.243000+02:00</time>
      </trkpt>
      <trkpt lat="45.75859" lon="4.7644">
        <ele>223.9</ele>
        <time>2025-07-17T18:05:52.243000+02:00</time>
      </trkpt>
      <trkpt lat="45.75857" lon="4.76423">
        <ele>224</ele>
        <time>2025-07-17T18:05:54.243000+02:00</time>
      </trkpt>
      <trkpt lat="45.75856" lon="4.76414">
        <ele>224.1</ele>
        <time>2025-07-17T18:05:55.243000+02:00</time>
      </trkpt>
      <trkpt lat="45.75856" lon="4.76406">
        <ele>224.4</ele>
        <time>2025-07-17T18:05:56.244000+02:00</time>
      </trkpt>
      <trkpt lat="45.75854" lon="4.76389">
        <ele>225</ele>
        <time>2025-07-17T18:05:58.242000+02:00</time>
      </trkpt>
      <trkpt lat="45.75853" lon="4.76381">
        <ele>225.4</ele>
        <time>2025-07-17T18:05:59.243000+02:00</time>
      </trkpt>
      <trkpt lat="45.75851" lon="4.76364">
        <ele>226.2</ele>
        <time>2025-07-17T18:06:01.243000+02:00</time>
      </trkpt>
      <trkpt lat="45.75851" lon="4.76355">
        <ele>226.5</ele>
        <time>2025-07-17T18:06:02.243000+02:00</time>
      </trkpt>
      <trkpt lat="45.7585" lon="4.76346">
        <ele>226.7</ele>
        <time>2025-07-17T18:06:03.243000+02:00</time>
      </trkpt>
      <trkpt lat="45.75848" lon="4.76329">
        <ele>227</ele>
        <time>2025-07-17T18:06:05.243000+02:00</time>
      </trkpt>
      <trkpt lat="45.75846" lon="4.76312">
        <ele>226.9</ele>
        <time>2025-07-17T18:06:07.243000+02:00</time>
      </trkpt>
      <trkpt lat="45.75844" lon="4.76296">
        <ele>227</ele>
        <time>2025-07-17T18:06:09.243000+02:00</time>
      </trkpt>
      <trkpt lat="45.75843" lon="4.76287">
        <ele>227.1</ele>
        <time>2025-07-17T18:06:10.243000+02:00</time>
      </trkpt>
      <trkpt lat="45.75841" lon="4.76269">
        <ele>227.5</ele>
        <time>2025-07-17T18:06:12.244000+02:00</time>
      </trkpt>
      <trkpt lat="45.75839" lon="4.76252">
        <ele>228</ele>
        <time>2025-07-17T18:06:14.243000+02:00</time>
      </trkpt>
      <trkpt lat="45.75836" lon="4.76235">
        <ele>228.1</ele>
        <time>2025-07-17T18:06:16.243000+02:00</time>
      </trkpt>
      <trkpt lat="45.75832" lon="4.76218">
        <ele>228</ele>
        <time>2025-07-17T18:06:18.243000+02:00</time>
      </trkpt>
      <trkpt lat="45.75829" lon="4.76201">
        <ele>228.1</ele>
        <time>2025-07-17T18:06:20.243000+02:00</time>
      </trkpt>
      <trkpt lat="45.75826" lon="4.76184">
        <ele>228.2</ele>
        <time>2025-07-17T18:06:22.242000+02:00</time>
      </trkpt>
      <trkpt lat="45.75824" lon="4.76176">
        <ele>228.1</ele>
        <time>2025-07-17T18:06:23.243000+02:00</time>
      </trkpt>
      <trkpt lat="45.75821" lon="4.76162">
        <ele>228</ele>
        <time>2025-07-17T18:06:25.244000+02:00</time>
      </trkpt>
      <trkpt lat="45.7582" lon="4.76153">
        <ele>228</ele>
        <time>2025-07-17T18:06:27.242000+02:00</time>
      </trkpt>
      <trkpt lat="45.75819" lon="4.7615">
        <ele>228</ele>
        <time>2025-07-17T18:06:28.242000+02:00</time>
      </trkpt>
      <trkpt lat="45.75819" lon="4.76147">
        <ele>228</ele>
        <time>2025-07-17T18:06:29.243000+02:00</time>
      </trkpt>
      <trkpt lat="45.75818" lon="4.76142">
        <ele>228</ele>
        <time>2025-07-17T18:06:31.242000+02:00</time>
      </trkpt>
      <trkpt lat="45.75818" lon="4.76138">
        <ele>228</ele>
        <time>2025-07-17T18:06:33.242000+02:00</time>
      </trkpt>
      <trkpt lat="45.75818" lon="4.76138">
        <ele>228</ele>
        <time>2025-07-17T18:06:34.243000+02:00</time>
      </trkpt>
      <trkpt lat="45.75818" lon="4.76137">
        <ele>228</ele>
        <time>2025-07-17T18:06:35.243000+02:00</time>
      </trkpt>
      <trkpt lat="45.75817" lon="4.76137">
        <ele>228</ele>
        <time>2025-07-17T18:06:37.242000+02:00</time>
      </trkpt>
      <trkpt lat="45.75818" lon="4.76138">
        <ele>228</ele>
        <time>2025-07-17T18:06:38.243000+02:00</time>
      </trkpt>
      <trkpt lat="45.75818" lon="4.76138">
        <ele>228</ele>
        <time>2025-07-17T18:06:40.243000+02:00</time>
      </trkpt>
      <trkpt lat="45.75818" lon="4.76138">
        <ele>228</ele>
        <time>2025-07-17T18:06:42.242000+02:00</time>
      </trkpt>
      <trkpt lat="45.75818" lon="4.76138">
        <ele>228</ele>
        <time>2025-07-17T18:06:43.242000+02:00</time>
      </trkpt>
      <trkpt lat="45.75818" lon="4.76138">
        <ele>228</ele>
        <time>2025-07-17T18:06:44.243000+02:00</time>
      </trkpt>
      <trkpt lat="45.75818" lon="4.76138">
        <ele>228</ele>
        <time>2025-07-17T18:06:46.243000+02:00</time>
      </trkpt>
      <trkpt lat="45.75818" lon="4.76138">
        <ele>228</ele>
        <time>2025-07-17T18:06:48.243000+02:00</time>
      </trkpt>
      <trkpt lat="45.75818" lon="4.76138">
        <ele>228</ele>
        <time>2025-07-17T18:06:51.242000+02:00</time>
      </trkpt>
      <trkpt lat="45.75818" lon="4.76138">
        <ele>228</ele>
        <time>2025-07-17T18:06:56.242000+02:00</time>
      </trkpt>
      <trkpt lat="45.75818" lon="4.76138">
        <ele>228</ele>
        <time>2025-07-17T18:06:59.243000+02:00</time>
      </trkpt>
      <trkpt lat="45.75818" lon="4.76138">
        <ele>228</ele>
        <time>2025-07-17T18:07:01.242000+02:00</time>
      </trkpt>
      <trkpt lat="45.75818" lon="4.76138">
        <ele>228</ele>
        <time>2025-07-17T18:07:05.242000+02:00</time>
      </trkpt>
      <trkpt lat="45.75818" lon="4.76138">
        <ele>228</ele>
        <time>2025-07-17T18:07:06.242000+02:00</time>
      </trkpt>
      <trkpt lat="45.75818" lon="4.76138">
        <ele>228</ele>
        <time>2025-07-17T18:07:09.243000+02:00</time>
      </trkpt>
      <trkpt lat="45.75818" lon="4.76137">
        <ele>228</ele>
        <time>2025-07-17T18:07:11.243000+02:00</time>
      </trkpt>
      <trkpt lat="45.75817" lon="4.76132">
        <ele>228</ele>
        <time>2025-07-17T18:07:13.242000+02:00</time>
      </trkpt>
      <trkpt lat="45.75817" lon="4.76127">
        <ele>228</ele>
        <time>2025-07-17T18:07:14.243000+02:00</time>
      </trkpt>
      <trkpt lat="45.75816" lon="4.76116">
        <ele>228</ele>
        <time>2025-07-17T18:07:16.241000+02:00</time>
      </trkpt>
      <trkpt lat="45.75815" lon="4.76109">
        <ele>228.1</ele>
        <time>2025-07-17T18:07:17.242000+02:00</time>
      </trkpt>
      <trkpt lat="45.75812" lon="4.76094">
        <ele>228.6</ele>
        <time>2025-07-17T18:07:19.241000+02:00</time>
      </trkpt>
      <trkpt lat="45.75811" lon="4.76084">
        <ele>229</ele>
        <time>2025-07-17T18:07:20.242000+02:00</time>
      </trkpt>
      <trkpt lat="45.75809" lon="4.76075">
        <ele>229</ele>
        <time>2025-07-17T18:07:21.242000+02:00</time>
      </trkpt>
      <trkpt lat="45.75808" lon="4.76066">
        <ele>228.9</ele>
        <time>2025-07-17T18:07:22.242000+02:00</time>
      </trkpt>
      <trkpt lat="45.75806" lon="4.76058">
        <ele>229</ele>
        <time>2025-07-17T18:07:23.242000+02:00</time>
      </trkpt>
      <trkpt lat="45.75804" lon="4.7604">
        <ele>228.4</ele>
        <time>2025-07-17T18:07:25.243000+02:00</time>
      </trkpt>
      <trkpt lat="45.758" lon="4.76023">
        <ele>228.1</ele>
        <time>2025-07-17T18:07:27.242000+02:00</time>
      </trkpt>
      <trkpt lat="45.75798" lon="4.76014">
        <ele>228.2</ele>
        <time>2025-07-17T18:07:28.242000+02:00</time>
      </trkpt>
      <trkpt lat="45.75796" lon="4.76004">
        <ele>228.3</ele>
        <time>2025-07-17T18:07:29.243000+02:00</time>
      </trkpt>
      <trkpt lat="45.75795" lon="4.75984">
        <ele>228.2</ele>
        <time>2025-07-17T18:07:31.243000+02:00</time>
      </trkpt>
      <trkpt lat="45.75796" lon="4.75964">
        <ele>228.1</ele>
        <time>2025-07-17T18:07:33.242000+02:00</time>
      </trkpt>
      <trkpt lat="45.75799" lon="4.75942">
        <ele>227.7</ele>
        <time>2025-07-17T18:07:35.242000+02:00</time>
      </trkpt>
      <trkpt lat="45.758" lon="4.75931">
        <ele>227.8</ele>
        <time>2025-07-17T18:07:36.243000+02:00</time>
      </trkpt>
      <trkpt lat="45.75802" lon="4.75907">
        <ele>227.5</ele>
        <time>2025-07-17T18:07:38.242000+02:00</time>
      </trkpt>
      <trkpt lat="45.75804" lon="4.75883">
        <ele>226.7</ele>
        <time>2025-07-17T18:07:40.242000+02:00</time>
      </trkpt>
      <trkpt lat="45.75806" lon="4.75871">
        <ele>226.4</ele>
        <time>2025-07-17T18:07:41.242000+02:00</time>
      </trkpt>
      <trkpt lat="45.75807" lon="4.75859">
        <ele>226</ele>
        <time>2025-07-17T18:07:42.242000+02:00</time>
      </trkpt>
      <trkpt lat="45.75809" lon="4.75834">
        <ele>224.4</ele>
        <time>2025-07-17T18:07:44.242000+02:00</time>
      </trkpt>
      <trkpt lat="45.75814" lon="4.75809">
        <ele>221.9</ele>
        <time>2025-07-17T18:07:46.242000+02:00</time>
      </trkpt>
      <trkpt lat="45.75818" lon="4.75799">
        <ele>221.8</ele>
        <time>2025-07-17T18:07:47.242000+02:00</time>
      </trkpt>
      <trkpt lat="45.75822" lon="4.75789">
        <ele>221.7</ele>
        <time>2025-07-17T18:07:48.242000+02:00</time>
      </trkpt>
      <trkpt lat="45.75828" lon="4.75778">
        <ele>221.4</ele>
        <time>2025-07-17T18:07:49.242000+02:00</time>
      </trkpt>
      <trkpt lat="45.75833" lon="4.75769">
        <ele>219.7</ele>
        <time>2025-07-17T18:07:50.242000+02:00</time>
      </trkpt>
      <trkpt lat="45.75848" lon="4.75751">
        <ele>217.7</ele>
        <time>2025-07-17T18:07:52.242000+02:00</time>
      </trkpt>
      <trkpt lat="45.75864" lon="4.75738">
        <ele>217.4</ele>
        <time>2025-07-17T18:07:54.242000+02:00</time>
      </trkpt>
      <trkpt lat="45.75871" lon="4.75731">
        <ele>217.3</ele>
        <time>2025-07-17T18:07:55.243000+02:00</time>
      </trkpt>
      <trkpt lat="45.75886" lon="4.75714">
        <ele>217.3</ele>
        <time>2025-07-17T18:07:57.241000+02:00</time>
      </trkpt>
      <trkpt lat="45.75892" lon="4.75704">
        <ele>216.9</ele>
        <time>2025-07-17T18:07:58.241000+02:00</time>
      </trkpt>
      <trkpt lat="45.75898" lon="4.75694">
        <ele>216.5</ele>
        <time>2025-07-17T18:07:59.241000+02:00</time>
      </trkpt>
      <trkpt lat="45.75903" lon="4.75683">
        <ele>216.4</ele>
        <time>2025-07-17T18:08:00.241000+02:00</time>
      </trkpt>
      <trkpt lat="45.75908" lon="4.75671">
        <ele>215.8</ele>
        <time>2025-07-17T18:08:01.241000+02:00</time>
      </trkpt>
      <trkpt lat="45.75911" lon="4.75658">
        <ele>215.7</ele>
        <time>2025-07-17T18:08:02.242000+02:00</time>
      </trkpt>
      <trkpt lat="45.75913" lon="4.75633">
        <ele>216</ele>
        <time>2025-07-17T18:08:04.243000+02:00</time>
      </trkpt>
      <trkpt lat="45.75911" lon="4.75608">
        <ele>215.4</ele>
        <time>2025-07-17T18:08:06.241000+02:00</time>
      </trkpt>
      <trkpt lat="45.75909" lon="4.75595">
        <ele>215.1</ele>
        <time>2025-07-17T18:08:07.242000+02:00</time>
      </trkpt>
      <trkpt lat="45.75906" lon="4.75582">
        <ele>214.7</ele>
        <time>2025-07-17T18:08:08.242000+02:00</time>
      </trkpt>
      <trkpt lat="45.75896" lon="4.7556">
        <ele>212.9</ele>
        <time>2025-07-17T18:08:10.241000+02:00</time>
      </trkpt>
      <trkpt lat="45.75889" lon="4.75551">
        <ele>210.8</ele>
        <time>2025-07-17T18:08:11.241000+02:00</time>
      </trkpt>
      <trkpt lat="45.75881" lon="4.75542">
        <ele>209.2</ele>
        <time>2025-07-17T18:08:12.241000+02:00</time>
      </trkpt>
      <trkpt lat="45.75874" lon="4.75534">
        <ele>207.8</ele>
        <time>2025-07-17T18:08:13.242000+02:00</time>
      </trkpt>
      <trkpt lat="45.75866" lon="4.75525">
        <ele>206.3</ele>
        <time>2025-07-17T18:08:14.242000+02:00</time>
      </trkpt>
      <trkpt lat="45.75854" lon="4.75504">
        <ele>203.7</ele>
        <time>2025-07-17T18:08:16.241000+02:00</time>
      </trkpt>
      <trkpt lat="45.7585" lon="4.75491">
        <ele>205.1</ele>
        <time>2025-07-17T18:08:17.242000+02:00</time>
      </trkpt>
      <trkpt lat="45.75846" lon="4.75478">
        <ele>206.7</ele>
        <time>2025-07-17T18:08:18.242000+02:00</time>
      </trkpt>
      <trkpt lat="45.75837" lon="4.75454">
        <ele>208.6</ele>
        <time>2025-07-17T18:08:20.242000+02:00</time>
      </trkpt>
      <trkpt lat="45.75834" lon="4.75441">
        <ele>208.7</ele>
        <time>2025-07-17T18:08:21.242000+02:00</time>
      </trkpt>
      <trkpt lat="45.75832" lon="4.75414">
        <ele>205.8</ele>
        <time>2025-07-17T18:08:23.241000+02:00</time>
      </trkpt>
      <trkpt lat="45.75835" lon="4.75402">
        <ele>205.6</ele>
        <time>2025-07-17T18:08:24.241000+02:00</time>
      </trkpt>
      <trkpt lat="45.75838" lon="4.75389">
        <ele>205.3</ele>
        <time>2025-07-17T18:08:25.242000+02:00</time>
      </trkpt>
      <trkpt lat="45.75842" lon="4.75362">
        <ele>203.7</ele>
        <time>2025-07-17T18:08:27.241000+02:00</time>
      </trkpt>
      <trkpt lat="45.75843" lon="4.75349">
        <ele>203.6</ele>
        <time>2025-07-17T18:08:28.242000+02:00</time>
      </trkpt>
      <trkpt lat="45.75846" lon="4.75321">
        <ele>203.5</ele>
        <time>2025-07-17T18:08:30.242000+02:00</time>
      </trkpt>
      <trkpt lat="45.75849" lon="4.75296">
        <ele>203.6</ele>
        <time>2025-07-17T18:08:32.242000+02:00</time>
      </trkpt>
      <trkpt lat="45.75851" lon="4.7527">
        <ele>203.6</ele>
        <time>2025-07-17T18:08:34.241000+02:00</time>
      </trkpt>
      <trkpt lat="45.75852" lon="4.75259">
        <ele>203.7</ele>
        <time>2025-07-17T18:08:35.241000+02:00</time>
      </trkpt>
      <trkpt lat="45.75851" lon="4.75248">
        <ele>203.7</ele>
        <time>2025-07-17T18:08:36.243000+02:00</time>
      </trkpt>
      <trkpt lat="45.75847" lon="4.75229">
        <ele>203.9</ele>
        <time>2025-07-17T18:08:38.242000+02:00</time>
      </trkpt>
      <trkpt lat="45.75846" lon="4.75224">
        <ele>203.9</ele>
        <time>2025-07-17T18:08:39.242000+02:00</time>
      </trkpt>
      <trkpt lat="45.75845" lon="4.7522">
        <ele>203.9</ele>
        <time>2025-07-17T18:08:40.242000+02:00</time>
      </trkpt>
      <trkpt lat="45.75844" lon="4.75216">
        <ele>204</ele>
        <time>2025-07-17T18:08:42.242000+02:00</time>
      </trkpt>
      <trkpt lat="45.75844" lon="4.75214">
        <ele>204</ele>
        <time>2025-07-17T18:08:43.242000+02:00</time>
      </trkpt>
      <trkpt lat="45.75843" lon="4.75212">
        <ele>204.1</ele>
        <time>2025-07-17T18:08:44.243000+02:00</time>
      </trkpt>
      <trkpt lat="45.7584" lon="4.75206">
        <ele>204.1</ele>
        <time>2025-07-17T18:08:46.241000+02:00</time>
      </trkpt>
      <trkpt lat="45.75839" lon="4.75202">
        <ele>204.1</ele>
        <time>2025-07-17T18:08:47.241000+02:00</time>
      </trkpt>
      <trkpt lat="45.75838" lon="4.75199">
        <ele>204.1</ele>
        <time>2025-07-17T18:08:48.241000+02:00</time>
      </trkpt>
      <trkpt lat="45.75836" lon="4.75196">
        <ele>204.2</ele>
        <time>2025-07-17T18:08:49.241000+02:00</time>
      </trkpt>
      <trkpt lat="45.75835" lon="4.75195">
        <ele>204.1</ele>
        <time>2025-07-17T18:08:50.241000+02:00</time>
      </trkpt>
      <trkpt lat="45.75835" lon="4.75193">
        <ele>204.1</ele>
        <time>2025-07-17T18:08:51.244000+02:00</time>
      </trkpt>
      <trkpt lat="45.75834" lon="4.75191">
        <ele>204</ele>
        <time>2025-07-17T18:08:53.242000+02:00</time>
      </trkpt>
      <trkpt lat="45.75833" lon="4.75192">
        <ele>204</ele>
        <time>2025-07-17T18:08:55.241000+02:00</time>
      </trkpt>
      <trkpt lat="45.75833" lon="4.75192">
        <ele>204</ele>
        <time>2025-07-17T18:08:56.241000+02:00</time>
      </trkpt>
      <trkpt lat="45.75833" lon="4.75192">
        <ele>204</ele>
        <time>2025-07-17T18:08:57.242000+02:00</time>
      </trkpt>
      <trkpt lat="45.75833" lon="4.75192">
        <ele>204</ele>
        <time>2025-07-17T18:08:59.241000+02:00</time>
      </trkpt>
      <trkpt lat="45.75833" lon="4.75192">
        <ele>204</ele>
        <time>2025-07-17T18:09:00.242000+02:00</time>
      </trkpt>
      <trkpt lat="45.75833" lon="4.75192">
        <ele>204</ele>
        <time>2025-07-17T18:09:02.241000+02:00</time>
      </trkpt>
      <trkpt lat="45.75833" lon="4.75192">
        <ele>204</ele>
        <time>2025-07-17T18:09:03.242000+02:00</time>
      </trkpt>
      <trkpt lat="45.75833" lon="4.75192">
        <ele>204</ele>
        <time>2025-07-17T18:09:05.242000+02:00</time>
      </trkpt>
      <trkpt lat="45.75833" lon="4.75192">
        <ele>204</ele>
        <time>2025-07-17T18:09:06.242000+02:00</time>
      </trkpt>
      <trkpt lat="45.75833" lon="4.75192">
        <ele>204</ele>
        <time>2025-07-17T18:09:08.240000+02:00</time>
      </trkpt>
      <trkpt lat="45.75833" lon="4.75192">
        <ele>204</ele>
        <time>2025-07-17T18:09:09.242000+02:00</time>
      </trkpt>
      <trkpt lat="45.75833" lon="4.75192">
        <ele>204</ele>
        <time>2025-07-17T18:09:10.242000+02:00</time>
      </trkpt>
      <trkpt lat="45.75833" lon="4.75192">
        <ele>204</ele>
        <time>2025-07-17T18:09:12.242000+02:00</time>
      </trkpt>
      <trkpt lat="45.75833" lon="4.75192">
        <ele>204</ele>
        <time>2025-07-17T18:09:13.242000+02:00</time>
      </trkpt>
      <trkpt lat="45.75833" lon="4.75192">
        <ele>204</ele>
        <time>2025-07-17T18:09:14.242000+02:00</time>
      </trkpt>
      <trkpt lat="45.75832" lon="4.75191">
        <ele>204</ele>
        <time>2025-07-17T18:09:16.241000+02:00</time>
      </trkpt>
      <trkpt lat="45.75832" lon="4.75189">
        <ele>204</ele>
        <time>2025-07-17T18:09:17.241000+02:00</time>
      </trkpt>
      <trkpt lat="45.75831" lon="4.75187">
        <ele>204</ele>
        <time>2025-07-17T18:09:18.241000+02:00</time>
      </trkpt>
      <trkpt lat="45.7583" lon="4.75183">
        <ele>204</ele>
        <time>2025-07-17T18:09:19.241000+02:00</time>
      </trkpt>
      <trkpt lat="45.75828" lon="4.75179">
        <ele>204</ele>
        <time>2025-07-17T18:09:20.242000+02:00</time>
      </trkpt>
      <trkpt lat="45.75822" lon="4.75173">
        <ele>204</ele>
        <time>2025-07-17T18:09:22.241000+02:00</time>
      </trkpt>
      <trkpt lat="45.75811" lon="4.75175">
        <ele>204</ele>
        <time>2025-07-17T18:09:24.241000+02:00</time>
      </trkpt>
      <trkpt lat="45.75806" lon="4.75176">
        <ele>204</ele>
        <time>2025-07-17T18:09:25.242000+02:00</time>
      </trkpt>
      <trkpt lat="45.75794" lon="4.75173">
        <ele>204.1</ele>
        <time>2025-07-17T18:09:27.241000+02:00</time>
      </trkpt>
      <trkpt lat="45.75788" lon="4.75172">
        <ele>204.1</ele>
        <time>2025-07-17T18:09:28.242000+02:00</time>
      </trkpt>
      <trkpt lat="45.75775" lon="4.75169">
        <ele>204.1</ele>
        <time>2025-07-17T18:09:30.241000+02:00</time>
      </trkpt>
      <trkpt lat="45.75769" lon="4.75169">
        <ele>204.1</ele>
        <time>2025-07-17T18:09:31.242000+02:00</time>
      </trkpt>
      <trkpt lat="45.75763" lon="4.75168">
        <ele>204</ele>
        <time>2025-07-17T18:09:32.242000+02:00</time>
      </trkpt>
      <trkpt lat="45.7575" lon="4.75167">
        <ele>204</ele>
        <time>2025-07-17T18:09:34.242000+02:00</time>
      </trkpt>
      <trkpt lat="45.75737" lon="4.75166">
        <ele>204.9</ele>
        <time>2025-07-17T18:09:36.241000+02:00</time>
      </trkpt>
      <trkpt lat="45.75731" lon="4.75165">
        <ele>205.3</ele>
        <time>2025-07-17T18:09:37.242000+02:00</time>
      </trkpt>
      <trkpt lat="45.75719" lon="4.75164">
        <ele>206</ele>
        <time>2025-07-17T18:09:39.242000+02:00</time>
      </trkpt>
      <trkpt lat="45.75708" lon="4.75162">
        <ele>206.3</ele>
        <time>2025-07-17T18:09:41.240000+02:00</time>
      </trkpt>
      <trkpt lat="45.75702" lon="4.75161">
        <ele>206.4</ele>
        <time>2025-07-17T18:09:42.241000+02:00</time>
      </trkpt>
      <trkpt lat="45.75696" lon="4.75161">
        <ele>206.5</ele>
        <time>2025-07-17T18:09:43.241000+02:00</time>
      </trkpt>
      <trkpt lat="45.7569" lon="4.7516">
        <ele>206.9</ele>
        <time>2025-07-17T18:09:44.241000+02:00</time>
      </trkpt>
      <trkpt lat="45.75684" lon="4.75159">
        <ele>207.3</ele>
        <time>2025-07-17T18:09:45.241000+02:00</time>
      </trkpt>
      <trkpt lat="45.75679" lon="4.75158">
        <ele>207.7</ele>
        <time>2025-07-17T18:09:46.242000+02:00</time>
      </trkpt>
      <trkpt lat="45.75668" lon="4.75156">
        <ele>208.6</ele>
        <time>2025-07-17T18:09:48.241000+02:00</time>
      </trkpt>
      <trkpt lat="45.75662" lon="4.75156">
        <ele>208.9</ele>
        <time>2025-07-17T18:09:49.242000+02:00</time>
      </trkpt>
      <trkpt lat="45.75656" lon="4.75155">
        <ele>209.3</ele>
        <time>2025-07-17T18:09:50.242000+02:00</time>
      </trkpt>
      <trkpt lat="45.75645" lon="4.75154">
        <ele>210.1</ele>
        <time>2025-07-17T18:09:52.240000+02:00</time>
      </trkpt>
      <trkpt lat="45.7564" lon="4.75153">
        <ele>210.4</ele>
        <time>2025-07-17T18:09:53.241000+02:00</time>
      </trkpt>
      <trkpt lat="45.75634" lon="4.75153">
        <ele>210.8</ele>
        <time>2025-07-17T18:09:54.242000+02:00</time>
      </trkpt>
      <trkpt lat="45.75622" lon="4.75152">
        <ele>211.4</ele>
        <time>2025-07-17T18:09:56.240000+02:00</time>
      </trkpt>
      <trkpt lat="45.75616" lon="4.75152">
        <ele>211.7</ele>
        <time>2025-07-17T18:09:57.241000+02:00</time>
      </trkpt>
      <trkpt lat="45.7561" lon="4.75151">
        <ele>211.9</ele>
        <time>2025-07-17T18:09:58.241000+02:00</time>
      </trkpt>
      <trkpt lat="45.75604" lon="4.7515">
        <ele>212.1</ele>
        <time>2025-07-17T18:09:59.242000+02:00</time>
      </trkpt>
      <trkpt lat="45.75598" lon="4.75149">
        <ele>212.2</ele>
        <time>2025-07-17T18:10:00.243000+02:00</time>
      </trkpt>
      <trkpt lat="45.75585" lon="4.75146">
        <ele>212.4</ele>
        <time>2025-07-17T18:10:02.241000+02:00</time>
      </trkpt>
      <trkpt lat="45.75579" lon="4.75144">
        <ele>212.5</ele>
        <time>2025-07-17T18:10:03.241000+02:00</time>
      </trkpt>
      <trkpt lat="45.75573" lon="4.75143">
        <ele>212.6</ele>
        <time>2025-07-17T18:10:04.241000+02:00</time>
      </trkpt>
      <trkpt lat="45.75568" lon="4.75141">
        <ele>212.7</ele>
        <time>2025-07-17T18:10:05.241000+02:00</time>
      </trkpt>
      <trkpt lat="45.75562" lon="4.75139">
        <ele>212.8</ele>
        <time>2025-07-17T18:10:06.242000+02:00</time>
      </trkpt>
      <trkpt lat="45.7555" lon="4.75133">
        <ele>213</ele>
        <time>2025-07-17T18:10:08.241000+02:00</time>
      </trkpt>
      <trkpt lat="45.75545" lon="4.75127">
        <ele>213.1</ele>
        <time>2025-07-17T18:10:09.242000+02:00</time>
      </trkpt>
      <trkpt lat="45.75541" lon="4.75119">
        <ele>213.2</ele>
        <time>2025-07-17T18:10:10.242000+02:00</time>
      </trkpt>
      <trkpt lat="45.75536" lon="4.75102">
        <ele>213.5</ele>
        <time>2025-07-17T18:10:12.241000+02:00</time>
      </trkpt>
      <trkpt lat="45.75534" lon="4.75094">
        <ele>213.7</ele>
        <time>2025-07-17T18:10:13.241000+02:00</time>
      </trkpt>
      <trkpt lat="45.75532" lon="4.75085">
        <ele>213.9</ele>
        <time>2025-07-17T18:10:14.241000+02:00</time>
      </trkpt>
      <trkpt lat="45.75529" lon="4.75077">
        <ele>214.2</ele>
        <time>2025-07-17T18:10:15.242000+02:00</time>
      </trkpt>
      <trkpt lat="45.75522" lon="4.75062">
        <ele>215</ele>
        <time>2025-07-17T18:10:17.240000+02:00</time>
      </trkpt>
      <trkpt lat="45.75518" lon="4.75057">
        <ele>215.3</ele>
        <time>2025-07-17T18:10:18.242000+02:00</time>
      </trkpt>
      <trkpt lat="45.75508" lon="4.75049">
        <ele>216</ele>
        <time>2025-07-17T18:10:20.242000+02:00</time>
      </trkpt>
      <trkpt lat="45.75502" lon="4.75047">
        <ele>216.2</ele>
        <time>2025-07-17T18:10:21.242000+02:00</time>
      </trkpt>
      <trkpt lat="45.75491" lon="4.75043">
        <ele>216.8</ele>
        <time>2025-07-17T18:10:23.241000+02:00</time>
      </trkpt>
      <trkpt lat="45.75479" lon="4.75042">
        <ele>217.3</ele>
        <time>2025-07-17T18:10:25.240000+02:00</time>
      </trkpt>
      <trkpt lat="45.75474" lon="4.75042">
        <ele>217.4</ele>
        <time>2025-07-17T18:10:26.241000+02:00</time>
      </trkpt>
      <trkpt lat="45.75468" lon="4.75041">
        <ele>217.8</ele>
        <time>2025-07-17T18:10:27.242000+02:00</time>
      </trkpt>
      <trkpt lat="45.75456" lon="4.75041">
        <ele>218.7</ele>
        <time>2025-07-17T18:10:29.240000+02:00</time>
      </trkpt>
      <trkpt lat="45.75451" lon="4.7504">
        <ele>219.1</ele>
        <time>2025-07-17T18:10:30.241000+02:00</time>
      </trkpt>
      <trkpt lat="45.75445" lon="4.7504">
        <ele>219.5</ele>
        <time>2025-07-17T18:10:31.241000+02:00</time>
      </trkpt>
      <trkpt lat="45.75435" lon="4.75036">
        <ele>220.1</ele>
        <time>2025-07-17T18:10:33.241000+02:00</time>
      </trkpt>
      <trkpt lat="45.7543" lon="4.75023">
        <ele>220.8</ele>
        <time>2025-07-17T18:10:35.242000+02:00</time>
      </trkpt>
      <trkpt lat="45.75427" lon="4.75016">
        <ele>221.3</ele>
        <time>2025-07-17T18:10:36.242000+02:00</time>
      </trkpt>
      <trkpt lat="45.75422" lon="4.75002">
        <ele>222.5</ele>
        <time>2025-07-17T18:10:38.240000+02:00</time>
      </trkpt>
      <trkpt lat="45.75419" lon="4.74995">
        <ele>223</ele>
        <time>2025-07-17T18:10:39.241000+02:00</time>
      </trkpt>
      <trkpt lat="45.75413" lon="4.74981">
        <ele>223.9</ele>
        <time>2025-07-17T18:10:41.240000+02:00</time>
      </trkpt>
      <trkpt lat="45.75411" lon="4.74974">
        <ele>224.3</ele>
        <time>2025-07-17T18:10:42.241000+02:00</time>
      </trkpt>
      <trkpt lat="45.75408" lon="4.74968">
        <ele>224.7</ele>
        <time>2025-07-17T18:10:43.242000+02:00</time>
      </trkpt>
      <trkpt lat="45.75403" lon="4.74955">
        <ele>225.3</ele>
        <time>2025-07-17T18:10:45.241000+02:00</time>
      </trkpt>
      <trkpt lat="45.75397" lon="4.74944">
        <ele>226.1</ele>
        <time>2025-07-17T18:10:47.241000+02:00</time>
      </trkpt>
      <trkpt lat="45.75395" lon="4.74939">
        <ele>226.7</ele>
        <time>2025-07-17T18:10:48.241000+02:00</time>
      </trkpt>
    </trkseg>
  </trk>
</gpx>